<?xml version="1.0" encoding="UTF-8" standalone="no" ?>
<gpx xmlns="http://www.topografix.com/GPX/1/1" xmlns:xsi="http://www.w3.org/2001/XMLSchema-instance" xsi:schemaLocation="http://www.topografix.com/GPX/1/1 http://www.topografix.com/GPX/1/1/gpx.xsd" version="1.1" creator="VisuGPX - https://www.visugpx.com">
  <metadata>
    <name>GR20 Onda- Vizzavona 30/08/18</name>
    <desc><![CDATA[Nous avons trouvé 2kg de cèpes de girolles et nous retrouvons Alex Nathan et Flo ainsi que Gérard et Claudine pour un repas à la gare de Vizzavona. Paysages superbes également ainsi que des piscines qui invitent à la détente pendant cet itinéraire.Toujours très beau temps. ]]></desc>
  </metadata>
  <trk>
    <name><![CDATA[2018-08-30 15:47:37]]></name>
    <trkseg>
      <trkpt lat="42.15318" lon="9.07361">
        <ele>1347.95</ele>
        <time>2018-08-30T05:09:52Z</time>
      </trkpt>
      <trkpt lat="42.15319" lon="9.0736">
        <ele>1347.95</ele>
        <time>2018-08-30T05:09:53Z</time>
      </trkpt>
      <trkpt lat="42.15318" lon="9.0737">
        <ele>1349.48</ele>
        <time>2018-08-30T05:10:03Z</time>
      </trkpt>
      <trkpt lat="42.1532" lon="9.07373">
        <ele>1349.69</ele>
        <time>2018-08-30T05:10:30Z</time>
      </trkpt>
      <trkpt lat="42.15323" lon="9.0738">
        <ele>1347.18</ele>
        <time>2018-08-30T05:10:43Z</time>
      </trkpt>
      <trkpt lat="42.15319" lon="9.07382">
        <ele>1347.44</ele>
        <time>2018-08-30T05:11:04Z</time>
      </trkpt>
      <trkpt lat="42.15317" lon="9.07381">
        <ele>1347.64</ele>
        <time>2018-08-30T05:11:21Z</time>
      </trkpt>
      <trkpt lat="42.1532" lon="9.07375">
        <ele>1342.97</ele>
        <time>2018-08-30T05:11:32Z</time>
      </trkpt>
      <trkpt lat="42.1532" lon="9.07375">
        <ele>1335.35</ele>
        <time>2018-08-30T05:11:33Z</time>
      </trkpt>
      <trkpt lat="42.15321" lon="9.07373">
        <ele>1356.22</ele>
        <time>2018-08-30T05:11:34Z</time>
      </trkpt>
      <trkpt lat="42.15321" lon="9.07373">
        <ele>1342.19</ele>
        <time>2018-08-30T05:11:35Z</time>
      </trkpt>
      <trkpt lat="42.15321" lon="9.07373">
        <ele>1356.1</ele>
        <time>2018-08-30T05:11:36Z</time>
      </trkpt>
      <trkpt lat="42.15321" lon="9.07373">
        <ele>1349.09</ele>
        <time>2018-08-30T05:11:37Z</time>
      </trkpt>
      <trkpt lat="42.15321" lon="9.07373">
        <ele>1345.59</ele>
        <time>2018-08-30T05:11:40Z</time>
      </trkpt>
      <trkpt lat="42.15321" lon="9.07373">
        <ele>1341.65</ele>
        <time>2018-08-30T05:11:41Z</time>
      </trkpt>
      <trkpt lat="42.15321" lon="9.07373">
        <ele>1354.18</ele>
        <time>2018-08-30T05:11:42Z</time>
      </trkpt>
      <trkpt lat="42.15321" lon="9.07374">
        <ele>1348.72</ele>
        <time>2018-08-30T05:11:43Z</time>
      </trkpt>
      <trkpt lat="42.15321" lon="9.07373">
        <ele>1347.49</ele>
        <time>2018-08-30T05:11:45Z</time>
      </trkpt>
      <trkpt lat="42.15315" lon="9.0738">
        <ele>1347.96</ele>
        <time>2018-08-30T05:12:45Z</time>
      </trkpt>
      <trkpt lat="42.15315" lon="9.07385">
        <ele>1348.99</ele>
        <time>2018-08-30T05:13:56Z</time>
      </trkpt>
      <trkpt lat="42.15314" lon="9.07385">
        <ele>1350.07</ele>
        <time>2018-08-30T05:15:06Z</time>
      </trkpt>
      <trkpt lat="42.15314" lon="9.07386">
        <ele>1351.21</ele>
        <time>2018-08-30T05:16:16Z</time>
      </trkpt>
      <trkpt lat="42.15313" lon="9.07386">
        <ele>1354.22</ele>
        <time>2018-08-30T05:16:47Z</time>
      </trkpt>
      <trkpt lat="42.15313" lon="9.07386">
        <ele>1354.28</ele>
        <time>2018-08-30T05:16:48Z</time>
      </trkpt>
      <trkpt lat="42.15313" lon="9.07385">
        <ele>1351.96</ele>
        <time>2018-08-30T05:16:50Z</time>
      </trkpt>
      <trkpt lat="42.15313" lon="9.07389">
        <ele>1352.95</ele>
        <time>2018-08-30T05:17:49Z</time>
      </trkpt>
      <trkpt lat="42.15315" lon="9.07388">
        <ele>1353.98</ele>
        <time>2018-08-30T05:18:53Z</time>
      </trkpt>
      <trkpt lat="42.15317" lon="9.07387">
        <ele>1355.21</ele>
        <time>2018-08-30T05:20:05Z</time>
      </trkpt>
      <trkpt lat="42.15317" lon="9.07385">
        <ele>1356.12</ele>
        <time>2018-08-30T05:21:05Z</time>
      </trkpt>
      <trkpt lat="42.15316" lon="9.07385">
        <ele>1356.97</ele>
        <time>2018-08-30T05:22:09Z</time>
      </trkpt>
      <trkpt lat="42.15318" lon="9.07385">
        <ele>1357.76</ele>
        <time>2018-08-30T05:23:16Z</time>
      </trkpt>
      <trkpt lat="42.15316" lon="9.07385">
        <ele>1358.64</ele>
        <time>2018-08-30T05:24:27Z</time>
      </trkpt>
      <trkpt lat="42.15318" lon="9.07386">
        <ele>1359.51</ele>
        <time>2018-08-30T05:25:36Z</time>
      </trkpt>
      <trkpt lat="42.15318" lon="9.07386">
        <ele>1362.12</ele>
        <time>2018-08-30T05:25:45Z</time>
      </trkpt>
      <trkpt lat="42.1532" lon="9.07383">
        <ele>1362.95</ele>
        <time>2018-08-30T05:26:49Z</time>
      </trkpt>
      <trkpt lat="42.15321" lon="9.07384">
        <ele>1363.74</ele>
        <time>2018-08-30T05:27:54Z</time>
      </trkpt>
      <trkpt lat="42.15319" lon="9.07385">
        <ele>1364.33</ele>
        <time>2018-08-30T05:28:50Z</time>
      </trkpt>
      <trkpt lat="42.15321" lon="9.07383">
        <ele>1365.04</ele>
        <time>2018-08-30T05:30:01Z</time>
      </trkpt>
      <trkpt lat="42.15322" lon="9.07383">
        <ele>1365.64</ele>
        <time>2018-08-30T05:31:02Z</time>
      </trkpt>
      <trkpt lat="42.15322" lon="9.07383">
        <ele>1366.3</ele>
        <time>2018-08-30T05:32:07Z</time>
      </trkpt>
      <trkpt lat="42.15321" lon="9.07385">
        <ele>1366.7</ele>
        <time>2018-08-30T05:32:44Z</time>
      </trkpt>
      <trkpt lat="42.15322" lon="9.07385">
        <ele>1367.09</ele>
        <time>2018-08-30T05:33:20Z</time>
      </trkpt>
      <trkpt lat="42.1532" lon="9.07386">
        <ele>1367.65</ele>
        <time>2018-08-30T05:34:19Z</time>
      </trkpt>
      <trkpt lat="42.15322" lon="9.07385">
        <ele>1368.2</ele>
        <time>2018-08-30T05:35:28Z</time>
      </trkpt>
      <trkpt lat="42.15321" lon="9.07385">
        <ele>1368.85</ele>
        <time>2018-08-30T05:36:49Z</time>
      </trkpt>
      <trkpt lat="42.15319" lon="9.07383">
        <ele>1369.36</ele>
        <time>2018-08-30T05:38:11Z</time>
      </trkpt>
      <trkpt lat="42.15319" lon="9.07385">
        <ele>1369.73</ele>
        <time>2018-08-30T05:39:23Z</time>
      </trkpt>
      <trkpt lat="42.1532" lon="9.07385">
        <ele>1367.6</ele>
        <time>2018-08-30T05:40:02Z</time>
      </trkpt>
      <trkpt lat="42.15322" lon="9.07385">
        <ele>1368.62</ele>
        <time>2018-08-30T05:40:25Z</time>
      </trkpt>
      <trkpt lat="42.15322" lon="9.07384">
        <ele>1368.83</ele>
        <time>2018-08-30T05:40:55Z</time>
      </trkpt>
      <trkpt lat="42.15321" lon="9.07386">
        <ele>1369.04</ele>
        <time>2018-08-30T05:41:29Z</time>
      </trkpt>
      <trkpt lat="42.1532" lon="9.07384">
        <ele>1369.37</ele>
        <time>2018-08-30T05:42:15Z</time>
      </trkpt>
      <trkpt lat="42.15321" lon="9.07383">
        <ele>1370.39</ele>
        <time>2018-08-30T05:42:42Z</time>
      </trkpt>
      <trkpt lat="42.15321" lon="9.07385">
        <ele>1370.65</ele>
        <time>2018-08-30T05:43:14Z</time>
      </trkpt>
      <trkpt lat="42.15321" lon="9.07386">
        <ele>1372.45</ele>
        <time>2018-08-30T05:43:27Z</time>
      </trkpt>
      <trkpt lat="42.15322" lon="9.07386">
        <ele>1370.12</ele>
        <time>2018-08-30T05:43:32Z</time>
      </trkpt>
      <trkpt lat="42.15322" lon="9.07384">
        <ele>1370.33</ele>
        <time>2018-08-30T05:43:55Z</time>
      </trkpt>
      <trkpt lat="42.15322" lon="9.07384">
        <ele>1370.63</ele>
        <time>2018-08-30T05:44:28Z</time>
      </trkpt>
      <trkpt lat="42.15322" lon="9.07383">
        <ele>1371</ele>
        <time>2018-08-30T05:45:15Z</time>
      </trkpt>
      <trkpt lat="42.15322" lon="9.07384">
        <ele>1371.11</ele>
        <time>2018-08-30T05:45:32Z</time>
      </trkpt>
      <trkpt lat="42.15323" lon="9.07386">
        <ele>1371.23</ele>
        <time>2018-08-30T05:45:47Z</time>
      </trkpt>
      <trkpt lat="42.15324" lon="9.07385">
        <ele>1371.36</ele>
        <time>2018-08-30T05:46:05Z</time>
      </trkpt>
      <trkpt lat="42.15324" lon="9.07385">
        <ele>1371.5</ele>
        <time>2018-08-30T05:46:26Z</time>
      </trkpt>
      <trkpt lat="42.15322" lon="9.07386">
        <ele>1371.63</ele>
        <time>2018-08-30T05:46:46Z</time>
      </trkpt>
      <trkpt lat="42.15317" lon="9.07385">
        <ele>1371.71</ele>
        <time>2018-08-30T05:46:58Z</time>
      </trkpt>
      <trkpt lat="42.15312" lon="9.07379">
        <ele>1374.26</ele>
        <time>2018-08-30T05:47:10Z</time>
      </trkpt>
      <trkpt lat="42.1531" lon="9.07377">
        <ele>1374.99</ele>
        <time>2018-08-30T05:47:24Z</time>
      </trkpt>
      <trkpt lat="42.15306" lon="9.07368">
        <ele>1376.2</ele>
        <time>2018-08-30T05:47:40Z</time>
      </trkpt>
      <trkpt lat="42.15308" lon="9.07358">
        <ele>1378.49</ele>
        <time>2018-08-30T05:47:53Z</time>
      </trkpt>
      <trkpt lat="42.15308" lon="9.07358">
        <ele>1378.48</ele>
        <time>2018-08-30T05:47:54Z</time>
      </trkpt>
      <trkpt lat="42.15302" lon="9.07357">
        <ele>1379.5</ele>
        <time>2018-08-30T05:48:09Z</time>
      </trkpt>
      <trkpt lat="42.15301" lon="9.07356">
        <ele>1383.66</ele>
        <time>2018-08-30T05:48:12Z</time>
      </trkpt>
      <trkpt lat="42.15301" lon="9.07356">
        <ele>1379.88</ele>
        <time>2018-08-30T05:48:13Z</time>
      </trkpt>
      <trkpt lat="42.15302" lon="9.07355">
        <ele>1376.22</ele>
        <time>2018-08-30T05:48:24Z</time>
      </trkpt>
      <trkpt lat="42.15302" lon="9.07355">
        <ele>1379.27</ele>
        <time>2018-08-30T05:48:25Z</time>
      </trkpt>
      <trkpt lat="42.153" lon="9.07356">
        <ele>1380.76</ele>
        <time>2018-08-30T05:48:51Z</time>
      </trkpt>
      <trkpt lat="42.153" lon="9.07356">
        <ele>1388.81</ele>
        <time>2018-08-30T05:48:52Z</time>
      </trkpt>
      <trkpt lat="42.153" lon="9.07356">
        <ele>1388.81</ele>
        <time>2018-08-30T05:48:53Z</time>
      </trkpt>
      <trkpt lat="42.153" lon="9.07356">
        <ele>1382.71</ele>
        <time>2018-08-30T05:48:54Z</time>
      </trkpt>
      <trkpt lat="42.153" lon="9.07355">
        <ele>1379.92</ele>
        <time>2018-08-30T05:48:56Z</time>
      </trkpt>
      <trkpt lat="42.15295" lon="9.07354">
        <ele>1380.01</ele>
        <time>2018-08-30T05:49:10Z</time>
      </trkpt>
      <trkpt lat="42.15296" lon="9.07353">
        <ele>1380.17</ele>
        <time>2018-08-30T05:49:26Z</time>
      </trkpt>
      <trkpt lat="42.15296" lon="9.0735">
        <ele>1382.84</ele>
        <time>2018-08-30T05:49:34Z</time>
      </trkpt>
      <trkpt lat="42.15299" lon="9.07347">
        <ele>1382.94</ele>
        <time>2018-08-30T05:49:48Z</time>
      </trkpt>
      <trkpt lat="42.15299" lon="9.07343">
        <ele>1384.48</ele>
        <time>2018-08-30T05:49:55Z</time>
      </trkpt>
      <trkpt lat="42.15303" lon="9.07337">
        <ele>1386.27</ele>
        <time>2018-08-30T05:50:09Z</time>
      </trkpt>
      <trkpt lat="42.15309" lon="9.07333">
        <ele>1388.14</ele>
        <time>2018-08-30T05:50:23Z</time>
      </trkpt>
      <trkpt lat="42.15314" lon="9.07329">
        <ele>1389.81</ele>
        <time>2018-08-30T05:50:42Z</time>
      </trkpt>
      <trkpt lat="42.15314" lon="9.07327">
        <ele>1389.94</ele>
        <time>2018-08-30T05:50:58Z</time>
      </trkpt>
      <trkpt lat="42.1531" lon="9.07323">
        <ele>1392.01</ele>
        <time>2018-08-30T05:51:11Z</time>
      </trkpt>
      <trkpt lat="42.15309" lon="9.07324">
        <ele>1392.06</ele>
        <time>2018-08-30T05:51:14Z</time>
      </trkpt>
      <trkpt lat="42.15303" lon="9.0732">
        <ele>1393.52</ele>
        <time>2018-08-30T05:51:26Z</time>
      </trkpt>
      <trkpt lat="42.15299" lon="9.07319">
        <ele>1394.43</ele>
        <time>2018-08-30T05:51:40Z</time>
      </trkpt>
      <trkpt lat="42.15294" lon="9.07314">
        <ele>1396.58</ele>
        <time>2018-08-30T05:51:55Z</time>
      </trkpt>
      <trkpt lat="42.15294" lon="9.07309">
        <ele>1398.32</ele>
        <time>2018-08-30T05:52:08Z</time>
      </trkpt>
      <trkpt lat="42.15288" lon="9.07305">
        <ele>1401</ele>
        <time>2018-08-30T05:52:23Z</time>
      </trkpt>
      <trkpt lat="42.15284" lon="9.07304">
        <ele>1403.08</ele>
        <time>2018-08-30T05:52:31Z</time>
      </trkpt>
      <trkpt lat="42.15278" lon="9.07301">
        <ele>1404.41</ele>
        <time>2018-08-30T05:52:45Z</time>
      </trkpt>
      <trkpt lat="42.15271" lon="9.07297">
        <ele>1405.35</ele>
        <time>2018-08-30T05:52:59Z</time>
      </trkpt>
      <trkpt lat="42.15265" lon="9.07295">
        <ele>1406.29</ele>
        <time>2018-08-30T05:53:11Z</time>
      </trkpt>
      <trkpt lat="42.15262" lon="9.07293">
        <ele>1408.89</ele>
        <time>2018-08-30T05:53:24Z</time>
      </trkpt>
      <trkpt lat="42.15258" lon="9.0729">
        <ele>1409.86</ele>
        <time>2018-08-30T05:53:37Z</time>
      </trkpt>
      <trkpt lat="42.15256" lon="9.07286">
        <ele>1410.84</ele>
        <time>2018-08-30T05:53:49Z</time>
      </trkpt>
      <trkpt lat="42.15253" lon="9.07283">
        <ele>1414.03</ele>
        <time>2018-08-30T05:54:02Z</time>
      </trkpt>
      <trkpt lat="42.1525" lon="9.07283">
        <ele>1414.01</ele>
        <time>2018-08-30T05:54:14Z</time>
      </trkpt>
      <trkpt lat="42.15248" lon="9.07279">
        <ele>1417.06</ele>
        <time>2018-08-30T05:54:29Z</time>
      </trkpt>
      <trkpt lat="42.15245" lon="9.07278">
        <ele>1418.33</ele>
        <time>2018-08-30T05:54:40Z</time>
      </trkpt>
      <trkpt lat="42.1524" lon="9.07275">
        <ele>1420.42</ele>
        <time>2018-08-30T05:54:54Z</time>
      </trkpt>
      <trkpt lat="42.15233" lon="9.07277">
        <ele>1421.43</ele>
        <time>2018-08-30T05:55:08Z</time>
      </trkpt>
      <trkpt lat="42.15228" lon="9.07276">
        <ele>1423.25</ele>
        <time>2018-08-30T05:55:20Z</time>
      </trkpt>
      <trkpt lat="42.15227" lon="9.07273">
        <ele>1424.09</ele>
        <time>2018-08-30T05:55:37Z</time>
      </trkpt>
      <trkpt lat="42.15232" lon="9.07267">
        <ele>1426.03</ele>
        <time>2018-08-30T05:55:50Z</time>
      </trkpt>
      <trkpt lat="42.15239" lon="9.07262">
        <ele>1426.85</ele>
        <time>2018-08-30T05:56:04Z</time>
      </trkpt>
      <trkpt lat="42.15243" lon="9.07256">
        <ele>1428.77</ele>
        <time>2018-08-30T05:56:18Z</time>
      </trkpt>
      <trkpt lat="42.15251" lon="9.07252">
        <ele>1429.82</ele>
        <time>2018-08-30T05:56:33Z</time>
      </trkpt>
      <trkpt lat="42.15255" lon="9.0725">
        <ele>1431.3</ele>
        <time>2018-08-30T05:56:39Z</time>
      </trkpt>
      <trkpt lat="42.15265" lon="9.07245">
        <ele>1432.21</ele>
        <time>2018-08-30T05:56:57Z</time>
      </trkpt>
      <trkpt lat="42.15271" lon="9.07241">
        <ele>1433.06</ele>
        <time>2018-08-30T05:57:08Z</time>
      </trkpt>
      <trkpt lat="42.15273" lon="9.07236">
        <ele>1434.82</ele>
        <time>2018-08-30T05:57:22Z</time>
      </trkpt>
      <trkpt lat="42.1528" lon="9.07231">
        <ele>1437.6</ele>
        <time>2018-08-30T05:57:38Z</time>
      </trkpt>
      <trkpt lat="42.15289" lon="9.0723">
        <ele>1438.67</ele>
        <time>2018-08-30T05:57:53Z</time>
      </trkpt>
      <trkpt lat="42.1529" lon="9.07229">
        <ele>1440.01</ele>
        <time>2018-08-30T05:57:58Z</time>
      </trkpt>
      <trkpt lat="42.15295" lon="9.07225">
        <ele>1441.12</ele>
        <time>2018-08-30T05:58:14Z</time>
      </trkpt>
      <trkpt lat="42.15301" lon="9.07219">
        <ele>1443.11</ele>
        <time>2018-08-30T05:58:30Z</time>
      </trkpt>
      <trkpt lat="42.15305" lon="9.07213">
        <ele>1445.82</ele>
        <time>2018-08-30T05:58:47Z</time>
      </trkpt>
      <trkpt lat="42.15313" lon="9.07209">
        <ele>1447.86</ele>
        <time>2018-08-30T05:59:03Z</time>
      </trkpt>
      <trkpt lat="42.1532" lon="9.07204">
        <ele>1449.81</ele>
        <time>2018-08-30T05:59:17Z</time>
      </trkpt>
      <trkpt lat="42.15329" lon="9.072">
        <ele>1450.72</ele>
        <time>2018-08-30T05:59:31Z</time>
      </trkpt>
      <trkpt lat="42.15332" lon="9.07194">
        <ele>1452.46</ele>
        <time>2018-08-30T05:59:45Z</time>
      </trkpt>
      <trkpt lat="42.15339" lon="9.07191">
        <ele>1453.57</ele>
        <time>2018-08-30T05:59:59Z</time>
      </trkpt>
      <trkpt lat="42.15349" lon="9.07186">
        <ele>1455.63</ele>
        <time>2018-08-30T06:00:17Z</time>
      </trkpt>
      <trkpt lat="42.15356" lon="9.07181">
        <ele>1457.36</ele>
        <time>2018-08-30T06:00:33Z</time>
      </trkpt>
      <trkpt lat="42.15359" lon="9.07178">
        <ele>1460.49</ele>
        <time>2018-08-30T06:00:45Z</time>
      </trkpt>
      <trkpt lat="42.15359" lon="9.07178">
        <ele>1460.48</ele>
        <time>2018-08-30T06:00:46Z</time>
      </trkpt>
      <trkpt lat="42.1536" lon="9.07176">
        <ele>1460.48</ele>
        <time>2018-08-30T06:01:01Z</time>
      </trkpt>
      <trkpt lat="42.1536" lon="9.07176">
        <ele>1460.67</ele>
        <time>2018-08-30T06:01:22Z</time>
      </trkpt>
      <trkpt lat="42.1536" lon="9.07176">
        <ele>1460.85</ele>
        <time>2018-08-30T06:01:41Z</time>
      </trkpt>
      <trkpt lat="42.1536" lon="9.07176">
        <ele>1461.14</ele>
        <time>2018-08-30T06:02:11Z</time>
      </trkpt>
      <trkpt lat="42.1536" lon="9.07176">
        <ele>1461.42</ele>
        <time>2018-08-30T06:02:39Z</time>
      </trkpt>
      <trkpt lat="42.1536" lon="9.07177">
        <ele>1461.6</ele>
        <time>2018-08-30T06:02:58Z</time>
      </trkpt>
      <trkpt lat="42.1536" lon="9.07176">
        <ele>1461.82</ele>
        <time>2018-08-30T06:03:21Z</time>
      </trkpt>
      <trkpt lat="42.15359" lon="9.07176">
        <ele>1462.14</ele>
        <time>2018-08-30T06:03:57Z</time>
      </trkpt>
      <trkpt lat="42.15354" lon="9.07167">
        <ele>1462.4</ele>
        <time>2018-08-30T06:04:11Z</time>
      </trkpt>
      <trkpt lat="42.15346" lon="9.07158">
        <ele>1464.16</ele>
        <time>2018-08-30T06:04:26Z</time>
      </trkpt>
      <trkpt lat="42.1534" lon="9.0715">
        <ele>1465.05</ele>
        <time>2018-08-30T06:04:40Z</time>
      </trkpt>
      <trkpt lat="42.15332" lon="9.07147">
        <ele>1467.16</ele>
        <time>2018-08-30T06:04:54Z</time>
      </trkpt>
      <trkpt lat="42.15323" lon="9.07142">
        <ele>1467.27</ele>
        <time>2018-08-30T06:05:09Z</time>
      </trkpt>
      <trkpt lat="42.15315" lon="9.0714">
        <ele>1468.25</ele>
        <time>2018-08-30T06:05:24Z</time>
      </trkpt>
      <trkpt lat="42.15304" lon="9.07138">
        <ele>1470.03</ele>
        <time>2018-08-30T06:05:39Z</time>
      </trkpt>
      <trkpt lat="42.15303" lon="9.07136">
        <ele>1470.08</ele>
        <time>2018-08-30T06:05:41Z</time>
      </trkpt>
      <trkpt lat="42.15291" lon="9.07123">
        <ele>1472.45</ele>
        <time>2018-08-30T06:05:59Z</time>
      </trkpt>
      <trkpt lat="42.1529" lon="9.07123">
        <ele>1472.45</ele>
        <time>2018-08-30T06:06:00Z</time>
      </trkpt>
      <trkpt lat="42.15284" lon="9.07117">
        <ele>1473.9</ele>
        <time>2018-08-30T06:06:11Z</time>
      </trkpt>
      <trkpt lat="42.15277" lon="9.07109">
        <ele>1477.01</ele>
        <time>2018-08-30T06:06:26Z</time>
      </trkpt>
      <trkpt lat="42.1527" lon="9.07101">
        <ele>1479.97</ele>
        <time>2018-08-30T06:06:44Z</time>
      </trkpt>
      <trkpt lat="42.15265" lon="9.07095">
        <ele>1482.68</ele>
        <time>2018-08-30T06:06:59Z</time>
      </trkpt>
      <trkpt lat="42.15258" lon="9.07092">
        <ele>1484.73</ele>
        <time>2018-08-30T06:07:14Z</time>
      </trkpt>
      <trkpt lat="42.15252" lon="9.07091">
        <ele>1488.32</ele>
        <time>2018-08-30T06:07:29Z</time>
      </trkpt>
      <trkpt lat="42.15251" lon="9.0709">
        <ele>1488.32</ele>
        <time>2018-08-30T06:07:30Z</time>
      </trkpt>
      <trkpt lat="42.15246" lon="9.07087">
        <ele>1490.23</ele>
        <time>2018-08-30T06:07:44Z</time>
      </trkpt>
      <trkpt lat="42.15241" lon="9.07081">
        <ele>1493.09</ele>
        <time>2018-08-30T06:08:00Z</time>
      </trkpt>
      <trkpt lat="42.15234" lon="9.0708">
        <ele>1494.84</ele>
        <time>2018-08-30T06:08:14Z</time>
      </trkpt>
      <trkpt lat="42.15232" lon="9.0708">
        <ele>1496.15</ele>
        <time>2018-08-30T06:08:17Z</time>
      </trkpt>
      <trkpt lat="42.15224" lon="9.07081">
        <ele>1498.31</ele>
        <time>2018-08-30T06:08:31Z</time>
      </trkpt>
      <trkpt lat="42.15221" lon="9.07079">
        <ele>1499.38</ele>
        <time>2018-08-30T06:08:45Z</time>
      </trkpt>
      <trkpt lat="42.15217" lon="9.07077">
        <ele>1499.57</ele>
        <time>2018-08-30T06:09:08Z</time>
      </trkpt>
      <trkpt lat="42.15211" lon="9.07081">
        <ele>1499.71</ele>
        <time>2018-08-30T06:09:21Z</time>
      </trkpt>
      <trkpt lat="42.15207" lon="9.07081">
        <ele>1500.61</ele>
        <time>2018-08-30T06:09:34Z</time>
      </trkpt>
      <trkpt lat="42.15206" lon="9.0708">
        <ele>1501.65</ele>
        <time>2018-08-30T06:09:53Z</time>
      </trkpt>
      <trkpt lat="42.15194" lon="9.07085">
        <ele>1503.88</ele>
        <time>2018-08-30T06:10:12Z</time>
      </trkpt>
      <trkpt lat="42.15185" lon="9.0708">
        <ele>1506.29</ele>
        <time>2018-08-30T06:10:27Z</time>
      </trkpt>
      <trkpt lat="42.15178" lon="9.07076">
        <ele>1509.09</ele>
        <time>2018-08-30T06:10:41Z</time>
      </trkpt>
      <trkpt lat="42.15172" lon="9.07075">
        <ele>1509.94</ele>
        <time>2018-08-30T06:10:53Z</time>
      </trkpt>
      <trkpt lat="42.15165" lon="9.07072">
        <ele>1512.59</ele>
        <time>2018-08-30T06:11:08Z</time>
      </trkpt>
      <trkpt lat="42.1516" lon="9.07064">
        <ele>1515.69</ele>
        <time>2018-08-30T06:11:21Z</time>
      </trkpt>
      <trkpt lat="42.1516" lon="9.07064">
        <ele>1515.67</ele>
        <time>2018-08-30T06:11:22Z</time>
      </trkpt>
      <trkpt lat="42.15153" lon="9.07062">
        <ele>1516.57</ele>
        <time>2018-08-30T06:11:38Z</time>
      </trkpt>
      <trkpt lat="42.15148" lon="9.07063">
        <ele>1519.3</ele>
        <time>2018-08-30T06:11:52Z</time>
      </trkpt>
      <trkpt lat="42.15143" lon="9.07062">
        <ele>1521.84</ele>
        <time>2018-08-30T06:12:04Z</time>
      </trkpt>
      <trkpt lat="42.15134" lon="9.07065">
        <ele>1523.49</ele>
        <time>2018-08-30T06:12:22Z</time>
      </trkpt>
      <trkpt lat="42.15133" lon="9.07066">
        <ele>1524.92</ele>
        <time>2018-08-30T06:12:25Z</time>
      </trkpt>
      <trkpt lat="42.15129" lon="9.07065">
        <ele>1526.41</ele>
        <time>2018-08-30T06:12:37Z</time>
      </trkpt>
      <trkpt lat="42.15122" lon="9.07065">
        <ele>1528.2</ele>
        <time>2018-08-30T06:12:53Z</time>
      </trkpt>
      <trkpt lat="42.15116" lon="9.07064">
        <ele>1530.3</ele>
        <time>2018-08-30T06:13:07Z</time>
      </trkpt>
      <trkpt lat="42.15108" lon="9.07062">
        <ele>1532.25</ele>
        <time>2018-08-30T06:13:24Z</time>
      </trkpt>
      <trkpt lat="42.15103" lon="9.07061">
        <ele>1534.44</ele>
        <time>2018-08-30T06:13:38Z</time>
      </trkpt>
      <trkpt lat="42.15098" lon="9.07061">
        <ele>1537.04</ele>
        <time>2018-08-30T06:13:51Z</time>
      </trkpt>
      <trkpt lat="42.15092" lon="9.07058">
        <ele>1539.18</ele>
        <time>2018-08-30T06:14:03Z</time>
      </trkpt>
      <trkpt lat="42.15086" lon="9.07051">
        <ele>1541.33</ele>
        <time>2018-08-30T06:14:18Z</time>
      </trkpt>
      <trkpt lat="42.15079" lon="9.07048">
        <ele>1543.15</ele>
        <time>2018-08-30T06:14:33Z</time>
      </trkpt>
      <trkpt lat="42.15077" lon="9.07048">
        <ele>1544.38</ele>
        <time>2018-08-30T06:14:37Z</time>
      </trkpt>
      <trkpt lat="42.15073" lon="9.07051">
        <ele>1546.26</ele>
        <time>2018-08-30T06:14:50Z</time>
      </trkpt>
      <trkpt lat="42.15065" lon="9.07051">
        <ele>1549.06</ele>
        <time>2018-08-30T06:15:06Z</time>
      </trkpt>
      <trkpt lat="42.15058" lon="9.07049">
        <ele>1550.92</ele>
        <time>2018-08-30T06:15:19Z</time>
      </trkpt>
      <trkpt lat="42.15057" lon="9.07047">
        <ele>1552.63</ele>
        <time>2018-08-30T06:15:23Z</time>
      </trkpt>
      <trkpt lat="42.15053" lon="9.07047">
        <ele>1553.95</ele>
        <time>2018-08-30T06:15:30Z</time>
      </trkpt>
      <trkpt lat="42.15048" lon="9.07048">
        <ele>1555.72</ele>
        <time>2018-08-30T06:15:45Z</time>
      </trkpt>
      <trkpt lat="42.15044" lon="9.0705">
        <ele>1558.33</ele>
        <time>2018-08-30T06:15:59Z</time>
      </trkpt>
      <trkpt lat="42.15036" lon="9.07049">
        <ele>1560.12</ele>
        <time>2018-08-30T06:16:15Z</time>
      </trkpt>
      <trkpt lat="42.15031" lon="9.07048">
        <ele>1563</ele>
        <time>2018-08-30T06:16:28Z</time>
      </trkpt>
      <trkpt lat="42.15025" lon="9.07046">
        <ele>1565.7</ele>
        <time>2018-08-30T06:16:43Z</time>
      </trkpt>
      <trkpt lat="42.15023" lon="9.07044">
        <ele>1566.97</ele>
        <time>2018-08-30T06:16:48Z</time>
      </trkpt>
      <trkpt lat="42.15018" lon="9.07044">
        <ele>1569.06</ele>
        <time>2018-08-30T06:17:04Z</time>
      </trkpt>
      <trkpt lat="42.15016" lon="9.07044">
        <ele>1570.38</ele>
        <time>2018-08-30T06:17:10Z</time>
      </trkpt>
      <trkpt lat="42.15013" lon="9.07041">
        <ele>1571.74</ele>
        <time>2018-08-30T06:17:18Z</time>
      </trkpt>
      <trkpt lat="42.15006" lon="9.0703">
        <ele>1572.95</ele>
        <time>2018-08-30T06:17:34Z</time>
      </trkpt>
      <trkpt lat="42.15" lon="9.07025">
        <ele>1575.3</ele>
        <time>2018-08-30T06:17:49Z</time>
      </trkpt>
      <trkpt lat="42.14996" lon="9.07026">
        <ele>1577.8</ele>
        <time>2018-08-30T06:17:58Z</time>
      </trkpt>
      <trkpt lat="42.14991" lon="9.0703">
        <ele>1578.99</ele>
        <time>2018-08-30T06:18:14Z</time>
      </trkpt>
      <trkpt lat="42.14984" lon="9.07033">
        <ele>1581.33</ele>
        <time>2018-08-30T06:18:29Z</time>
      </trkpt>
      <trkpt lat="42.1498" lon="9.07038">
        <ele>1584.07</ele>
        <time>2018-08-30T06:18:43Z</time>
      </trkpt>
      <trkpt lat="42.14974" lon="9.07046">
        <ele>1584.9</ele>
        <time>2018-08-30T06:18:59Z</time>
      </trkpt>
      <trkpt lat="42.14968" lon="9.07053">
        <ele>1587.92</ele>
        <time>2018-08-30T06:19:13Z</time>
      </trkpt>
      <trkpt lat="42.14957" lon="9.07058">
        <ele>1590.48</ele>
        <time>2018-08-30T06:19:29Z</time>
      </trkpt>
      <trkpt lat="42.14946" lon="9.07062">
        <ele>1591.34</ele>
        <time>2018-08-30T06:19:45Z</time>
      </trkpt>
      <trkpt lat="42.14938" lon="9.07068">
        <ele>1593.32</ele>
        <time>2018-08-30T06:20:00Z</time>
      </trkpt>
      <trkpt lat="42.14937" lon="9.07071">
        <ele>1594.66</ele>
        <time>2018-08-30T06:20:06Z</time>
      </trkpt>
      <trkpt lat="42.14928" lon="9.0707">
        <ele>1595.79</ele>
        <time>2018-08-30T06:20:20Z</time>
      </trkpt>
      <trkpt lat="42.1492" lon="9.07073">
        <ele>1595.89</ele>
        <time>2018-08-30T06:20:33Z</time>
      </trkpt>
      <trkpt lat="42.1492" lon="9.07074">
        <ele>1597.17</ele>
        <time>2018-08-30T06:20:35Z</time>
      </trkpt>
      <trkpt lat="42.14908" lon="9.07076">
        <ele>1599.26</ele>
        <time>2018-08-30T06:20:52Z</time>
      </trkpt>
      <trkpt lat="42.14907" lon="9.07075">
        <ele>1599.27</ele>
        <time>2018-08-30T06:20:54Z</time>
      </trkpt>
      <trkpt lat="42.14898" lon="9.07072">
        <ele>1599.35</ele>
        <time>2018-08-30T06:21:07Z</time>
      </trkpt>
      <trkpt lat="42.14894" lon="9.07077">
        <ele>1601.27</ele>
        <time>2018-08-30T06:21:21Z</time>
      </trkpt>
      <trkpt lat="42.14896" lon="9.07085">
        <ele>1604.94</ele>
        <time>2018-08-30T06:21:34Z</time>
      </trkpt>
      <trkpt lat="42.14895" lon="9.07089">
        <ele>1605.94</ele>
        <time>2018-08-30T06:21:45Z</time>
      </trkpt>
      <trkpt lat="42.14889" lon="9.07094">
        <ele>1607.82</ele>
        <time>2018-08-30T06:22:00Z</time>
      </trkpt>
      <trkpt lat="42.14882" lon="9.07097">
        <ele>1610.52</ele>
        <time>2018-08-30T06:22:15Z</time>
      </trkpt>
      <trkpt lat="42.14877" lon="9.07098">
        <ele>1611.42</ele>
        <time>2018-08-30T06:22:25Z</time>
      </trkpt>
      <trkpt lat="42.14869" lon="9.07097">
        <ele>1612.35</ele>
        <time>2018-08-30T06:22:42Z</time>
      </trkpt>
      <trkpt lat="42.14868" lon="9.07098">
        <ele>1613.7</ele>
        <time>2018-08-30T06:22:46Z</time>
      </trkpt>
      <trkpt lat="42.14864" lon="9.07095">
        <ele>1614.79</ele>
        <time>2018-08-30T06:22:57Z</time>
      </trkpt>
      <trkpt lat="42.14863" lon="9.07097">
        <ele>1616.53</ele>
        <time>2018-08-30T06:23:09Z</time>
      </trkpt>
      <trkpt lat="42.14862" lon="9.07099">
        <ele>1617.9</ele>
        <time>2018-08-30T06:23:15Z</time>
      </trkpt>
      <trkpt lat="42.14862" lon="9.07101">
        <ele>1619.37</ele>
        <time>2018-08-30T06:23:21Z</time>
      </trkpt>
      <trkpt lat="42.14862" lon="9.07105">
        <ele>1621.22</ele>
        <time>2018-08-30T06:23:36Z</time>
      </trkpt>
      <trkpt lat="42.14857" lon="9.07105">
        <ele>1622.12</ele>
        <time>2018-08-30T06:23:48Z</time>
      </trkpt>
      <trkpt lat="42.14856" lon="9.0711">
        <ele>1623.15</ele>
        <time>2018-08-30T06:24:01Z</time>
      </trkpt>
      <trkpt lat="42.14852" lon="9.07114">
        <ele>1625.19</ele>
        <time>2018-08-30T06:24:14Z</time>
      </trkpt>
      <trkpt lat="42.14847" lon="9.07114">
        <ele>1625.29</ele>
        <time>2018-08-30T06:24:26Z</time>
      </trkpt>
      <trkpt lat="42.14841" lon="9.07111">
        <ele>1626.19</ele>
        <time>2018-08-30T06:24:39Z</time>
      </trkpt>
      <trkpt lat="42.14838" lon="9.07114">
        <ele>1629.04</ele>
        <time>2018-08-30T06:24:52Z</time>
      </trkpt>
      <trkpt lat="42.14836" lon="9.07118">
        <ele>1630.46</ele>
        <time>2018-08-30T06:25:06Z</time>
      </trkpt>
      <trkpt lat="42.14829" lon="9.07116">
        <ele>1632.56</ele>
        <time>2018-08-30T06:25:24Z</time>
      </trkpt>
      <trkpt lat="42.14829" lon="9.07115">
        <ele>1633.58</ele>
        <time>2018-08-30T06:25:43Z</time>
      </trkpt>
      <trkpt lat="42.14829" lon="9.07116">
        <ele>1633.85</ele>
        <time>2018-08-30T06:26:14Z</time>
      </trkpt>
      <trkpt lat="42.14824" lon="9.07119">
        <ele>1635.92</ele>
        <time>2018-08-30T06:26:29Z</time>
      </trkpt>
      <trkpt lat="42.14821" lon="9.07119">
        <ele>1637.96</ele>
        <time>2018-08-30T06:26:44Z</time>
      </trkpt>
      <trkpt lat="42.14818" lon="9.07124">
        <ele>1639.68</ele>
        <time>2018-08-30T06:26:57Z</time>
      </trkpt>
      <trkpt lat="42.14815" lon="9.07129">
        <ele>1640.85</ele>
        <time>2018-08-30T06:27:12Z</time>
      </trkpt>
      <trkpt lat="42.14807" lon="9.07132">
        <ele>1642.8</ele>
        <time>2018-08-30T06:27:27Z</time>
      </trkpt>
      <trkpt lat="42.14796" lon="9.07137">
        <ele>1644.74</ele>
        <time>2018-08-30T06:27:44Z</time>
      </trkpt>
      <trkpt lat="42.14788" lon="9.0714">
        <ele>1646.62</ele>
        <time>2018-08-30T06:27:59Z</time>
      </trkpt>
      <trkpt lat="42.14782" lon="9.07143">
        <ele>1649.76</ele>
        <time>2018-08-30T06:28:11Z</time>
      </trkpt>
      <trkpt lat="42.14782" lon="9.07144">
        <ele>1649.77</ele>
        <time>2018-08-30T06:28:12Z</time>
      </trkpt>
      <trkpt lat="42.14775" lon="9.07145">
        <ele>1650.4</ele>
        <time>2018-08-30T06:28:27Z</time>
      </trkpt>
      <trkpt lat="42.14771" lon="9.07145">
        <ele>1651.78</ele>
        <time>2018-08-30T06:28:34Z</time>
      </trkpt>
      <trkpt lat="42.14769" lon="9.07148">
        <ele>1652.7</ele>
        <time>2018-08-30T06:28:45Z</time>
      </trkpt>
      <trkpt lat="42.14763" lon="9.07147">
        <ele>1653.86</ele>
        <time>2018-08-30T06:29:02Z</time>
      </trkpt>
      <trkpt lat="42.14759" lon="9.07149">
        <ele>1657.78</ele>
        <time>2018-08-30T06:29:15Z</time>
      </trkpt>
      <trkpt lat="42.14759" lon="9.0715">
        <ele>1657.76</ele>
        <time>2018-08-30T06:29:16Z</time>
      </trkpt>
      <trkpt lat="42.14757" lon="9.07151">
        <ele>1658.94</ele>
        <time>2018-08-30T06:29:25Z</time>
      </trkpt>
      <trkpt lat="42.14754" lon="9.07152">
        <ele>1659.74</ele>
        <time>2018-08-30T06:29:37Z</time>
      </trkpt>
      <trkpt lat="42.14751" lon="9.07154">
        <ele>1661.37</ele>
        <time>2018-08-30T06:29:57Z</time>
      </trkpt>
      <trkpt lat="42.14747" lon="9.07155">
        <ele>1663.92</ele>
        <time>2018-08-30T06:30:10Z</time>
      </trkpt>
      <trkpt lat="42.14748" lon="9.07162">
        <ele>1666.43</ele>
        <time>2018-08-30T06:30:24Z</time>
      </trkpt>
      <trkpt lat="42.14748" lon="9.07167">
        <ele>1667.36</ele>
        <time>2018-08-30T06:30:37Z</time>
      </trkpt>
      <trkpt lat="42.14741" lon="9.07165">
        <ele>1669.28</ele>
        <time>2018-08-30T06:30:54Z</time>
      </trkpt>
      <trkpt lat="42.14735" lon="9.07166">
        <ele>1671.89</ele>
        <time>2018-08-30T06:31:09Z</time>
      </trkpt>
      <trkpt lat="42.14734" lon="9.07167">
        <ele>1673.24</ele>
        <time>2018-08-30T06:31:17Z</time>
      </trkpt>
      <trkpt lat="42.14731" lon="9.0717">
        <ele>1675.16</ele>
        <time>2018-08-30T06:31:32Z</time>
      </trkpt>
      <trkpt lat="42.14725" lon="9.07172">
        <ele>1676.96</ele>
        <time>2018-08-30T06:31:48Z</time>
      </trkpt>
      <trkpt lat="42.14723" lon="9.07173">
        <ele>1678.57</ele>
        <time>2018-08-30T06:31:54Z</time>
      </trkpt>
      <trkpt lat="42.1472" lon="9.07177">
        <ele>1681.82</ele>
        <time>2018-08-30T06:32:07Z</time>
      </trkpt>
      <trkpt lat="42.1472" lon="9.07177">
        <ele>1681.79</ele>
        <time>2018-08-30T06:32:08Z</time>
      </trkpt>
      <trkpt lat="42.14719" lon="9.07179">
        <ele>1683.32</ele>
        <time>2018-08-30T06:32:14Z</time>
      </trkpt>
      <trkpt lat="42.14722" lon="9.07185">
        <ele>1684.54</ele>
        <time>2018-08-30T06:32:31Z</time>
      </trkpt>
      <trkpt lat="42.14715" lon="9.07188">
        <ele>1688.41</ele>
        <time>2018-08-30T06:32:48Z</time>
      </trkpt>
      <trkpt lat="42.14715" lon="9.07188">
        <ele>1688.4</ele>
        <time>2018-08-30T06:32:49Z</time>
      </trkpt>
      <trkpt lat="42.14714" lon="9.07191">
        <ele>1690.1</ele>
        <time>2018-08-30T06:33:00Z</time>
      </trkpt>
      <trkpt lat="42.1471" lon="9.07194">
        <ele>1690.08</ele>
        <time>2018-08-30T06:33:14Z</time>
      </trkpt>
      <trkpt lat="42.14709" lon="9.07195">
        <ele>1691.3</ele>
        <time>2018-08-30T06:33:16Z</time>
      </trkpt>
      <trkpt lat="42.14708" lon="9.07199">
        <ele>1693.19</ele>
        <time>2018-08-30T06:33:32Z</time>
      </trkpt>
      <trkpt lat="42.14705" lon="9.07201">
        <ele>1694.76</ele>
        <time>2018-08-30T06:33:40Z</time>
      </trkpt>
      <trkpt lat="42.14702" lon="9.07203">
        <ele>1696.28</ele>
        <time>2018-08-30T06:33:48Z</time>
      </trkpt>
      <trkpt lat="42.14698" lon="9.07206">
        <ele>1699.09</ele>
        <time>2018-08-30T06:34:01Z</time>
      </trkpt>
      <trkpt lat="42.14695" lon="9.07207">
        <ele>1699.16</ele>
        <time>2018-08-30T06:34:14Z</time>
      </trkpt>
      <trkpt lat="42.14688" lon="9.07209">
        <ele>1702.71</ele>
        <time>2018-08-30T06:34:31Z</time>
      </trkpt>
      <trkpt lat="42.14687" lon="9.0721">
        <ele>1702.68</ele>
        <time>2018-08-30T06:34:32Z</time>
      </trkpt>
      <trkpt lat="42.14683" lon="9.07213">
        <ele>1704.34</ele>
        <time>2018-08-30T06:34:47Z</time>
      </trkpt>
      <trkpt lat="42.14679" lon="9.07217">
        <ele>1705.39</ele>
        <time>2018-08-30T06:35:04Z</time>
      </trkpt>
      <trkpt lat="42.14676" lon="9.07217">
        <ele>1707.38</ele>
        <time>2018-08-30T06:35:10Z</time>
      </trkpt>
      <trkpt lat="42.14673" lon="9.07221">
        <ele>1709.65</ele>
        <time>2018-08-30T06:35:29Z</time>
      </trkpt>
      <trkpt lat="42.14671" lon="9.07225">
        <ele>1711.86</ele>
        <time>2018-08-30T06:35:41Z</time>
      </trkpt>
      <trkpt lat="42.14672" lon="9.07235">
        <ele>1713.6</ele>
        <time>2018-08-30T06:35:57Z</time>
      </trkpt>
      <trkpt lat="42.14673" lon="9.07241">
        <ele>1716.4</ele>
        <time>2018-08-30T06:36:11Z</time>
      </trkpt>
      <trkpt lat="42.14668" lon="9.07244">
        <ele>1718.08</ele>
        <time>2018-08-30T06:36:25Z</time>
      </trkpt>
      <trkpt lat="42.14661" lon="9.07242">
        <ele>1719.85</ele>
        <time>2018-08-30T06:36:40Z</time>
      </trkpt>
      <trkpt lat="42.14659" lon="9.07243">
        <ele>1721.94</ele>
        <time>2018-08-30T06:36:47Z</time>
      </trkpt>
      <trkpt lat="42.14653" lon="9.07243">
        <ele>1722.02</ele>
        <time>2018-08-30T06:37:01Z</time>
      </trkpt>
      <trkpt lat="42.14646" lon="9.07244">
        <ele>1724.23</ele>
        <time>2018-08-30T06:37:16Z</time>
      </trkpt>
      <trkpt lat="42.14645" lon="9.07245">
        <ele>1726.04</ele>
        <time>2018-08-30T06:37:21Z</time>
      </trkpt>
      <trkpt lat="42.14642" lon="9.07246">
        <ele>1727.01</ele>
        <time>2018-08-30T06:37:34Z</time>
      </trkpt>
      <trkpt lat="42.14643" lon="9.07254">
        <ele>1729.71</ele>
        <time>2018-08-30T06:37:49Z</time>
      </trkpt>
      <trkpt lat="42.14639" lon="9.07257">
        <ele>1731.26</ele>
        <time>2018-08-30T06:38:05Z</time>
      </trkpt>
      <trkpt lat="42.14636" lon="9.07258">
        <ele>1733.7</ele>
        <time>2018-08-30T06:38:13Z</time>
      </trkpt>
      <trkpt lat="42.14635" lon="9.07263">
        <ele>1735.07</ele>
        <time>2018-08-30T06:38:27Z</time>
      </trkpt>
      <trkpt lat="42.14632" lon="9.07261">
        <ele>1736.31</ele>
        <time>2018-08-30T06:38:38Z</time>
      </trkpt>
      <trkpt lat="42.14629" lon="9.07263">
        <ele>1737.45</ele>
        <time>2018-08-30T06:38:52Z</time>
      </trkpt>
      <trkpt lat="42.14624" lon="9.07264">
        <ele>1739.27</ele>
        <time>2018-08-30T06:39:07Z</time>
      </trkpt>
      <trkpt lat="42.14619" lon="9.07265">
        <ele>1742.18</ele>
        <time>2018-08-30T06:39:20Z</time>
      </trkpt>
      <trkpt lat="42.14622" lon="9.07275">
        <ele>1743.17</ele>
        <time>2018-08-30T06:39:36Z</time>
      </trkpt>
      <trkpt lat="42.14626" lon="9.07285">
        <ele>1745.22</ele>
        <time>2018-08-30T06:39:50Z</time>
      </trkpt>
      <trkpt lat="42.14622" lon="9.07289">
        <ele>1747.25</ele>
        <time>2018-08-30T06:40:03Z</time>
      </trkpt>
      <trkpt lat="42.14616" lon="9.07289">
        <ele>1749.14</ele>
        <time>2018-08-30T06:40:17Z</time>
      </trkpt>
      <trkpt lat="42.14611" lon="9.07286">
        <ele>1751.44</ele>
        <time>2018-08-30T06:40:31Z</time>
      </trkpt>
      <trkpt lat="42.14609" lon="9.07287">
        <ele>1753.67</ele>
        <time>2018-08-30T06:40:39Z</time>
      </trkpt>
      <trkpt lat="42.14609" lon="9.07292">
        <ele>1755.02</ele>
        <time>2018-08-30T06:40:51Z</time>
      </trkpt>
      <trkpt lat="42.14607" lon="9.07296">
        <ele>1756.65</ele>
        <time>2018-08-30T06:41:06Z</time>
      </trkpt>
      <trkpt lat="42.14605" lon="9.07299">
        <ele>1758.45</ele>
        <time>2018-08-30T06:41:19Z</time>
      </trkpt>
      <trkpt lat="42.14601" lon="9.073">
        <ele>1759.63</ele>
        <time>2018-08-30T06:41:31Z</time>
      </trkpt>
      <trkpt lat="42.14597" lon="9.07301">
        <ele>1762.24</ele>
        <time>2018-08-30T06:41:42Z</time>
      </trkpt>
      <trkpt lat="42.14597" lon="9.07307">
        <ele>1764.14</ele>
        <time>2018-08-30T06:41:55Z</time>
      </trkpt>
      <trkpt lat="42.14594" lon="9.07309">
        <ele>1765.64</ele>
        <time>2018-08-30T06:42:10Z</time>
      </trkpt>
      <trkpt lat="42.1459" lon="9.07308">
        <ele>1766.93</ele>
        <time>2018-08-30T06:42:18Z</time>
      </trkpt>
      <trkpt lat="42.14588" lon="9.07307">
        <ele>1767.8</ele>
        <time>2018-08-30T06:42:32Z</time>
      </trkpt>
      <trkpt lat="42.14582" lon="9.07307">
        <ele>1767.9</ele>
        <time>2018-08-30T06:42:49Z</time>
      </trkpt>
      <trkpt lat="42.14578" lon="9.07311">
        <ele>1770.69</ele>
        <time>2018-08-30T06:43:02Z</time>
      </trkpt>
      <trkpt lat="42.14574" lon="9.07307">
        <ele>1771.51</ele>
        <time>2018-08-30T06:43:15Z</time>
      </trkpt>
      <trkpt lat="42.14569" lon="9.07305">
        <ele>1774.2</ele>
        <time>2018-08-30T06:43:30Z</time>
      </trkpt>
      <trkpt lat="42.14564" lon="9.07303">
        <ele>1777.08</ele>
        <time>2018-08-30T06:43:46Z</time>
      </trkpt>
      <trkpt lat="42.14562" lon="9.07308">
        <ele>1778.89</ele>
        <time>2018-08-30T06:43:59Z</time>
      </trkpt>
      <trkpt lat="42.14559" lon="9.0731">
        <ele>1779.9</ele>
        <time>2018-08-30T06:44:12Z</time>
      </trkpt>
      <trkpt lat="42.14554" lon="9.07309">
        <ele>1782.51</ele>
        <time>2018-08-30T06:44:23Z</time>
      </trkpt>
      <trkpt lat="42.14549" lon="9.07306">
        <ele>1783.32</ele>
        <time>2018-08-30T06:44:36Z</time>
      </trkpt>
      <trkpt lat="42.14545" lon="9.07305">
        <ele>1785.56</ele>
        <time>2018-08-30T06:44:50Z</time>
      </trkpt>
      <trkpt lat="42.14541" lon="9.07302">
        <ele>1786.76</ele>
        <time>2018-08-30T06:45:02Z</time>
      </trkpt>
      <trkpt lat="42.14537" lon="9.07298">
        <ele>1788.99</ele>
        <time>2018-08-30T06:45:17Z</time>
      </trkpt>
      <trkpt lat="42.14533" lon="9.07299">
        <ele>1790.2</ele>
        <time>2018-08-30T06:45:32Z</time>
      </trkpt>
      <trkpt lat="42.14529" lon="9.073">
        <ele>1791.11</ele>
        <time>2018-08-30T06:45:46Z</time>
      </trkpt>
      <trkpt lat="42.14523" lon="9.07296">
        <ele>1793.19</ele>
        <time>2018-08-30T06:46:01Z</time>
      </trkpt>
      <trkpt lat="42.14519" lon="9.07296">
        <ele>1795.17</ele>
        <time>2018-08-30T06:46:14Z</time>
      </trkpt>
      <trkpt lat="42.14516" lon="9.073">
        <ele>1797.44</ele>
        <time>2018-08-30T06:46:26Z</time>
      </trkpt>
      <trkpt lat="42.14511" lon="9.07301">
        <ele>1798.48</ele>
        <time>2018-08-30T06:46:41Z</time>
      </trkpt>
      <trkpt lat="42.14508" lon="9.07303">
        <ele>1800.46</ele>
        <time>2018-08-30T06:46:54Z</time>
      </trkpt>
      <trkpt lat="42.14503" lon="9.07305">
        <ele>1801.76</ele>
        <time>2018-08-30T06:47:08Z</time>
      </trkpt>
      <trkpt lat="42.145" lon="9.07309">
        <ele>1803.83</ele>
        <time>2018-08-30T06:47:20Z</time>
      </trkpt>
      <trkpt lat="42.14498" lon="9.07313">
        <ele>1805.62</ele>
        <time>2018-08-30T06:47:33Z</time>
      </trkpt>
      <trkpt lat="42.14493" lon="9.07312">
        <ele>1807.41</ele>
        <time>2018-08-30T06:47:47Z</time>
      </trkpt>
      <trkpt lat="42.1449" lon="9.07313">
        <ele>1808.75</ele>
        <time>2018-08-30T06:47:53Z</time>
      </trkpt>
      <trkpt lat="42.14484" lon="9.07314">
        <ele>1810.65</ele>
        <time>2018-08-30T06:48:06Z</time>
      </trkpt>
      <trkpt lat="42.14482" lon="9.07314">
        <ele>1812.13</ele>
        <time>2018-08-30T06:48:13Z</time>
      </trkpt>
      <trkpt lat="42.14475" lon="9.07314">
        <ele>1813.3</ele>
        <time>2018-08-30T06:48:28Z</time>
      </trkpt>
      <trkpt lat="42.1447" lon="9.07312">
        <ele>1815.3</ele>
        <time>2018-08-30T06:48:41Z</time>
      </trkpt>
      <trkpt lat="42.14462" lon="9.07312">
        <ele>1817.22</ele>
        <time>2018-08-30T06:48:57Z</time>
      </trkpt>
      <trkpt lat="42.14456" lon="9.07309">
        <ele>1818.15</ele>
        <time>2018-08-30T06:49:11Z</time>
      </trkpt>
      <trkpt lat="42.14453" lon="9.07311">
        <ele>1820.49</ele>
        <time>2018-08-30T06:49:20Z</time>
      </trkpt>
      <trkpt lat="42.14448" lon="9.07312">
        <ele>1822.49</ele>
        <time>2018-08-30T06:49:32Z</time>
      </trkpt>
      <trkpt lat="42.14443" lon="9.07318">
        <ele>1824.51</ele>
        <time>2018-08-30T06:49:47Z</time>
      </trkpt>
      <trkpt lat="42.14441" lon="9.07326">
        <ele>1825.54</ele>
        <time>2018-08-30T06:50:01Z</time>
      </trkpt>
      <trkpt lat="42.14437" lon="9.07328">
        <ele>1827.5</ele>
        <time>2018-08-30T06:50:08Z</time>
      </trkpt>
      <trkpt lat="42.1443" lon="9.07325">
        <ele>1827.56</ele>
        <time>2018-08-30T06:50:24Z</time>
      </trkpt>
      <trkpt lat="42.14428" lon="9.07325">
        <ele>1829.86</ele>
        <time>2018-08-30T06:50:28Z</time>
      </trkpt>
      <trkpt lat="42.14426" lon="9.07326">
        <ele>1831.48</ele>
        <time>2018-08-30T06:50:34Z</time>
      </trkpt>
      <trkpt lat="42.14418" lon="9.07331">
        <ele>1832.57</ele>
        <time>2018-08-30T06:50:50Z</time>
      </trkpt>
      <trkpt lat="42.14413" lon="9.07332">
        <ele>1833.89</ele>
        <time>2018-08-30T06:51:00Z</time>
      </trkpt>
      <trkpt lat="42.14411" lon="9.07332">
        <ele>1832.52</ele>
        <time>2018-08-30T06:51:14Z</time>
      </trkpt>
      <trkpt lat="42.14404" lon="9.07333">
        <ele>1835.68</ele>
        <time>2018-08-30T06:51:26Z</time>
      </trkpt>
      <trkpt lat="42.14404" lon="9.07333">
        <ele>1835.67</ele>
        <time>2018-08-30T06:51:27Z</time>
      </trkpt>
      <trkpt lat="42.14402" lon="9.07334">
        <ele>1833.37</ele>
        <time>2018-08-30T06:51:42Z</time>
      </trkpt>
      <trkpt lat="42.1439" lon="9.07335">
        <ele>1833.45</ele>
        <time>2018-08-30T06:51:58Z</time>
      </trkpt>
      <trkpt lat="42.14388" lon="9.07338">
        <ele>1835.86</ele>
        <time>2018-08-30T06:52:02Z</time>
      </trkpt>
      <trkpt lat="42.14383" lon="9.07341">
        <ele>1835.91</ele>
        <time>2018-08-30T06:52:11Z</time>
      </trkpt>
      <trkpt lat="42.14373" lon="9.07349">
        <ele>1833.65</ele>
        <time>2018-08-30T06:52:22Z</time>
      </trkpt>
      <trkpt lat="42.14355" lon="9.07355">
        <ele>1832.57</ele>
        <time>2018-08-30T06:52:42Z</time>
      </trkpt>
      <trkpt lat="42.14346" lon="9.07357">
        <ele>1832.71</ele>
        <time>2018-08-30T06:53:00Z</time>
      </trkpt>
      <trkpt lat="42.14347" lon="9.07356">
        <ele>1832.74</ele>
        <time>2018-08-30T06:53:04Z</time>
      </trkpt>
      <trkpt lat="42.14351" lon="9.07354">
        <ele>1832.81</ele>
        <time>2018-08-30T06:53:18Z</time>
      </trkpt>
      <trkpt lat="42.1435" lon="9.07352">
        <ele>1832.91</ele>
        <time>2018-08-30T06:53:42Z</time>
      </trkpt>
      <trkpt lat="42.1435" lon="9.07352">
        <ele>1833.27</ele>
        <time>2018-08-30T06:54:59Z</time>
      </trkpt>
      <trkpt lat="42.14351" lon="9.07352">
        <ele>1833.61</ele>
        <time>2018-08-30T06:56:13Z</time>
      </trkpt>
      <trkpt lat="42.1435" lon="9.07351">
        <ele>1833.95</ele>
        <time>2018-08-30T06:56:50Z</time>
      </trkpt>
      <trkpt lat="42.1435" lon="9.07351">
        <ele>1834.35</ele>
        <time>2018-08-30T06:58:28Z</time>
      </trkpt>
      <trkpt lat="42.1435" lon="9.07351">
        <ele>1834.79</ele>
        <time>2018-08-30T07:00:04Z</time>
      </trkpt>
      <trkpt lat="42.1435" lon="9.0735">
        <ele>1833.29</ele>
        <time>2018-08-30T07:00:46Z</time>
      </trkpt>
      <trkpt lat="42.1435" lon="9.0735">
        <ele>1836.06</ele>
        <time>2018-08-30T07:00:52Z</time>
      </trkpt>
      <trkpt lat="42.1435" lon="9.0735">
        <ele>1832.97</ele>
        <time>2018-08-30T07:00:54Z</time>
      </trkpt>
      <trkpt lat="42.1435" lon="9.07351">
        <ele>1836.23</ele>
        <time>2018-08-30T07:00:55Z</time>
      </trkpt>
      <trkpt lat="42.14351" lon="9.07351">
        <ele>1833.56</ele>
        <time>2018-08-30T07:00:58Z</time>
      </trkpt>
      <trkpt lat="42.14351" lon="9.07354">
        <ele>1833.71</ele>
        <time>2018-08-30T07:01:29Z</time>
      </trkpt>
      <trkpt lat="42.14349" lon="9.07353">
        <ele>1831.45</ele>
        <time>2018-08-30T07:01:45Z</time>
      </trkpt>
      <trkpt lat="42.14349" lon="9.07353">
        <ele>1834.72</ele>
        <time>2018-08-30T07:01:46Z</time>
      </trkpt>
      <trkpt lat="42.14349" lon="9.07353">
        <ele>1834.72</ele>
        <time>2018-08-30T07:01:47Z</time>
      </trkpt>
      <trkpt lat="42.14349" lon="9.07353">
        <ele>1838.29</ele>
        <time>2018-08-30T07:01:52Z</time>
      </trkpt>
      <trkpt lat="42.14349" lon="9.07353">
        <ele>1838.3</ele>
        <time>2018-08-30T07:01:53Z</time>
      </trkpt>
      <trkpt lat="42.14349" lon="9.07353">
        <ele>1834.23</ele>
        <time>2018-08-30T07:01:54Z</time>
      </trkpt>
      <trkpt lat="42.14349" lon="9.07353">
        <ele>1834.23</ele>
        <time>2018-08-30T07:01:55Z</time>
      </trkpt>
      <trkpt lat="42.1435" lon="9.07353">
        <ele>1825.15</ele>
        <time>2018-08-30T07:01:58Z</time>
      </trkpt>
      <trkpt lat="42.1435" lon="9.07353">
        <ele>1833.7</ele>
        <time>2018-08-30T07:01:59Z</time>
      </trkpt>
      <trkpt lat="42.1435" lon="9.07352">
        <ele>1837.03</ele>
        <time>2018-08-30T07:02:12Z</time>
      </trkpt>
      <trkpt lat="42.1435" lon="9.07353">
        <ele>1837.04</ele>
        <time>2018-08-30T07:02:13Z</time>
      </trkpt>
      <trkpt lat="42.1435" lon="9.07353">
        <ele>1834.09</ele>
        <time>2018-08-30T07:02:15Z</time>
      </trkpt>
      <trkpt lat="42.14349" lon="9.07353">
        <ele>1837.44</ele>
        <time>2018-08-30T07:02:27Z</time>
      </trkpt>
      <trkpt lat="42.14349" lon="9.07353">
        <ele>1837.44</ele>
        <time>2018-08-30T07:02:28Z</time>
      </trkpt>
      <trkpt lat="42.14349" lon="9.07352">
        <ele>1835.14</ele>
        <time>2018-08-30T07:02:30Z</time>
      </trkpt>
      <trkpt lat="42.14349" lon="9.07352">
        <ele>1835.25</ele>
        <time>2018-08-30T07:03:07Z</time>
      </trkpt>
      <trkpt lat="42.1435" lon="9.07353">
        <ele>1837.91</ele>
        <time>2018-08-30T07:03:58Z</time>
      </trkpt>
      <trkpt lat="42.1435" lon="9.07353">
        <ele>1837.97</ele>
        <time>2018-08-30T07:04:20Z</time>
      </trkpt>
      <trkpt lat="42.1435" lon="9.07352">
        <ele>1838.02</ele>
        <time>2018-08-30T07:04:39Z</time>
      </trkpt>
      <trkpt lat="42.14345" lon="9.07357">
        <ele>1838.04</ele>
        <time>2018-08-30T07:04:51Z</time>
      </trkpt>
      <trkpt lat="42.14338" lon="9.07361">
        <ele>1838.11</ele>
        <time>2018-08-30T07:05:05Z</time>
      </trkpt>
      <trkpt lat="42.14328" lon="9.07364">
        <ele>1838.3</ele>
        <time>2018-08-30T07:05:21Z</time>
      </trkpt>
      <trkpt lat="42.14326" lon="9.07364">
        <ele>1839.59</ele>
        <time>2018-08-30T07:05:24Z</time>
      </trkpt>
      <trkpt lat="42.14318" lon="9.07365">
        <ele>1841.38</ele>
        <time>2018-08-30T07:05:39Z</time>
      </trkpt>
      <trkpt lat="42.14308" lon="9.07366">
        <ele>1843.43</ele>
        <time>2018-08-30T07:05:55Z</time>
      </trkpt>
      <trkpt lat="42.14298" lon="9.07363">
        <ele>1844.2</ele>
        <time>2018-08-30T07:06:11Z</time>
      </trkpt>
      <trkpt lat="42.14286" lon="9.0736">
        <ele>1846.19</ele>
        <time>2018-08-30T07:06:28Z</time>
      </trkpt>
      <trkpt lat="42.14272" lon="9.07356">
        <ele>1847.68</ele>
        <time>2018-08-30T07:06:47Z</time>
      </trkpt>
      <trkpt lat="42.14267" lon="9.0736">
        <ele>1849.03</ele>
        <time>2018-08-30T07:06:55Z</time>
      </trkpt>
      <trkpt lat="42.14265" lon="9.07363">
        <ele>1850.96</ele>
        <time>2018-08-30T07:06:58Z</time>
      </trkpt>
      <trkpt lat="42.1426" lon="9.07377">
        <ele>1852.98</ele>
        <time>2018-08-30T07:07:15Z</time>
      </trkpt>
      <trkpt lat="42.14253" lon="9.07381">
        <ele>1853.98</ele>
        <time>2018-08-30T07:07:29Z</time>
      </trkpt>
      <trkpt lat="42.14253" lon="9.07388">
        <ele>1858.19</ele>
        <time>2018-08-30T07:07:39Z</time>
      </trkpt>
      <trkpt lat="42.14253" lon="9.07388">
        <ele>1858.19</ele>
        <time>2018-08-30T07:07:40Z</time>
      </trkpt>
      <trkpt lat="42.14251" lon="9.0739">
        <ele>1855.86</ele>
        <time>2018-08-30T07:07:44Z</time>
      </trkpt>
      <trkpt lat="42.14248" lon="9.074">
        <ele>1858.55</ele>
        <time>2018-08-30T07:07:56Z</time>
      </trkpt>
      <trkpt lat="42.1424" lon="9.074">
        <ele>1860.3</ele>
        <time>2018-08-30T07:08:12Z</time>
      </trkpt>
      <trkpt lat="42.1424" lon="9.07402">
        <ele>1861.55</ele>
        <time>2018-08-30T07:08:15Z</time>
      </trkpt>
      <trkpt lat="42.14234" lon="9.07406">
        <ele>1862.59</ele>
        <time>2018-08-30T07:08:29Z</time>
      </trkpt>
      <trkpt lat="42.14223" lon="9.07409">
        <ele>1863.61</ele>
        <time>2018-08-30T07:08:47Z</time>
      </trkpt>
      <trkpt lat="42.14214" lon="9.07413">
        <ele>1865.27</ele>
        <time>2018-08-30T07:09:03Z</time>
      </trkpt>
      <trkpt lat="42.14211" lon="9.07416">
        <ele>1867.56</ele>
        <time>2018-08-30T07:09:11Z</time>
      </trkpt>
      <trkpt lat="42.14204" lon="9.07418">
        <ele>1868.82</ele>
        <time>2018-08-30T07:09:26Z</time>
      </trkpt>
      <trkpt lat="42.14201" lon="9.07428">
        <ele>1871.79</ele>
        <time>2018-08-30T07:09:43Z</time>
      </trkpt>
      <trkpt lat="42.14199" lon="9.07436">
        <ele>1873.76</ele>
        <time>2018-08-30T07:09:58Z</time>
      </trkpt>
      <trkpt lat="42.14198" lon="9.07442">
        <ele>1876.33</ele>
        <time>2018-08-30T07:10:11Z</time>
      </trkpt>
      <trkpt lat="42.14195" lon="9.07448">
        <ele>1878.01</ele>
        <time>2018-08-30T07:10:25Z</time>
      </trkpt>
      <trkpt lat="42.14187" lon="9.07448">
        <ele>1880.82</ele>
        <time>2018-08-30T07:10:42Z</time>
      </trkpt>
      <trkpt lat="42.14181" lon="9.07446">
        <ele>1881.9</ele>
        <time>2018-08-30T07:10:56Z</time>
      </trkpt>
      <trkpt lat="42.14176" lon="9.07444">
        <ele>1884</ele>
        <time>2018-08-30T07:11:10Z</time>
      </trkpt>
      <trkpt lat="42.14171" lon="9.07444">
        <ele>1885.78</ele>
        <time>2018-08-30T07:11:24Z</time>
      </trkpt>
      <trkpt lat="42.14164" lon="9.07443">
        <ele>1887.74</ele>
        <time>2018-08-30T07:11:38Z</time>
      </trkpt>
      <trkpt lat="42.14153" lon="9.07442">
        <ele>1889.78</ele>
        <time>2018-08-30T07:11:56Z</time>
      </trkpt>
      <trkpt lat="42.14145" lon="9.07441">
        <ele>1890.76</ele>
        <time>2018-08-30T07:12:12Z</time>
      </trkpt>
      <trkpt lat="42.14141" lon="9.07443">
        <ele>1893.08</ele>
        <time>2018-08-30T07:12:22Z</time>
      </trkpt>
      <trkpt lat="42.14138" lon="9.07441">
        <ele>1894.34</ele>
        <time>2018-08-30T07:12:27Z</time>
      </trkpt>
      <trkpt lat="42.14128" lon="9.0744">
        <ele>1894.39</ele>
        <time>2018-08-30T07:12:42Z</time>
      </trkpt>
      <trkpt lat="42.14125" lon="9.07445">
        <ele>1896.69</ele>
        <time>2018-08-30T07:12:53Z</time>
      </trkpt>
      <trkpt lat="42.14123" lon="9.07448">
        <ele>1897.62</ele>
        <time>2018-08-30T07:13:05Z</time>
      </trkpt>
      <trkpt lat="42.14123" lon="9.07449">
        <ele>1899.33</ele>
        <time>2018-08-30T07:13:08Z</time>
      </trkpt>
      <trkpt lat="42.14124" lon="9.07455">
        <ele>1901.32</ele>
        <time>2018-08-30T07:13:21Z</time>
      </trkpt>
      <trkpt lat="42.14121" lon="9.07457">
        <ele>1902.71</ele>
        <time>2018-08-30T07:13:31Z</time>
      </trkpt>
      <trkpt lat="42.14117" lon="9.07459">
        <ele>1904.77</ele>
        <time>2018-08-30T07:13:44Z</time>
      </trkpt>
      <trkpt lat="42.14116" lon="9.07459">
        <ele>1904.77</ele>
        <time>2018-08-30T07:13:45Z</time>
      </trkpt>
      <trkpt lat="42.14109" lon="9.07457">
        <ele>1905.91</ele>
        <time>2018-08-30T07:13:58Z</time>
      </trkpt>
      <trkpt lat="42.14103" lon="9.07463">
        <ele>1908.26</ele>
        <time>2018-08-30T07:14:13Z</time>
      </trkpt>
      <trkpt lat="42.14103" lon="9.07464">
        <ele>1909.49</ele>
        <time>2018-08-30T07:14:15Z</time>
      </trkpt>
      <trkpt lat="42.14096" lon="9.07466">
        <ele>1910.4</ele>
        <time>2018-08-30T07:14:27Z</time>
      </trkpt>
      <trkpt lat="42.14095" lon="9.07466">
        <ele>1912.09</ele>
        <time>2018-08-30T07:14:30Z</time>
      </trkpt>
      <trkpt lat="42.14091" lon="9.07469">
        <ele>1913.42</ele>
        <time>2018-08-30T07:14:41Z</time>
      </trkpt>
      <trkpt lat="42.14085" lon="9.07474">
        <ele>1915.08</ele>
        <time>2018-08-30T07:14:57Z</time>
      </trkpt>
      <trkpt lat="42.14079" lon="9.0748">
        <ele>1916.1</ele>
        <time>2018-08-30T07:15:11Z</time>
      </trkpt>
      <trkpt lat="42.14078" lon="9.07481">
        <ele>1917.81</ele>
        <time>2018-08-30T07:15:13Z</time>
      </trkpt>
      <trkpt lat="42.14073" lon="9.07483">
        <ele>1918.89</ele>
        <time>2018-08-30T07:15:26Z</time>
      </trkpt>
      <trkpt lat="42.14065" lon="9.07485">
        <ele>1918.71</ele>
        <time>2018-08-30T07:15:38Z</time>
      </trkpt>
      <trkpt lat="42.14054" lon="9.0749">
        <ele>1920.66</ele>
        <time>2018-08-30T07:15:56Z</time>
      </trkpt>
      <trkpt lat="42.14045" lon="9.07494">
        <ele>1923.52</ele>
        <time>2018-08-30T07:16:16Z</time>
      </trkpt>
      <trkpt lat="42.14042" lon="9.07495">
        <ele>1927.12</ele>
        <time>2018-08-30T07:16:23Z</time>
      </trkpt>
      <trkpt lat="42.14041" lon="9.07495">
        <ele>1927.13</ele>
        <time>2018-08-30T07:16:24Z</time>
      </trkpt>
      <trkpt lat="42.14038" lon="9.07497">
        <ele>1928.4</ele>
        <time>2018-08-30T07:16:31Z</time>
      </trkpt>
      <trkpt lat="42.1403" lon="9.07499">
        <ele>1929.28</ele>
        <time>2018-08-30T07:16:48Z</time>
      </trkpt>
      <trkpt lat="42.14028" lon="9.075">
        <ele>1930.77</ele>
        <time>2018-08-30T07:16:52Z</time>
      </trkpt>
      <trkpt lat="42.14023" lon="9.07503">
        <ele>1932.48</ele>
        <time>2018-08-30T07:17:06Z</time>
      </trkpt>
      <trkpt lat="42.1402" lon="9.07506">
        <ele>1934.03</ele>
        <time>2018-08-30T07:17:14Z</time>
      </trkpt>
      <trkpt lat="42.14013" lon="9.07507">
        <ele>1934.92</ele>
        <time>2018-08-30T07:17:28Z</time>
      </trkpt>
      <trkpt lat="42.14012" lon="9.0751">
        <ele>1936.74</ele>
        <time>2018-08-30T07:17:33Z</time>
      </trkpt>
      <trkpt lat="42.14012" lon="9.07514">
        <ele>1938.08</ele>
        <time>2018-08-30T07:17:40Z</time>
      </trkpt>
      <trkpt lat="42.14009" lon="9.07517">
        <ele>1938.76</ele>
        <time>2018-08-30T07:17:55Z</time>
      </trkpt>
      <trkpt lat="42.14006" lon="9.0752">
        <ele>1940.31</ele>
        <time>2018-08-30T07:18:01Z</time>
      </trkpt>
      <trkpt lat="42.14009" lon="9.07527">
        <ele>1942.38</ele>
        <time>2018-08-30T07:18:15Z</time>
      </trkpt>
      <trkpt lat="42.14007" lon="9.07531">
        <ele>1944.01</ele>
        <time>2018-08-30T07:18:30Z</time>
      </trkpt>
      <trkpt lat="42.14004" lon="9.07535">
        <ele>1946.54</ele>
        <time>2018-08-30T07:18:45Z</time>
      </trkpt>
      <trkpt lat="42.14002" lon="9.07538">
        <ele>1947.53</ele>
        <time>2018-08-30T07:19:00Z</time>
      </trkpt>
      <trkpt lat="42.13999" lon="9.07542">
        <ele>1948.62</ele>
        <time>2018-08-30T07:19:13Z</time>
      </trkpt>
      <trkpt lat="42.13993" lon="9.07538">
        <ele>1948.85</ele>
        <time>2018-08-30T07:19:24Z</time>
      </trkpt>
      <trkpt lat="42.13989" lon="9.07541">
        <ele>1950.35</ele>
        <time>2018-08-30T07:19:36Z</time>
      </trkpt>
      <trkpt lat="42.13986" lon="9.07543">
        <ele>1951.88</ele>
        <time>2018-08-30T07:19:49Z</time>
      </trkpt>
      <trkpt lat="42.13979" lon="9.07541">
        <ele>1951.95</ele>
        <time>2018-08-30T07:20:04Z</time>
      </trkpt>
      <trkpt lat="42.13978" lon="9.07541">
        <ele>1953.44</ele>
        <time>2018-08-30T07:20:06Z</time>
      </trkpt>
      <trkpt lat="42.13974" lon="9.07542">
        <ele>1954.82</ele>
        <time>2018-08-30T07:20:14Z</time>
      </trkpt>
      <trkpt lat="42.13965" lon="9.07536">
        <ele>1954.92</ele>
        <time>2018-08-30T07:20:28Z</time>
      </trkpt>
      <trkpt lat="42.13957" lon="9.0754">
        <ele>1957.42</ele>
        <time>2018-08-30T07:20:44Z</time>
      </trkpt>
      <trkpt lat="42.13957" lon="9.0754">
        <ele>1957.42</ele>
        <time>2018-08-30T07:20:45Z</time>
      </trkpt>
      <trkpt lat="42.13957" lon="9.07543">
        <ele>1958.73</ele>
        <time>2018-08-30T07:20:50Z</time>
      </trkpt>
      <trkpt lat="42.13953" lon="9.07548">
        <ele>1959.75</ele>
        <time>2018-08-30T07:21:04Z</time>
      </trkpt>
      <trkpt lat="42.13944" lon="9.07547">
        <ele>1960.61</ele>
        <time>2018-08-30T07:21:19Z</time>
      </trkpt>
      <trkpt lat="42.13941" lon="9.07549">
        <ele>1963.54</ele>
        <time>2018-08-30T07:21:26Z</time>
      </trkpt>
      <trkpt lat="42.13934" lon="9.07556">
        <ele>1964.3</ele>
        <time>2018-08-30T07:21:42Z</time>
      </trkpt>
      <trkpt lat="42.1393" lon="9.07553">
        <ele>1965.14</ele>
        <time>2018-08-30T07:22:01Z</time>
      </trkpt>
      <trkpt lat="42.13925" lon="9.07554">
        <ele>1968.07</ele>
        <time>2018-08-30T07:22:16Z</time>
      </trkpt>
      <trkpt lat="42.13923" lon="9.07557">
        <ele>1968.84</ele>
        <time>2018-08-30T07:22:29Z</time>
      </trkpt>
      <trkpt lat="42.13916" lon="9.07556">
        <ele>1971.54</ele>
        <time>2018-08-30T07:22:45Z</time>
      </trkpt>
      <trkpt lat="42.13913" lon="9.07561">
        <ele>1973.51</ele>
        <time>2018-08-30T07:22:58Z</time>
      </trkpt>
      <trkpt lat="42.13912" lon="9.07566">
        <ele>1975.55</ele>
        <time>2018-08-30T07:23:13Z</time>
      </trkpt>
      <trkpt lat="42.1391" lon="9.0757">
        <ele>1977.77</ele>
        <time>2018-08-30T07:23:25Z</time>
      </trkpt>
      <trkpt lat="42.1391" lon="9.07571">
        <ele>1977.76</ele>
        <time>2018-08-30T07:23:26Z</time>
      </trkpt>
      <trkpt lat="42.13906" lon="9.0757">
        <ele>1978.98</ele>
        <time>2018-08-30T07:23:36Z</time>
      </trkpt>
      <trkpt lat="42.13901" lon="9.07572">
        <ele>1980.88</ele>
        <time>2018-08-30T07:23:51Z</time>
      </trkpt>
      <trkpt lat="42.13899" lon="9.07572">
        <ele>1980.96</ele>
        <time>2018-08-30T07:24:12Z</time>
      </trkpt>
      <trkpt lat="42.13895" lon="9.07574">
        <ele>1981.05</ele>
        <time>2018-08-30T07:24:38Z</time>
      </trkpt>
      <trkpt lat="42.1389" lon="9.07568">
        <ele>1981.15</ele>
        <time>2018-08-30T07:25:06Z</time>
      </trkpt>
      <trkpt lat="42.13874" lon="9.07558">
        <ele>1981.2</ele>
        <time>2018-08-30T07:25:25Z</time>
      </trkpt>
      <trkpt lat="42.13864" lon="9.07556">
        <ele>1983.17</ele>
        <time>2018-08-30T07:25:42Z</time>
      </trkpt>
      <trkpt lat="42.13861" lon="9.07561">
        <ele>1985.33</ele>
        <time>2018-08-30T07:25:58Z</time>
      </trkpt>
      <trkpt lat="42.13861" lon="9.07568">
        <ele>1987.36</ele>
        <time>2018-08-30T07:26:13Z</time>
      </trkpt>
      <trkpt lat="42.13856" lon="9.0757">
        <ele>1988.89</ele>
        <time>2018-08-30T07:26:28Z</time>
      </trkpt>
      <trkpt lat="42.1386" lon="9.07575">
        <ele>1991.14</ele>
        <time>2018-08-30T07:26:41Z</time>
      </trkpt>
      <trkpt lat="42.13859" lon="9.07578">
        <ele>1992.44</ele>
        <time>2018-08-30T07:26:46Z</time>
      </trkpt>
      <trkpt lat="42.13855" lon="9.07581">
        <ele>1994.3</ele>
        <time>2018-08-30T07:27:03Z</time>
      </trkpt>
      <trkpt lat="42.1385" lon="9.07584">
        <ele>1996.07</ele>
        <time>2018-08-30T07:27:17Z</time>
      </trkpt>
      <trkpt lat="42.13847" lon="9.07583">
        <ele>1996.98</ele>
        <time>2018-08-30T07:27:30Z</time>
      </trkpt>
      <trkpt lat="42.13844" lon="9.07581">
        <ele>1998.48</ele>
        <time>2018-08-30T07:27:39Z</time>
      </trkpt>
      <trkpt lat="42.13837" lon="9.0758">
        <ele>1999.36</ele>
        <time>2018-08-30T07:27:53Z</time>
      </trkpt>
      <trkpt lat="42.13837" lon="9.0758">
        <ele>2001.14</ele>
        <time>2018-08-30T07:27:55Z</time>
      </trkpt>
      <trkpt lat="42.1383" lon="9.07579">
        <ele>2003.15</ele>
        <time>2018-08-30T07:28:11Z</time>
      </trkpt>
      <trkpt lat="42.13824" lon="9.07578">
        <ele>2004.28</ele>
        <time>2018-08-30T07:28:26Z</time>
      </trkpt>
      <trkpt lat="42.1382" lon="9.07578">
        <ele>2006.53</ele>
        <time>2018-08-30T07:28:38Z</time>
      </trkpt>
      <trkpt lat="42.13819" lon="9.0758">
        <ele>2007.86</ele>
        <time>2018-08-30T07:28:45Z</time>
      </trkpt>
      <trkpt lat="42.13818" lon="9.07585">
        <ele>2009.79</ele>
        <time>2018-08-30T07:28:59Z</time>
      </trkpt>
      <trkpt lat="42.13813" lon="9.07583">
        <ele>2010.7</ele>
        <time>2018-08-30T07:29:13Z</time>
      </trkpt>
      <trkpt lat="42.13805" lon="9.07579">
        <ele>2011.78</ele>
        <time>2018-08-30T07:29:29Z</time>
      </trkpt>
      <trkpt lat="42.13802" lon="9.07581">
        <ele>2014.37</ele>
        <time>2018-08-30T07:29:42Z</time>
      </trkpt>
      <trkpt lat="42.13801" lon="9.07581">
        <ele>2014.4</ele>
        <time>2018-08-30T07:29:43Z</time>
      </trkpt>
      <trkpt lat="42.13797" lon="9.0758">
        <ele>2015.27</ele>
        <time>2018-08-30T07:29:55Z</time>
      </trkpt>
      <trkpt lat="42.13792" lon="9.07578">
        <ele>2015.32</ele>
        <time>2018-08-30T07:30:07Z</time>
      </trkpt>
      <trkpt lat="42.13788" lon="9.07575">
        <ele>2015.36</ele>
        <time>2018-08-30T07:30:18Z</time>
      </trkpt>
      <trkpt lat="42.13782" lon="9.07575">
        <ele>2017.01</ele>
        <time>2018-08-30T07:30:32Z</time>
      </trkpt>
      <trkpt lat="42.1378" lon="9.07574">
        <ele>2017.99</ele>
        <time>2018-08-30T07:30:45Z</time>
      </trkpt>
      <trkpt lat="42.13776" lon="9.07572">
        <ele>2020.28</ele>
        <time>2018-08-30T07:30:58Z</time>
      </trkpt>
      <trkpt lat="42.13777" lon="9.07569">
        <ele>2021.28</ele>
        <time>2018-08-30T07:31:13Z</time>
      </trkpt>
      <trkpt lat="42.13778" lon="9.07568">
        <ele>2021.32</ele>
        <time>2018-08-30T07:31:33Z</time>
      </trkpt>
      <trkpt lat="42.13778" lon="9.07567">
        <ele>2021.37</ele>
        <time>2018-08-30T07:31:56Z</time>
      </trkpt>
      <trkpt lat="42.13777" lon="9.07567">
        <ele>2018.6</ele>
        <time>2018-08-30T07:32:18Z</time>
      </trkpt>
      <trkpt lat="42.13775" lon="9.07566">
        <ele>2021.3</ele>
        <time>2018-08-30T07:32:31Z</time>
      </trkpt>
      <trkpt lat="42.13771" lon="9.07569">
        <ele>2021.32</ele>
        <time>2018-08-30T07:32:43Z</time>
      </trkpt>
      <trkpt lat="42.13768" lon="9.07572">
        <ele>2021.31</ele>
        <time>2018-08-30T07:32:59Z</time>
      </trkpt>
      <trkpt lat="42.13763" lon="9.07576">
        <ele>2021.35</ele>
        <time>2018-08-30T07:33:11Z</time>
      </trkpt>
      <trkpt lat="42.13755" lon="9.07579">
        <ele>2022.37</ele>
        <time>2018-08-30T07:33:23Z</time>
      </trkpt>
      <trkpt lat="42.13749" lon="9.07582">
        <ele>2022.42</ele>
        <time>2018-08-30T07:33:38Z</time>
      </trkpt>
      <trkpt lat="42.1375" lon="9.07585">
        <ele>2024.21</ele>
        <time>2018-08-30T07:33:51Z</time>
      </trkpt>
      <trkpt lat="42.1375" lon="9.07588">
        <ele>2027.05</ele>
        <time>2018-08-30T07:34:04Z</time>
      </trkpt>
      <trkpt lat="42.13747" lon="9.0759">
        <ele>2027.08</ele>
        <time>2018-08-30T07:34:19Z</time>
      </trkpt>
      <trkpt lat="42.13746" lon="9.0759">
        <ele>2028.98</ele>
        <time>2018-08-30T07:34:23Z</time>
      </trkpt>
      <trkpt lat="42.13745" lon="9.07593">
        <ele>2030.17</ele>
        <time>2018-08-30T07:34:37Z</time>
      </trkpt>
      <trkpt lat="42.13746" lon="9.07594">
        <ele>2032.05</ele>
        <time>2018-08-30T07:34:40Z</time>
      </trkpt>
      <trkpt lat="42.13749" lon="9.07599">
        <ele>2034.04</ele>
        <time>2018-08-30T07:34:54Z</time>
      </trkpt>
      <trkpt lat="42.13749" lon="9.07601">
        <ele>2035.08</ele>
        <time>2018-08-30T07:35:07Z</time>
      </trkpt>
      <trkpt lat="42.13748" lon="9.07605">
        <ele>2036.93</ele>
        <time>2018-08-30T07:35:19Z</time>
      </trkpt>
      <trkpt lat="42.13747" lon="9.07605">
        <ele>2038.16</ele>
        <time>2018-08-30T07:35:22Z</time>
      </trkpt>
      <trkpt lat="42.13743" lon="9.07604">
        <ele>2039.17</ele>
        <time>2018-08-30T07:35:37Z</time>
      </trkpt>
      <trkpt lat="42.1374" lon="9.07604">
        <ele>2041.02</ele>
        <time>2018-08-30T07:35:42Z</time>
      </trkpt>
      <trkpt lat="42.13732" lon="9.07604">
        <ele>2042.05</ele>
        <time>2018-08-30T07:35:57Z</time>
      </trkpt>
      <trkpt lat="42.13727" lon="9.07606">
        <ele>2044</ele>
        <time>2018-08-30T07:36:13Z</time>
      </trkpt>
      <trkpt lat="42.13725" lon="9.07608">
        <ele>2046.74</ele>
        <time>2018-08-30T07:36:25Z</time>
      </trkpt>
      <trkpt lat="42.13722" lon="9.07609">
        <ele>2048</ele>
        <time>2018-08-30T07:36:34Z</time>
      </trkpt>
      <trkpt lat="42.13718" lon="9.07612">
        <ele>2049.11</ele>
        <time>2018-08-30T07:36:47Z</time>
      </trkpt>
      <trkpt lat="42.13715" lon="9.07615">
        <ele>2052.46</ele>
        <time>2018-08-30T07:37:01Z</time>
      </trkpt>
      <trkpt lat="42.13714" lon="9.07615">
        <ele>2052.6</ele>
        <time>2018-08-30T07:37:02Z</time>
      </trkpt>
      <trkpt lat="42.13712" lon="9.07617">
        <ele>2054.82</ele>
        <time>2018-08-30T07:37:14Z</time>
      </trkpt>
      <trkpt lat="42.13708" lon="9.07618">
        <ele>2055.75</ele>
        <time>2018-08-30T07:37:28Z</time>
      </trkpt>
      <trkpt lat="42.13707" lon="9.07619">
        <ele>2057.81</ele>
        <time>2018-08-30T07:37:41Z</time>
      </trkpt>
      <trkpt lat="42.13702" lon="9.07617">
        <ele>2059.45</ele>
        <time>2018-08-30T07:37:55Z</time>
      </trkpt>
      <trkpt lat="42.13701" lon="9.07618">
        <ele>2060.33</ele>
        <time>2018-08-30T07:38:07Z</time>
      </trkpt>
      <trkpt lat="42.13703" lon="9.07623">
        <ele>2061.49</ele>
        <time>2018-08-30T07:38:20Z</time>
      </trkpt>
      <trkpt lat="42.13707" lon="9.07628">
        <ele>2062.54</ele>
        <time>2018-08-30T07:38:37Z</time>
      </trkpt>
      <trkpt lat="42.13707" lon="9.0763">
        <ele>2062.62</ele>
        <time>2018-08-30T07:38:54Z</time>
      </trkpt>
      <trkpt lat="42.13708" lon="9.07633">
        <ele>2065.98</ele>
        <time>2018-08-30T07:39:06Z</time>
      </trkpt>
      <trkpt lat="42.13707" lon="9.07633">
        <ele>2065.97</ele>
        <time>2018-08-30T07:39:07Z</time>
      </trkpt>
      <trkpt lat="42.13706" lon="9.07634">
        <ele>2067.6</ele>
        <time>2018-08-30T07:39:16Z</time>
      </trkpt>
      <trkpt lat="42.13702" lon="9.07633">
        <ele>2068.65</ele>
        <time>2018-08-30T07:39:27Z</time>
      </trkpt>
      <trkpt lat="42.137" lon="9.07635">
        <ele>2070.34</ele>
        <time>2018-08-30T07:39:42Z</time>
      </trkpt>
      <trkpt lat="42.13702" lon="9.07638">
        <ele>2072.36</ele>
        <time>2018-08-30T07:39:52Z</time>
      </trkpt>
      <trkpt lat="42.137" lon="9.0764">
        <ele>2073.72</ele>
        <time>2018-08-30T07:40:06Z</time>
      </trkpt>
      <trkpt lat="42.137" lon="9.07641">
        <ele>2073.79</ele>
        <time>2018-08-30T07:40:07Z</time>
      </trkpt>
      <trkpt lat="42.13702" lon="9.07644">
        <ele>2075.15</ele>
        <time>2018-08-30T07:40:15Z</time>
      </trkpt>
      <trkpt lat="42.13705" lon="9.07646">
        <ele>2075.95</ele>
        <time>2018-08-30T07:40:28Z</time>
      </trkpt>
      <trkpt lat="42.13706" lon="9.07651">
        <ele>2077.05</ele>
        <time>2018-08-30T07:40:40Z</time>
      </trkpt>
      <trkpt lat="42.13707" lon="9.07653">
        <ele>2077.91</ele>
        <time>2018-08-30T07:40:53Z</time>
      </trkpt>
      <trkpt lat="42.13707" lon="9.07654">
        <ele>2079.16</ele>
        <time>2018-08-30T07:40:56Z</time>
      </trkpt>
      <trkpt lat="42.13704" lon="9.07654">
        <ele>2080.21</ele>
        <time>2018-08-30T07:41:07Z</time>
      </trkpt>
      <trkpt lat="42.13701" lon="9.07658">
        <ele>2082.82</ele>
        <time>2018-08-30T07:41:18Z</time>
      </trkpt>
      <trkpt lat="42.13697" lon="9.0766">
        <ele>2083.59</ele>
        <time>2018-08-30T07:41:31Z</time>
      </trkpt>
      <trkpt lat="42.13694" lon="9.07662">
        <ele>2085.33</ele>
        <time>2018-08-30T07:41:45Z</time>
      </trkpt>
      <trkpt lat="42.13692" lon="9.07664">
        <ele>2087.36</ele>
        <time>2018-08-30T07:41:54Z</time>
      </trkpt>
      <trkpt lat="42.1369" lon="9.07664">
        <ele>2088.01</ele>
        <time>2018-08-30T07:42:13Z</time>
      </trkpt>
      <trkpt lat="42.13685" lon="9.07666">
        <ele>2089.86</ele>
        <time>2018-08-30T07:42:27Z</time>
      </trkpt>
      <trkpt lat="42.13685" lon="9.07669">
        <ele>2091.69</ele>
        <time>2018-08-30T07:42:39Z</time>
      </trkpt>
      <trkpt lat="42.13685" lon="9.0767">
        <ele>2093.44</ele>
        <time>2018-08-30T07:42:42Z</time>
      </trkpt>
      <trkpt lat="42.13686" lon="9.07676">
        <ele>2094.52</ele>
        <time>2018-08-30T07:42:54Z</time>
      </trkpt>
      <trkpt lat="42.13685" lon="9.07678">
        <ele>2097.03</ele>
        <time>2018-08-30T07:43:02Z</time>
      </trkpt>
      <trkpt lat="42.13686" lon="9.07682">
        <ele>2097.91</ele>
        <time>2018-08-30T07:43:14Z</time>
      </trkpt>
      <trkpt lat="42.13684" lon="9.07685">
        <ele>2099.9</ele>
        <time>2018-08-30T07:43:27Z</time>
      </trkpt>
      <trkpt lat="42.13683" lon="9.07689">
        <ele>2101.48</ele>
        <time>2018-08-30T07:43:40Z</time>
      </trkpt>
      <trkpt lat="42.13687" lon="9.07696">
        <ele>2103.15</ele>
        <time>2018-08-30T07:43:53Z</time>
      </trkpt>
      <trkpt lat="42.13687" lon="9.07698">
        <ele>2104.58</ele>
        <time>2018-08-30T07:43:57Z</time>
      </trkpt>
      <trkpt lat="42.13685" lon="9.07705">
        <ele>2104.67</ele>
        <time>2018-08-30T07:44:09Z</time>
      </trkpt>
      <trkpt lat="42.13685" lon="9.07709">
        <ele>2104.68</ele>
        <time>2018-08-30T07:44:23Z</time>
      </trkpt>
      <trkpt lat="42.13682" lon="9.07717">
        <ele>2105.7</ele>
        <time>2018-08-30T07:44:37Z</time>
      </trkpt>
      <trkpt lat="42.1368" lon="9.07715">
        <ele>2106.5</ele>
        <time>2018-08-30T07:44:51Z</time>
      </trkpt>
      <trkpt lat="42.13679" lon="9.07719">
        <ele>2106.63</ele>
        <time>2018-08-30T07:45:28Z</time>
      </trkpt>
      <trkpt lat="42.13679" lon="9.07721">
        <ele>2106.77</ele>
        <time>2018-08-30T07:45:43Z</time>
      </trkpt>
      <trkpt lat="42.13679" lon="9.07722">
        <ele>2108.36</ele>
        <time>2018-08-30T07:46:10Z</time>
      </trkpt>
      <trkpt lat="42.13678" lon="9.07721">
        <ele>2108.46</ele>
        <time>2018-08-30T07:46:29Z</time>
      </trkpt>
      <trkpt lat="42.13676" lon="9.07721">
        <ele>2108.54</ele>
        <time>2018-08-30T07:46:44Z</time>
      </trkpt>
      <trkpt lat="42.13675" lon="9.07719">
        <ele>2108.65</ele>
        <time>2018-08-30T07:47:05Z</time>
      </trkpt>
      <trkpt lat="42.13676" lon="9.07719">
        <ele>2108.73</ele>
        <time>2018-08-30T07:47:22Z</time>
      </trkpt>
      <trkpt lat="42.13677" lon="9.07719">
        <ele>2108.88</ele>
        <time>2018-08-30T07:47:58Z</time>
      </trkpt>
      <trkpt lat="42.13676" lon="9.07718">
        <ele>2106.31</ele>
        <time>2018-08-30T07:48:06Z</time>
      </trkpt>
      <trkpt lat="42.13676" lon="9.07718">
        <ele>2106.57</ele>
        <time>2018-08-30T07:49:14Z</time>
      </trkpt>
      <trkpt lat="42.13676" lon="9.07718">
        <ele>2106.85</ele>
        <time>2018-08-30T07:50:33Z</time>
      </trkpt>
      <trkpt lat="42.13677" lon="9.07718">
        <ele>2107.13</ele>
        <time>2018-08-30T07:51:59Z</time>
      </trkpt>
      <trkpt lat="42.13677" lon="9.07717">
        <ele>2107.4</ele>
        <time>2018-08-30T07:53:22Z</time>
      </trkpt>
      <trkpt lat="42.13676" lon="9.07718">
        <ele>2107.62</ele>
        <time>2018-08-30T07:54:37Z</time>
      </trkpt>
      <trkpt lat="42.13676" lon="9.07717">
        <ele>2107.81</ele>
        <time>2018-08-30T07:55:42Z</time>
      </trkpt>
      <trkpt lat="42.13677" lon="9.07718">
        <ele>2107.99</ele>
        <time>2018-08-30T07:56:46Z</time>
      </trkpt>
      <trkpt lat="42.13677" lon="9.07718">
        <ele>2108.16</ele>
        <time>2018-08-30T07:58:00Z</time>
      </trkpt>
      <trkpt lat="42.13677" lon="9.07718">
        <ele>2108.34</ele>
        <time>2018-08-30T07:59:19Z</time>
      </trkpt>
      <trkpt lat="42.13676" lon="9.07718">
        <ele>2108.46</ele>
        <time>2018-08-30T08:00:27Z</time>
      </trkpt>
      <trkpt lat="42.13677" lon="9.07717">
        <ele>2108.51</ele>
        <time>2018-08-30T08:00:52Z</time>
      </trkpt>
      <trkpt lat="42.13677" lon="9.07716">
        <ele>2108.56</ele>
        <time>2018-08-30T08:01:18Z</time>
      </trkpt>
      <trkpt lat="42.13677" lon="9.07716">
        <ele>2108.63</ele>
        <time>2018-08-30T08:01:48Z</time>
      </trkpt>
      <trkpt lat="42.13677" lon="9.07716">
        <ele>2108.68</ele>
        <time>2018-08-30T08:02:10Z</time>
      </trkpt>
      <trkpt lat="42.13677" lon="9.07718">
        <ele>2108.79</ele>
        <time>2018-08-30T08:02:53Z</time>
      </trkpt>
      <trkpt lat="42.13677" lon="9.07717">
        <ele>2108.84</ele>
        <time>2018-08-30T08:03:17Z</time>
      </trkpt>
      <trkpt lat="42.13677" lon="9.07717">
        <ele>2108.9</ele>
        <time>2018-08-30T08:03:45Z</time>
      </trkpt>
      <trkpt lat="42.13678" lon="9.07718">
        <ele>2108.96</ele>
        <time>2018-08-30T08:04:11Z</time>
      </trkpt>
      <trkpt lat="42.13679" lon="9.07724">
        <ele>2108.98</ele>
        <time>2018-08-30T08:04:30Z</time>
      </trkpt>
      <trkpt lat="42.13677" lon="9.07725">
        <ele>2106.85</ele>
        <time>2018-08-30T08:04:45Z</time>
      </trkpt>
      <trkpt lat="42.13673" lon="9.07723">
        <ele>2104.57</ele>
        <time>2018-08-30T08:05:00Z</time>
      </trkpt>
      <trkpt lat="42.1367" lon="9.07723">
        <ele>2103.4</ele>
        <time>2018-08-30T08:05:13Z</time>
      </trkpt>
      <trkpt lat="42.13669" lon="9.07724">
        <ele>2102.18</ele>
        <time>2018-08-30T08:05:26Z</time>
      </trkpt>
      <trkpt lat="42.1367" lon="9.07725">
        <ele>2101.35</ele>
        <time>2018-08-30T08:05:39Z</time>
      </trkpt>
      <trkpt lat="42.13667" lon="9.07726">
        <ele>2099.56</ele>
        <time>2018-08-30T08:05:54Z</time>
      </trkpt>
      <trkpt lat="42.13663" lon="9.07728">
        <ele>2097.26</ele>
        <time>2018-08-30T08:06:05Z</time>
      </trkpt>
      <trkpt lat="42.13663" lon="9.07735">
        <ele>2096.19</ele>
        <time>2018-08-30T08:06:18Z</time>
      </trkpt>
      <trkpt lat="42.13664" lon="9.0774">
        <ele>2094.34</ele>
        <time>2018-08-30T08:06:30Z</time>
      </trkpt>
      <trkpt lat="42.13666" lon="9.07746">
        <ele>2091.52</ele>
        <time>2018-08-30T08:06:40Z</time>
      </trkpt>
      <trkpt lat="42.13673" lon="9.07755">
        <ele>2091.55</ele>
        <time>2018-08-30T08:06:55Z</time>
      </trkpt>
      <trkpt lat="42.13674" lon="9.0776">
        <ele>2090.19</ele>
        <time>2018-08-30T08:07:02Z</time>
      </trkpt>
      <trkpt lat="42.13676" lon="9.07768">
        <ele>2089.4</ele>
        <time>2018-08-30T08:07:16Z</time>
      </trkpt>
      <trkpt lat="42.13675" lon="9.07773">
        <ele>2086.74</ele>
        <time>2018-08-30T08:07:29Z</time>
      </trkpt>
      <trkpt lat="42.13676" lon="9.07777">
        <ele>2085.75</ele>
        <time>2018-08-30T08:07:43Z</time>
      </trkpt>
      <trkpt lat="42.13676" lon="9.07779">
        <ele>2084.66</ele>
        <time>2018-08-30T08:07:53Z</time>
      </trkpt>
      <trkpt lat="42.13681" lon="9.07786">
        <ele>2083.58</ele>
        <time>2018-08-30T08:08:07Z</time>
      </trkpt>
      <trkpt lat="42.13683" lon="9.07791">
        <ele>2081.55</ele>
        <time>2018-08-30T08:08:15Z</time>
      </trkpt>
      <trkpt lat="42.13684" lon="9.07796">
        <ele>2080.66</ele>
        <time>2018-08-30T08:08:26Z</time>
      </trkpt>
      <trkpt lat="42.13685" lon="9.078">
        <ele>2079.79</ele>
        <time>2018-08-30T08:08:38Z</time>
      </trkpt>
      <trkpt lat="42.1369" lon="9.07809">
        <ele>2078.74</ele>
        <time>2018-08-30T08:08:52Z</time>
      </trkpt>
      <trkpt lat="42.13689" lon="9.07815">
        <ele>2075.13</ele>
        <time>2018-08-30T08:09:05Z</time>
      </trkpt>
      <trkpt lat="42.13687" lon="9.07819">
        <ele>2072.96</ele>
        <time>2018-08-30T08:09:14Z</time>
      </trkpt>
      <trkpt lat="42.13684" lon="9.07821">
        <ele>2070.77</ele>
        <time>2018-08-30T08:09:26Z</time>
      </trkpt>
      <trkpt lat="42.13682" lon="9.07826">
        <ele>2069.1</ele>
        <time>2018-08-30T08:09:45Z</time>
      </trkpt>
      <trkpt lat="42.13683" lon="9.07832">
        <ele>2066.51</ele>
        <time>2018-08-30T08:09:54Z</time>
      </trkpt>
      <trkpt lat="42.1368" lon="9.07833">
        <ele>2064.73</ele>
        <time>2018-08-30T08:10:00Z</time>
      </trkpt>
      <trkpt lat="42.13677" lon="9.07836">
        <ele>2063.78</ele>
        <time>2018-08-30T08:10:12Z</time>
      </trkpt>
      <trkpt lat="42.13678" lon="9.07841">
        <ele>2061.26</ele>
        <time>2018-08-30T08:10:20Z</time>
      </trkpt>
      <trkpt lat="42.13681" lon="9.07851">
        <ele>2058.93</ele>
        <time>2018-08-30T08:10:34Z</time>
      </trkpt>
      <trkpt lat="42.13681" lon="9.07852">
        <ele>2058.94</ele>
        <time>2018-08-30T08:10:35Z</time>
      </trkpt>
      <trkpt lat="42.13678" lon="9.07855">
        <ele>2057.57</ele>
        <time>2018-08-30T08:10:42Z</time>
      </trkpt>
      <trkpt lat="42.13677" lon="9.07858">
        <ele>2055.31</ele>
        <time>2018-08-30T08:10:46Z</time>
      </trkpt>
      <trkpt lat="42.13676" lon="9.07866">
        <ele>2054.54</ele>
        <time>2018-08-30T08:10:59Z</time>
      </trkpt>
      <trkpt lat="42.13677" lon="9.07873">
        <ele>2052.13</ele>
        <time>2018-08-30T08:11:07Z</time>
      </trkpt>
      <trkpt lat="42.13679" lon="9.07882">
        <ele>2049.07</ele>
        <time>2018-08-30T08:11:20Z</time>
      </trkpt>
      <trkpt lat="42.1368" lon="9.07883">
        <ele>2049.07</ele>
        <time>2018-08-30T08:11:21Z</time>
      </trkpt>
      <trkpt lat="42.13681" lon="9.0789">
        <ele>2049.11</ele>
        <time>2018-08-30T08:11:34Z</time>
      </trkpt>
      <trkpt lat="42.1368" lon="9.07898">
        <ele>2045.88</ele>
        <time>2018-08-30T08:11:46Z</time>
      </trkpt>
      <trkpt lat="42.1368" lon="9.07898">
        <ele>2045.87</ele>
        <time>2018-08-30T08:11:47Z</time>
      </trkpt>
      <trkpt lat="42.13678" lon="9.07903">
        <ele>2044.74</ele>
        <time>2018-08-30T08:11:55Z</time>
      </trkpt>
      <trkpt lat="42.13675" lon="9.07913">
        <ele>2043.77</ele>
        <time>2018-08-30T08:12:08Z</time>
      </trkpt>
      <trkpt lat="42.13674" lon="9.07917">
        <ele>2042.31</ele>
        <time>2018-08-30T08:12:13Z</time>
      </trkpt>
      <trkpt lat="42.13673" lon="9.07927">
        <ele>2042.37</ele>
        <time>2018-08-30T08:12:26Z</time>
      </trkpt>
      <trkpt lat="42.13674" lon="9.07928">
        <ele>2045.15</ele>
        <time>2018-08-30T08:12:28Z</time>
      </trkpt>
      <trkpt lat="42.13676" lon="9.07937">
        <ele>2046.45</ele>
        <time>2018-08-30T08:12:40Z</time>
      </trkpt>
      <trkpt lat="42.13675" lon="9.07939">
        <ele>2046.45</ele>
        <time>2018-08-30T08:12:42Z</time>
      </trkpt>
      <trkpt lat="42.13678" lon="9.07951">
        <ele>2046.45</ele>
        <time>2018-08-30T08:12:55Z</time>
      </trkpt>
      <trkpt lat="42.13678" lon="9.07952">
        <ele>2046.46</ele>
        <time>2018-08-30T08:12:56Z</time>
      </trkpt>
      <trkpt lat="42.13679" lon="9.07965">
        <ele>2044.06</ele>
        <time>2018-08-30T08:13:09Z</time>
      </trkpt>
      <trkpt lat="42.13679" lon="9.07976">
        <ele>2044.1</ele>
        <time>2018-08-30T08:13:22Z</time>
      </trkpt>
      <trkpt lat="42.1368" lon="9.07991">
        <ele>2043.26</ele>
        <time>2018-08-30T08:13:37Z</time>
      </trkpt>
      <trkpt lat="42.1368" lon="9.08001">
        <ele>2042.31</ele>
        <time>2018-08-30T08:13:48Z</time>
      </trkpt>
      <trkpt lat="42.13679" lon="9.08012">
        <ele>2041.24</ele>
        <time>2018-08-30T08:14:01Z</time>
      </trkpt>
      <trkpt lat="42.1368" lon="9.08021">
        <ele>2041.25</ele>
        <time>2018-08-30T08:14:13Z</time>
      </trkpt>
      <trkpt lat="42.1368" lon="9.08028">
        <ele>2039.99</ele>
        <time>2018-08-30T08:14:23Z</time>
      </trkpt>
      <trkpt lat="42.13681" lon="9.08034">
        <ele>2040.01</ele>
        <time>2018-08-30T08:14:32Z</time>
      </trkpt>
      <trkpt lat="42.13684" lon="9.08046">
        <ele>2039.09</ele>
        <time>2018-08-30T08:14:45Z</time>
      </trkpt>
      <trkpt lat="42.1369" lon="9.08054">
        <ele>2039.13</ele>
        <time>2018-08-30T08:14:59Z</time>
      </trkpt>
      <trkpt lat="42.1369" lon="9.08057">
        <ele>2041.43</ele>
        <time>2018-08-30T08:15:03Z</time>
      </trkpt>
      <trkpt lat="42.1369" lon="9.0806">
        <ele>2039.18</ele>
        <time>2018-08-30T08:15:10Z</time>
      </trkpt>
      <trkpt lat="42.13691" lon="9.08069">
        <ele>2039.21</ele>
        <time>2018-08-30T08:15:23Z</time>
      </trkpt>
      <trkpt lat="42.13693" lon="9.08077">
        <ele>2039.25</ele>
        <time>2018-08-30T08:15:35Z</time>
      </trkpt>
      <trkpt lat="42.13696" lon="9.08081">
        <ele>2041.55</ele>
        <time>2018-08-30T08:15:46Z</time>
      </trkpt>
      <trkpt lat="42.13698" lon="9.08086">
        <ele>2041.56</ele>
        <time>2018-08-30T08:16:00Z</time>
      </trkpt>
      <trkpt lat="42.13699" lon="9.08092">
        <ele>2039.05</ele>
        <time>2018-08-30T08:16:11Z</time>
      </trkpt>
      <trkpt lat="42.137" lon="9.081">
        <ele>2038.44</ele>
        <time>2018-08-30T08:16:24Z</time>
      </trkpt>
      <trkpt lat="42.13701" lon="9.08105">
        <ele>2036.62</ele>
        <time>2018-08-30T08:16:38Z</time>
      </trkpt>
      <trkpt lat="42.13699" lon="9.08109">
        <ele>2034.19</ele>
        <time>2018-08-30T08:16:52Z</time>
      </trkpt>
      <trkpt lat="42.13697" lon="9.0811">
        <ele>2031.05</ele>
        <time>2018-08-30T08:17:07Z</time>
      </trkpt>
      <trkpt lat="42.13697" lon="9.08111">
        <ele>2031.05</ele>
        <time>2018-08-30T08:17:08Z</time>
      </trkpt>
      <trkpt lat="42.13697" lon="9.08118">
        <ele>2030.09</ele>
        <time>2018-08-30T08:17:20Z</time>
      </trkpt>
      <trkpt lat="42.13697" lon="9.08121">
        <ele>2028.42</ele>
        <time>2018-08-30T08:17:33Z</time>
      </trkpt>
      <trkpt lat="42.13699" lon="9.08132">
        <ele>2026.27</ele>
        <time>2018-08-30T08:17:47Z</time>
      </trkpt>
      <trkpt lat="42.13699" lon="9.08133">
        <ele>2026.27</ele>
        <time>2018-08-30T08:17:48Z</time>
      </trkpt>
      <trkpt lat="42.137" lon="9.08136">
        <ele>2026.42</ele>
        <time>2018-08-30T08:17:51Z</time>
      </trkpt>
      <trkpt lat="42.13702" lon="9.08147">
        <ele>2023.82</ele>
        <time>2018-08-30T08:18:03Z</time>
      </trkpt>
      <trkpt lat="42.13704" lon="9.08154">
        <ele>2023.66</ele>
        <time>2018-08-30T08:18:14Z</time>
      </trkpt>
      <trkpt lat="42.13702" lon="9.08162">
        <ele>2019.62</ele>
        <time>2018-08-30T08:18:27Z</time>
      </trkpt>
      <trkpt lat="42.13702" lon="9.08163">
        <ele>2019.38</ele>
        <time>2018-08-30T08:18:28Z</time>
      </trkpt>
      <trkpt lat="42.13706" lon="9.08172">
        <ele>2017.74</ele>
        <time>2018-08-30T08:18:37Z</time>
      </trkpt>
      <trkpt lat="42.13705" lon="9.08175">
        <ele>2017.76</ele>
        <time>2018-08-30T08:18:40Z</time>
      </trkpt>
      <trkpt lat="42.13714" lon="9.08195">
        <ele>2016.86</ele>
        <time>2018-08-30T08:18:56Z</time>
      </trkpt>
      <trkpt lat="42.13719" lon="9.08211">
        <ele>2016.82</ele>
        <time>2018-08-30T08:19:11Z</time>
      </trkpt>
      <trkpt lat="42.13725" lon="9.08225">
        <ele>2015.94</ele>
        <time>2018-08-30T08:19:26Z</time>
      </trkpt>
      <trkpt lat="42.13728" lon="9.08238">
        <ele>2014.86</ele>
        <time>2018-08-30T08:19:40Z</time>
      </trkpt>
      <trkpt lat="42.13728" lon="9.08249">
        <ele>2014.81</ele>
        <time>2018-08-30T08:19:52Z</time>
      </trkpt>
      <trkpt lat="42.13726" lon="9.08258">
        <ele>2013.26</ele>
        <time>2018-08-30T08:20:04Z</time>
      </trkpt>
      <trkpt lat="42.13724" lon="9.08265">
        <ele>2012.27</ele>
        <time>2018-08-30T08:20:13Z</time>
      </trkpt>
      <trkpt lat="42.13719" lon="9.08276">
        <ele>2010.58</ele>
        <time>2018-08-30T08:20:28Z</time>
      </trkpt>
      <trkpt lat="42.13717" lon="9.08285">
        <ele>2008.75</ele>
        <time>2018-08-30T08:20:41Z</time>
      </trkpt>
      <trkpt lat="42.13717" lon="9.08301">
        <ele>2005.78</ele>
        <time>2018-08-30T08:20:58Z</time>
      </trkpt>
      <trkpt lat="42.13716" lon="9.08305">
        <ele>2005.73</ele>
        <time>2018-08-30T08:21:03Z</time>
      </trkpt>
      <trkpt lat="42.13716" lon="9.0831">
        <ele>2005.02</ele>
        <time>2018-08-30T08:21:07Z</time>
      </trkpt>
      <trkpt lat="42.13715" lon="9.08326">
        <ele>2003.62</ele>
        <time>2018-08-30T08:21:21Z</time>
      </trkpt>
      <trkpt lat="42.13715" lon="9.08332">
        <ele>2003.72</ele>
        <time>2018-08-30T08:21:27Z</time>
      </trkpt>
      <trkpt lat="42.13716" lon="9.08341">
        <ele>2003.7</ele>
        <time>2018-08-30T08:21:39Z</time>
      </trkpt>
      <trkpt lat="42.13718" lon="9.08351">
        <ele>2006.04</ele>
        <time>2018-08-30T08:21:51Z</time>
      </trkpt>
      <trkpt lat="42.13718" lon="9.08351">
        <ele>2005.99</ele>
        <time>2018-08-30T08:21:52Z</time>
      </trkpt>
      <trkpt lat="42.13718" lon="9.08363">
        <ele>2006.01</ele>
        <time>2018-08-30T08:22:06Z</time>
      </trkpt>
      <trkpt lat="42.13718" lon="9.08368">
        <ele>2005.92</ele>
        <time>2018-08-30T08:22:21Z</time>
      </trkpt>
      <trkpt lat="42.13716" lon="9.0837">
        <ele>2003.59</ele>
        <time>2018-08-30T08:22:30Z</time>
      </trkpt>
      <trkpt lat="42.13712" lon="9.08373">
        <ele>2001.51</ele>
        <time>2018-08-30T08:22:42Z</time>
      </trkpt>
      <trkpt lat="42.1371" lon="9.08378">
        <ele>1999.49</ele>
        <time>2018-08-30T08:22:48Z</time>
      </trkpt>
      <trkpt lat="42.13712" lon="9.08386">
        <ele>1999.68</ele>
        <time>2018-08-30T08:23:01Z</time>
      </trkpt>
      <trkpt lat="42.13714" lon="9.08396">
        <ele>1999.75</ele>
        <time>2018-08-30T08:23:17Z</time>
      </trkpt>
      <trkpt lat="42.13715" lon="9.08398">
        <ele>2002.11</ele>
        <time>2018-08-30T08:23:21Z</time>
      </trkpt>
      <trkpt lat="42.13717" lon="9.08404">
        <ele>2004.88</ele>
        <time>2018-08-30T08:23:37Z</time>
      </trkpt>
      <trkpt lat="42.1372" lon="9.08408">
        <ele>2006.58</ele>
        <time>2018-08-30T08:23:49Z</time>
      </trkpt>
      <trkpt lat="42.13721" lon="9.08413">
        <ele>2007.35</ele>
        <time>2018-08-30T08:24:01Z</time>
      </trkpt>
      <trkpt lat="42.13722" lon="9.08416">
        <ele>2009.3</ele>
        <time>2018-08-30T08:24:13Z</time>
      </trkpt>
      <trkpt lat="42.13725" lon="9.08421">
        <ele>2010.24</ele>
        <time>2018-08-30T08:24:25Z</time>
      </trkpt>
      <trkpt lat="42.13725" lon="9.08423">
        <ele>2007.32</ele>
        <time>2018-08-30T08:24:31Z</time>
      </trkpt>
      <trkpt lat="42.13724" lon="9.08424">
        <ele>2006.65</ele>
        <time>2018-08-30T08:24:41Z</time>
      </trkpt>
      <trkpt lat="42.13722" lon="9.08425">
        <ele>2005.47</ele>
        <time>2018-08-30T08:24:53Z</time>
      </trkpt>
      <trkpt lat="42.13719" lon="9.08427">
        <ele>2003.75</ele>
        <time>2018-08-30T08:25:08Z</time>
      </trkpt>
      <trkpt lat="42.13718" lon="9.08434">
        <ele>2001.04</ele>
        <time>2018-08-30T08:25:22Z</time>
      </trkpt>
      <trkpt lat="42.13719" lon="9.08438">
        <ele>1999.78</ele>
        <time>2018-08-30T08:25:27Z</time>
      </trkpt>
      <trkpt lat="42.13718" lon="9.08446">
        <ele>1998.81</ele>
        <time>2018-08-30T08:25:37Z</time>
      </trkpt>
      <trkpt lat="42.1372" lon="9.08455">
        <ele>1996.15</ele>
        <time>2018-08-30T08:25:51Z</time>
      </trkpt>
      <trkpt lat="42.13721" lon="9.0846">
        <ele>1993.87</ele>
        <time>2018-08-30T08:26:00Z</time>
      </trkpt>
      <trkpt lat="42.13718" lon="9.08463">
        <ele>1991.46</ele>
        <time>2018-08-30T08:26:14Z</time>
      </trkpt>
      <trkpt lat="42.13718" lon="9.08463">
        <ele>1991.47</ele>
        <time>2018-08-30T08:26:15Z</time>
      </trkpt>
      <trkpt lat="42.13716" lon="9.08471">
        <ele>1989.49</ele>
        <time>2018-08-30T08:26:29Z</time>
      </trkpt>
      <trkpt lat="42.13713" lon="9.08478">
        <ele>1988.54</ele>
        <time>2018-08-30T08:26:45Z</time>
      </trkpt>
      <trkpt lat="42.13712" lon="9.08482">
        <ele>1985.37</ele>
        <time>2018-08-30T08:26:56Z</time>
      </trkpt>
      <trkpt lat="42.13712" lon="9.08482">
        <ele>1985.35</ele>
        <time>2018-08-30T08:26:57Z</time>
      </trkpt>
      <trkpt lat="42.13706" lon="9.08481">
        <ele>1983.66</ele>
        <time>2018-08-30T08:27:10Z</time>
      </trkpt>
      <trkpt lat="42.13705" lon="9.08485">
        <ele>1982.29</ele>
        <time>2018-08-30T08:27:19Z</time>
      </trkpt>
      <trkpt lat="42.13702" lon="9.08489">
        <ele>1980.32</ele>
        <time>2018-08-30T08:27:34Z</time>
      </trkpt>
      <trkpt lat="42.13701" lon="9.08495">
        <ele>1977.82</ele>
        <time>2018-08-30T08:27:49Z</time>
      </trkpt>
      <trkpt lat="42.13697" lon="9.08499">
        <ele>1975.16</ele>
        <time>2018-08-30T08:28:03Z</time>
      </trkpt>
      <trkpt lat="42.13694" lon="9.085">
        <ele>1973.82</ele>
        <time>2018-08-30T08:28:12Z</time>
      </trkpt>
      <trkpt lat="42.13691" lon="9.08503">
        <ele>1971.07</ele>
        <time>2018-08-30T08:28:28Z</time>
      </trkpt>
      <trkpt lat="42.13689" lon="9.08508">
        <ele>1969.33</ele>
        <time>2018-08-30T08:28:42Z</time>
      </trkpt>
      <trkpt lat="42.13689" lon="9.08513">
        <ele>1968.18</ele>
        <time>2018-08-30T08:28:50Z</time>
      </trkpt>
      <trkpt lat="42.13686" lon="9.08518">
        <ele>1966.31</ele>
        <time>2018-08-30T08:29:04Z</time>
      </trkpt>
      <trkpt lat="42.1368" lon="9.08515">
        <ele>1964.39</ele>
        <time>2018-08-30T08:29:18Z</time>
      </trkpt>
      <trkpt lat="42.13674" lon="9.08511">
        <ele>1962.41</ele>
        <time>2018-08-30T08:29:32Z</time>
      </trkpt>
      <trkpt lat="42.13674" lon="9.08515">
        <ele>1960.74</ele>
        <time>2018-08-30T08:29:48Z</time>
      </trkpt>
      <trkpt lat="42.13669" lon="9.08513">
        <ele>1959.01</ele>
        <time>2018-08-30T08:30:02Z</time>
      </trkpt>
      <trkpt lat="42.13665" lon="9.08516">
        <ele>1957.01</ele>
        <time>2018-08-30T08:30:16Z</time>
      </trkpt>
      <trkpt lat="42.13665" lon="9.08526">
        <ele>1954.01</ele>
        <time>2018-08-30T08:30:29Z</time>
      </trkpt>
      <trkpt lat="42.1366" lon="9.08527">
        <ele>1952.95</ele>
        <time>2018-08-30T08:30:43Z</time>
      </trkpt>
      <trkpt lat="42.13658" lon="9.0853">
        <ele>1951.16</ele>
        <time>2018-08-30T08:30:55Z</time>
      </trkpt>
      <trkpt lat="42.13653" lon="9.08534">
        <ele>1949.21</ele>
        <time>2018-08-30T08:31:09Z</time>
      </trkpt>
      <trkpt lat="42.13653" lon="9.08538">
        <ele>1947.86</ele>
        <time>2018-08-30T08:31:16Z</time>
      </trkpt>
      <trkpt lat="42.13651" lon="9.08539">
        <ele>1947.89</ele>
        <time>2018-08-30T08:31:32Z</time>
      </trkpt>
      <trkpt lat="42.13648" lon="9.08537">
        <ele>1946.05</ele>
        <time>2018-08-30T08:31:45Z</time>
      </trkpt>
      <trkpt lat="42.13645" lon="9.08534">
        <ele>1945.06</ele>
        <time>2018-08-30T08:31:56Z</time>
      </trkpt>
      <trkpt lat="42.13643" lon="9.08531">
        <ele>1943.75</ele>
        <time>2018-08-30T08:32:01Z</time>
      </trkpt>
      <trkpt lat="42.1364" lon="9.08532">
        <ele>1942.8</ele>
        <time>2018-08-30T08:32:13Z</time>
      </trkpt>
      <trkpt lat="42.13635" lon="9.08534">
        <ele>1939.56</ele>
        <time>2018-08-30T08:32:27Z</time>
      </trkpt>
      <trkpt lat="42.13634" lon="9.08542">
        <ele>1938.72</ele>
        <time>2018-08-30T08:32:48Z</time>
      </trkpt>
      <trkpt lat="42.13632" lon="9.08545">
        <ele>1936.27</ele>
        <time>2018-08-30T08:32:58Z</time>
      </trkpt>
      <trkpt lat="42.13628" lon="9.08544">
        <ele>1935.57</ele>
        <time>2018-08-30T08:33:12Z</time>
      </trkpt>
      <trkpt lat="42.13624" lon="9.08547">
        <ele>1934.41</ele>
        <time>2018-08-30T08:33:25Z</time>
      </trkpt>
      <trkpt lat="42.1362" lon="9.08545">
        <ele>1931.97</ele>
        <time>2018-08-30T08:33:34Z</time>
      </trkpt>
      <trkpt lat="42.13616" lon="9.08539">
        <ele>1931.15</ele>
        <time>2018-08-30T08:33:46Z</time>
      </trkpt>
      <trkpt lat="42.13616" lon="9.08533">
        <ele>1928.96</ele>
        <time>2018-08-30T08:33:57Z</time>
      </trkpt>
      <trkpt lat="42.13614" lon="9.08521">
        <ele>1928.19</ele>
        <time>2018-08-30T08:34:11Z</time>
      </trkpt>
      <trkpt lat="42.13612" lon="9.08516">
        <ele>1926.4</ele>
        <time>2018-08-30T08:34:23Z</time>
      </trkpt>
      <trkpt lat="42.1361" lon="9.08507">
        <ele>1925.57</ele>
        <time>2018-08-30T08:34:37Z</time>
      </trkpt>
      <trkpt lat="42.13609" lon="9.085">
        <ele>1924.2</ele>
        <time>2018-08-30T08:34:47Z</time>
      </trkpt>
      <trkpt lat="42.13606" lon="9.08493">
        <ele>1923.33</ele>
        <time>2018-08-30T08:34:59Z</time>
      </trkpt>
      <trkpt lat="42.13603" lon="9.08487">
        <ele>1922.36</ele>
        <time>2018-08-30T08:35:11Z</time>
      </trkpt>
      <trkpt lat="42.13601" lon="9.08479">
        <ele>1921.55</ele>
        <time>2018-08-30T08:35:25Z</time>
      </trkpt>
      <trkpt lat="42.13599" lon="9.08472">
        <ele>1921.55</ele>
        <time>2018-08-30T08:35:37Z</time>
      </trkpt>
      <trkpt lat="42.13596" lon="9.08464">
        <ele>1920.19</ele>
        <time>2018-08-30T08:35:50Z</time>
      </trkpt>
      <trkpt lat="42.13594" lon="9.08458">
        <ele>1920.13</ele>
        <time>2018-08-30T08:36:02Z</time>
      </trkpt>
      <trkpt lat="42.1359" lon="9.08452">
        <ele>1918.35</ele>
        <time>2018-08-30T08:36:15Z</time>
      </trkpt>
      <trkpt lat="42.13589" lon="9.08452">
        <ele>1918.41</ele>
        <time>2018-08-30T08:36:17Z</time>
      </trkpt>
      <trkpt lat="42.13583" lon="9.08448">
        <ele>1916.56</ele>
        <time>2018-08-30T08:36:31Z</time>
      </trkpt>
      <trkpt lat="42.13579" lon="9.08441">
        <ele>1914.5</ele>
        <time>2018-08-30T08:36:42Z</time>
      </trkpt>
      <trkpt lat="42.13575" lon="9.08433">
        <ele>1913.37</ele>
        <time>2018-08-30T08:36:57Z</time>
      </trkpt>
      <trkpt lat="42.13573" lon="9.0843">
        <ele>1913.45</ele>
        <time>2018-08-30T08:37:11Z</time>
      </trkpt>
      <trkpt lat="42.13572" lon="9.08432">
        <ele>1912.58</ele>
        <time>2018-08-30T08:37:36Z</time>
      </trkpt>
      <trkpt lat="42.13566" lon="9.0843">
        <ele>1909.09</ele>
        <time>2018-08-30T08:37:51Z</time>
      </trkpt>
      <trkpt lat="42.13562" lon="9.08432">
        <ele>1906.34</ele>
        <time>2018-08-30T08:38:05Z</time>
      </trkpt>
      <trkpt lat="42.1356" lon="9.08434">
        <ele>1904.74</ele>
        <time>2018-08-30T08:38:11Z</time>
      </trkpt>
      <trkpt lat="42.13553" lon="9.08434">
        <ele>1902.95</ele>
        <time>2018-08-30T08:38:31Z</time>
      </trkpt>
      <trkpt lat="42.13552" lon="9.08433">
        <ele>1901.24</ele>
        <time>2018-08-30T08:38:33Z</time>
      </trkpt>
      <trkpt lat="42.13551" lon="9.08435">
        <ele>1900.25</ele>
        <time>2018-08-30T08:38:45Z</time>
      </trkpt>
      <trkpt lat="42.1355" lon="9.08437">
        <ele>1900.21</ele>
        <time>2018-08-30T08:38:48Z</time>
      </trkpt>
      <trkpt lat="42.13547" lon="9.08439">
        <ele>1898.17</ele>
        <time>2018-08-30T08:39:00Z</time>
      </trkpt>
      <trkpt lat="42.13546" lon="9.08437">
        <ele>1898.21</ele>
        <time>2018-08-30T08:39:04Z</time>
      </trkpt>
      <trkpt lat="42.13541" lon="9.08429">
        <ele>1897.41</ele>
        <time>2018-08-30T08:39:20Z</time>
      </trkpt>
      <trkpt lat="42.1354" lon="9.08425">
        <ele>1895.1</ele>
        <time>2018-08-30T08:39:30Z</time>
      </trkpt>
      <trkpt lat="42.13538" lon="9.08422">
        <ele>1894.17</ele>
        <time>2018-08-30T08:39:45Z</time>
      </trkpt>
      <trkpt lat="42.13536" lon="9.08417">
        <ele>1893.11</ele>
        <time>2018-08-30T08:39:57Z</time>
      </trkpt>
      <trkpt lat="42.13533" lon="9.08419">
        <ele>1891.31</ele>
        <time>2018-08-30T08:40:12Z</time>
      </trkpt>
      <trkpt lat="42.1353" lon="9.08422">
        <ele>1888.6</ele>
        <time>2018-08-30T08:40:27Z</time>
      </trkpt>
      <trkpt lat="42.13527" lon="9.08421">
        <ele>1887.85</ele>
        <time>2018-08-30T08:40:39Z</time>
      </trkpt>
      <trkpt lat="42.13525" lon="9.0842">
        <ele>1886.15</ele>
        <time>2018-08-30T08:40:55Z</time>
      </trkpt>
      <trkpt lat="42.13521" lon="9.08414">
        <ele>1884.08</ele>
        <time>2018-08-30T08:41:08Z</time>
      </trkpt>
      <trkpt lat="42.13517" lon="9.08414">
        <ele>1881.99</ele>
        <time>2018-08-30T08:41:22Z</time>
      </trkpt>
      <trkpt lat="42.13515" lon="9.08412">
        <ele>1880.7</ele>
        <time>2018-08-30T08:41:28Z</time>
      </trkpt>
      <trkpt lat="42.1351" lon="9.08414">
        <ele>1878.75</ele>
        <time>2018-08-30T08:41:39Z</time>
      </trkpt>
      <trkpt lat="42.13506" lon="9.08419">
        <ele>1878.01</ele>
        <time>2018-08-30T08:41:51Z</time>
      </trkpt>
      <trkpt lat="42.13506" lon="9.08428">
        <ele>1877.14</ele>
        <time>2018-08-30T08:42:05Z</time>
      </trkpt>
      <trkpt lat="42.13503" lon="9.08436">
        <ele>1875.46</ele>
        <time>2018-08-30T08:42:19Z</time>
      </trkpt>
      <trkpt lat="42.13501" lon="9.08441">
        <ele>1873.22</ele>
        <time>2018-08-30T08:42:30Z</time>
      </trkpt>
      <trkpt lat="42.13498" lon="9.08447">
        <ele>1870.51</ele>
        <time>2018-08-30T08:42:43Z</time>
      </trkpt>
      <trkpt lat="42.13496" lon="9.08453">
        <ele>1869.44</ele>
        <time>2018-08-30T08:42:55Z</time>
      </trkpt>
      <trkpt lat="42.13498" lon="9.08462">
        <ele>1866.88</ele>
        <time>2018-08-30T08:43:09Z</time>
      </trkpt>
      <trkpt lat="42.13496" lon="9.08466">
        <ele>1864.8</ele>
        <time>2018-08-30T08:43:18Z</time>
      </trkpt>
      <trkpt lat="42.13491" lon="9.08468">
        <ele>1864</ele>
        <time>2018-08-30T08:43:29Z</time>
      </trkpt>
      <trkpt lat="42.13487" lon="9.08468">
        <ele>1861.95</ele>
        <time>2018-08-30T08:43:43Z</time>
      </trkpt>
      <trkpt lat="42.13482" lon="9.08465">
        <ele>1859.67</ele>
        <time>2018-08-30T08:43:56Z</time>
      </trkpt>
      <trkpt lat="42.13481" lon="9.0846">
        <ele>1858.06</ele>
        <time>2018-08-30T08:44:09Z</time>
      </trkpt>
      <trkpt lat="42.13479" lon="9.0846">
        <ele>1856.96</ele>
        <time>2018-08-30T08:44:27Z</time>
      </trkpt>
      <trkpt lat="42.13477" lon="9.0846">
        <ele>1855.74</ele>
        <time>2018-08-30T08:44:37Z</time>
      </trkpt>
      <trkpt lat="42.13474" lon="9.0846">
        <ele>1853.98</ele>
        <time>2018-08-30T08:44:55Z</time>
      </trkpt>
      <trkpt lat="42.1347" lon="9.08463">
        <ele>1851.59</ele>
        <time>2018-08-30T08:45:05Z</time>
      </trkpt>
      <trkpt lat="42.1347" lon="9.08459">
        <ele>1851.63</ele>
        <time>2018-08-30T08:45:18Z</time>
      </trkpt>
      <trkpt lat="42.13467" lon="9.08456">
        <ele>1850.69</ele>
        <time>2018-08-30T08:45:32Z</time>
      </trkpt>
      <trkpt lat="42.13464" lon="9.08455">
        <ele>1849.92</ele>
        <time>2018-08-30T08:45:48Z</time>
      </trkpt>
      <trkpt lat="42.13463" lon="9.08452">
        <ele>1848.16</ele>
        <time>2018-08-30T08:46:02Z</time>
      </trkpt>
      <trkpt lat="42.13461" lon="9.08448">
        <ele>1846.02</ele>
        <time>2018-08-30T08:46:09Z</time>
      </trkpt>
      <trkpt lat="42.1346" lon="9.08437">
        <ele>1846.01</ele>
        <time>2018-08-30T08:46:23Z</time>
      </trkpt>
      <trkpt lat="42.13454" lon="9.08429">
        <ele>1844.41</ele>
        <time>2018-08-30T08:46:37Z</time>
      </trkpt>
      <trkpt lat="42.13452" lon="9.08433">
        <ele>1843.08</ele>
        <time>2018-08-30T08:46:47Z</time>
      </trkpt>
      <trkpt lat="42.13449" lon="9.08441">
        <ele>1842.3</ele>
        <time>2018-08-30T08:47:00Z</time>
      </trkpt>
      <trkpt lat="42.13447" lon="9.08442">
        <ele>1840.33</ele>
        <time>2018-08-30T08:47:05Z</time>
      </trkpt>
      <trkpt lat="42.13443" lon="9.08445">
        <ele>1839.44</ele>
        <time>2018-08-30T08:47:19Z</time>
      </trkpt>
      <trkpt lat="42.1344" lon="9.08453">
        <ele>1838.39</ele>
        <time>2018-08-30T08:47:33Z</time>
      </trkpt>
      <trkpt lat="42.13436" lon="9.08456">
        <ele>1836.29</ele>
        <time>2018-08-30T08:47:44Z</time>
      </trkpt>
      <trkpt lat="42.13432" lon="9.08458">
        <ele>1834.49</ele>
        <time>2018-08-30T08:47:57Z</time>
      </trkpt>
      <trkpt lat="42.13426" lon="9.08461">
        <ele>1831.95</ele>
        <time>2018-08-30T08:48:11Z</time>
      </trkpt>
      <trkpt lat="42.13425" lon="9.08468">
        <ele>1831.11</ele>
        <time>2018-08-30T08:48:24Z</time>
      </trkpt>
      <trkpt lat="42.13424" lon="9.08469">
        <ele>1829.81</ele>
        <time>2018-08-30T08:48:27Z</time>
      </trkpt>
      <trkpt lat="42.13421" lon="9.08477">
        <ele>1827.24</ele>
        <time>2018-08-30T08:48:42Z</time>
      </trkpt>
      <trkpt lat="42.13419" lon="9.08478">
        <ele>1826.5</ele>
        <time>2018-08-30T08:49:03Z</time>
      </trkpt>
      <trkpt lat="42.13418" lon="9.08484">
        <ele>1824.56</ele>
        <time>2018-08-30T08:49:17Z</time>
      </trkpt>
      <trkpt lat="42.13415" lon="9.08485">
        <ele>1823.65</ele>
        <time>2018-08-30T08:49:29Z</time>
      </trkpt>
      <trkpt lat="42.13412" lon="9.08487">
        <ele>1821.02</ele>
        <time>2018-08-30T08:49:42Z</time>
      </trkpt>
      <trkpt lat="42.13408" lon="9.08486">
        <ele>1819.08</ele>
        <time>2018-08-30T08:49:53Z</time>
      </trkpt>
      <trkpt lat="42.13404" lon="9.08491">
        <ele>1818.06</ele>
        <time>2018-08-30T08:50:06Z</time>
      </trkpt>
      <trkpt lat="42.13399" lon="9.08504">
        <ele>1814.34</ele>
        <time>2018-08-30T08:50:22Z</time>
      </trkpt>
      <trkpt lat="42.13399" lon="9.08514">
        <ele>1812.47</ele>
        <time>2018-08-30T08:50:36Z</time>
      </trkpt>
      <trkpt lat="42.13394" lon="9.08517">
        <ele>1809.39</ele>
        <time>2018-08-30T08:50:48Z</time>
      </trkpt>
      <trkpt lat="42.13395" lon="9.08519">
        <ele>1809.4</ele>
        <time>2018-08-30T08:50:49Z</time>
      </trkpt>
      <trkpt lat="42.13394" lon="9.08528">
        <ele>1809.39</ele>
        <time>2018-08-30T08:51:00Z</time>
      </trkpt>
      <trkpt lat="42.13395" lon="9.08537">
        <ele>1808.43</ele>
        <time>2018-08-30T08:51:13Z</time>
      </trkpt>
      <trkpt lat="42.13394" lon="9.0854">
        <ele>1807.15</ele>
        <time>2018-08-30T08:51:18Z</time>
      </trkpt>
      <trkpt lat="42.13391" lon="9.08547">
        <ele>1805.24</ele>
        <time>2018-08-30T08:51:33Z</time>
      </trkpt>
      <trkpt lat="42.13389" lon="9.08547">
        <ele>1803.52</ele>
        <time>2018-08-30T08:51:49Z</time>
      </trkpt>
      <trkpt lat="42.13387" lon="9.0855">
        <ele>1801.81</ele>
        <time>2018-08-30T08:52:03Z</time>
      </trkpt>
      <trkpt lat="42.13386" lon="9.08552">
        <ele>1800.24</ele>
        <time>2018-08-30T08:52:10Z</time>
      </trkpt>
      <trkpt lat="42.13386" lon="9.08556">
        <ele>1799.11</ele>
        <time>2018-08-30T08:52:25Z</time>
      </trkpt>
      <trkpt lat="42.1338" lon="9.08555">
        <ele>1797.17</ele>
        <time>2018-08-30T08:52:41Z</time>
      </trkpt>
      <trkpt lat="42.13376" lon="9.08551">
        <ele>1795.21</ele>
        <time>2018-08-30T08:52:55Z</time>
      </trkpt>
      <trkpt lat="42.13373" lon="9.08549">
        <ele>1793.65</ele>
        <time>2018-08-30T08:53:07Z</time>
      </trkpt>
      <trkpt lat="42.13371" lon="9.08548">
        <ele>1791.32</ele>
        <time>2018-08-30T08:53:17Z</time>
      </trkpt>
      <trkpt lat="42.13365" lon="9.08546">
        <ele>1790.5</ele>
        <time>2018-08-30T08:53:31Z</time>
      </trkpt>
      <trkpt lat="42.13363" lon="9.08544">
        <ele>1789.62</ele>
        <time>2018-08-30T08:53:45Z</time>
      </trkpt>
      <trkpt lat="42.13357" lon="9.08541">
        <ele>1788.72</ele>
        <time>2018-08-30T08:54:05Z</time>
      </trkpt>
      <trkpt lat="42.13355" lon="9.08536">
        <ele>1786.71</ele>
        <time>2018-08-30T08:54:18Z</time>
      </trkpt>
      <trkpt lat="42.13355" lon="9.08532">
        <ele>1785.91</ele>
        <time>2018-08-30T08:54:36Z</time>
      </trkpt>
      <trkpt lat="42.13353" lon="9.08529">
        <ele>1783.71</ele>
        <time>2018-08-30T08:54:49Z</time>
      </trkpt>
      <trkpt lat="42.1335" lon="9.08532">
        <ele>1782.18</ele>
        <time>2018-08-30T08:55:01Z</time>
      </trkpt>
      <trkpt lat="42.13346" lon="9.08532">
        <ele>1780.3</ele>
        <time>2018-08-30T08:55:13Z</time>
      </trkpt>
      <trkpt lat="42.13346" lon="9.08531">
        <ele>1780.3</ele>
        <time>2018-08-30T08:55:16Z</time>
      </trkpt>
      <trkpt lat="42.13347" lon="9.08519">
        <ele>1778.32</ele>
        <time>2018-08-30T08:55:31Z</time>
      </trkpt>
      <trkpt lat="42.13343" lon="9.0851">
        <ele>1776.49</ele>
        <time>2018-08-30T08:55:44Z</time>
      </trkpt>
      <trkpt lat="42.13337" lon="9.08503">
        <ele>1776.59</ele>
        <time>2018-08-30T08:55:57Z</time>
      </trkpt>
      <trkpt lat="42.13335" lon="9.08499">
        <ele>1776.63</ele>
        <time>2018-08-30T08:56:09Z</time>
      </trkpt>
      <trkpt lat="42.13333" lon="9.08495">
        <ele>1775.7</ele>
        <time>2018-08-30T08:56:21Z</time>
      </trkpt>
      <trkpt lat="42.13328" lon="9.08491">
        <ele>1773.76</ele>
        <time>2018-08-30T08:56:33Z</time>
      </trkpt>
      <trkpt lat="42.13325" lon="9.08485">
        <ele>1770.05</ele>
        <time>2018-08-30T08:56:45Z</time>
      </trkpt>
      <trkpt lat="42.13323" lon="9.08476">
        <ele>1769.28</ele>
        <time>2018-08-30T08:56:58Z</time>
      </trkpt>
      <trkpt lat="42.13323" lon="9.08475">
        <ele>1768.19</ele>
        <time>2018-08-30T08:57:12Z</time>
      </trkpt>
      <trkpt lat="42.13324" lon="9.08476">
        <ele>1768.18</ele>
        <time>2018-08-30T08:57:38Z</time>
      </trkpt>
      <trkpt lat="42.13324" lon="9.08476">
        <ele>1768.18</ele>
        <time>2018-08-30T08:57:54Z</time>
      </trkpt>
      <trkpt lat="42.13323" lon="9.08475">
        <ele>1768.18</ele>
        <time>2018-08-30T08:58:09Z</time>
      </trkpt>
      <trkpt lat="42.13324" lon="9.08472">
        <ele>1768.21</ele>
        <time>2018-08-30T08:58:27Z</time>
      </trkpt>
      <trkpt lat="42.13325" lon="9.08462">
        <ele>1767.4</ele>
        <time>2018-08-30T08:58:41Z</time>
      </trkpt>
      <trkpt lat="42.13324" lon="9.08458">
        <ele>1766.32</ele>
        <time>2018-08-30T08:58:54Z</time>
      </trkpt>
      <trkpt lat="42.13322" lon="9.08453">
        <ele>1764.24</ele>
        <time>2018-08-30T08:59:08Z</time>
      </trkpt>
      <trkpt lat="42.13318" lon="9.08454">
        <ele>1762.47</ele>
        <time>2018-08-30T08:59:21Z</time>
      </trkpt>
      <trkpt lat="42.13314" lon="9.08452">
        <ele>1759.32</ele>
        <time>2018-08-30T08:59:32Z</time>
      </trkpt>
      <trkpt lat="42.13314" lon="9.08452">
        <ele>1759.33</ele>
        <time>2018-08-30T08:59:33Z</time>
      </trkpt>
      <trkpt lat="42.13311" lon="9.08456">
        <ele>1758.44</ele>
        <time>2018-08-30T08:59:45Z</time>
      </trkpt>
      <trkpt lat="42.13306" lon="9.0846">
        <ele>1756.9</ele>
        <time>2018-08-30T08:59:57Z</time>
      </trkpt>
      <trkpt lat="42.13303" lon="9.0846">
        <ele>1754.79</ele>
        <time>2018-08-30T09:00:01Z</time>
      </trkpt>
      <trkpt lat="42.13298" lon="9.08467">
        <ele>1754.02</ele>
        <time>2018-08-30T09:00:16Z</time>
      </trkpt>
      <trkpt lat="42.13295" lon="9.0847">
        <ele>1751.96</ele>
        <time>2018-08-30T09:00:28Z</time>
      </trkpt>
      <trkpt lat="42.13292" lon="9.08476">
        <ele>1749.94</ele>
        <time>2018-08-30T09:00:41Z</time>
      </trkpt>
      <trkpt lat="42.13288" lon="9.08477">
        <ele>1749.11</ele>
        <time>2018-08-30T09:00:56Z</time>
      </trkpt>
      <trkpt lat="42.13286" lon="9.08484">
        <ele>1747.51</ele>
        <time>2018-08-30T09:01:10Z</time>
      </trkpt>
      <trkpt lat="42.13287" lon="9.08487">
        <ele>1746.67</ele>
        <time>2018-08-30T09:01:29Z</time>
      </trkpt>
      <trkpt lat="42.13287" lon="9.08486">
        <ele>1746.68</ele>
        <time>2018-08-30T09:01:50Z</time>
      </trkpt>
      <trkpt lat="42.13287" lon="9.08486">
        <ele>1746.69</ele>
        <time>2018-08-30T09:02:07Z</time>
      </trkpt>
      <trkpt lat="42.13288" lon="9.08486">
        <ele>1746.7</ele>
        <time>2018-08-30T09:02:44Z</time>
      </trkpt>
      <trkpt lat="42.13288" lon="9.08486">
        <ele>1746.71</ele>
        <time>2018-08-30T09:03:21Z</time>
      </trkpt>
      <trkpt lat="42.13287" lon="9.08487">
        <ele>1746.72</ele>
        <time>2018-08-30T09:03:48Z</time>
      </trkpt>
      <trkpt lat="42.13286" lon="9.08488">
        <ele>1745.86</ele>
        <time>2018-08-30T09:04:12Z</time>
      </trkpt>
      <trkpt lat="42.13285" lon="9.0849">
        <ele>1745.8</ele>
        <time>2018-08-30T09:04:45Z</time>
      </trkpt>
      <trkpt lat="42.13284" lon="9.0849">
        <ele>1744.06</ele>
        <time>2018-08-30T09:04:48Z</time>
      </trkpt>
      <trkpt lat="42.13277" lon="9.08489">
        <ele>1744.1</ele>
        <time>2018-08-30T09:05:00Z</time>
      </trkpt>
      <trkpt lat="42.13272" lon="9.08492">
        <ele>1743.18</ele>
        <time>2018-08-30T09:05:12Z</time>
      </trkpt>
      <trkpt lat="42.13269" lon="9.08494">
        <ele>1742.31</ele>
        <time>2018-08-30T09:05:24Z</time>
      </trkpt>
      <trkpt lat="42.13267" lon="9.08502">
        <ele>1741.5</ele>
        <time>2018-08-30T09:05:35Z</time>
      </trkpt>
      <trkpt lat="42.13264" lon="9.08507">
        <ele>1739.82</ele>
        <time>2018-08-30T09:05:48Z</time>
      </trkpt>
      <trkpt lat="42.13261" lon="9.08512">
        <ele>1737.84</ele>
        <time>2018-08-30T09:06:01Z</time>
      </trkpt>
      <trkpt lat="42.13255" lon="9.08513">
        <ele>1736.88</ele>
        <time>2018-08-30T09:06:15Z</time>
      </trkpt>
      <trkpt lat="42.13246" lon="9.08511">
        <ele>1735.16</ele>
        <time>2018-08-30T09:06:30Z</time>
      </trkpt>
      <trkpt lat="42.13244" lon="9.0851">
        <ele>1735.11</ele>
        <time>2018-08-30T09:06:33Z</time>
      </trkpt>
      <trkpt lat="42.13238" lon="9.08507">
        <ele>1735.1</ele>
        <time>2018-08-30T09:06:47Z</time>
      </trkpt>
      <trkpt lat="42.13237" lon="9.08509">
        <ele>1733.87</ele>
        <time>2018-08-30T09:06:50Z</time>
      </trkpt>
      <trkpt lat="42.13232" lon="9.08508">
        <ele>1732.63</ele>
        <time>2018-08-30T09:07:00Z</time>
      </trkpt>
      <trkpt lat="42.13225" lon="9.08504">
        <ele>1729.78</ele>
        <time>2018-08-30T09:07:13Z</time>
      </trkpt>
      <trkpt lat="42.13219" lon="9.08498">
        <ele>1728.57</ele>
        <time>2018-08-30T09:07:24Z</time>
      </trkpt>
      <trkpt lat="42.13213" lon="9.08491">
        <ele>1728.53</ele>
        <time>2018-08-30T09:07:38Z</time>
      </trkpt>
      <trkpt lat="42.13209" lon="9.08486">
        <ele>1727.67</ele>
        <time>2018-08-30T09:07:49Z</time>
      </trkpt>
      <trkpt lat="42.13206" lon="9.08477">
        <ele>1725.06</ele>
        <time>2018-08-30T09:08:02Z</time>
      </trkpt>
      <trkpt lat="42.13201" lon="9.08486">
        <ele>1724.14</ele>
        <time>2018-08-30T09:08:16Z</time>
      </trkpt>
      <trkpt lat="42.13198" lon="9.08487">
        <ele>1721.43</ele>
        <time>2018-08-30T09:08:25Z</time>
      </trkpt>
      <trkpt lat="42.13193" lon="9.08485">
        <ele>1721.34</ele>
        <time>2018-08-30T09:08:35Z</time>
      </trkpt>
      <trkpt lat="42.13186" lon="9.08475">
        <ele>1720.54</ele>
        <time>2018-08-30T09:08:49Z</time>
      </trkpt>
      <trkpt lat="42.13185" lon="9.08467">
        <ele>1718.32</ele>
        <time>2018-08-30T09:09:01Z</time>
      </trkpt>
      <trkpt lat="42.13181" lon="9.08468">
        <ele>1716.55</ele>
        <time>2018-08-30T09:09:14Z</time>
      </trkpt>
      <trkpt lat="42.13176" lon="9.08467">
        <ele>1715.72</ele>
        <time>2018-08-30T09:09:26Z</time>
      </trkpt>
      <trkpt lat="42.13172" lon="9.08467">
        <ele>1713.98</ele>
        <time>2018-08-30T09:09:40Z</time>
      </trkpt>
      <trkpt lat="42.1317" lon="9.08468">
        <ele>1713.97</ele>
        <time>2018-08-30T09:09:43Z</time>
      </trkpt>
      <trkpt lat="42.13164" lon="9.08468">
        <ele>1711.79</ele>
        <time>2018-08-30T09:09:57Z</time>
      </trkpt>
      <trkpt lat="42.1316" lon="9.08469">
        <ele>1709.22</ele>
        <time>2018-08-30T09:10:07Z</time>
      </trkpt>
      <trkpt lat="42.13158" lon="9.08466">
        <ele>1708.21</ele>
        <time>2018-08-30T09:10:18Z</time>
      </trkpt>
      <trkpt lat="42.13157" lon="9.08463">
        <ele>1706.06</ele>
        <time>2018-08-30T09:10:31Z</time>
      </trkpt>
      <trkpt lat="42.13155" lon="9.08461">
        <ele>1705.24</ele>
        <time>2018-08-30T09:10:45Z</time>
      </trkpt>
      <trkpt lat="42.1315" lon="9.08468">
        <ele>1704.28</ele>
        <time>2018-08-30T09:10:59Z</time>
      </trkpt>
      <trkpt lat="42.13147" lon="9.08474">
        <ele>1703.29</ele>
        <time>2018-08-30T09:11:14Z</time>
      </trkpt>
      <trkpt lat="42.13144" lon="9.08478">
        <ele>1700.21</ele>
        <time>2018-08-30T09:11:23Z</time>
      </trkpt>
      <trkpt lat="42.13143" lon="9.08478">
        <ele>1700.22</ele>
        <time>2018-08-30T09:11:24Z</time>
      </trkpt>
      <trkpt lat="42.13141" lon="9.0848">
        <ele>1699.53</ele>
        <time>2018-08-30T09:11:42Z</time>
      </trkpt>
      <trkpt lat="42.13138" lon="9.08487">
        <ele>1699.49</ele>
        <time>2018-08-30T09:11:54Z</time>
      </trkpt>
      <trkpt lat="42.1314" lon="9.08489">
        <ele>1698.4</ele>
        <time>2018-08-30T09:12:11Z</time>
      </trkpt>
      <trkpt lat="42.13141" lon="9.08492">
        <ele>1697.27</ele>
        <time>2018-08-30T09:12:26Z</time>
      </trkpt>
      <trkpt lat="42.1314" lon="9.08494">
        <ele>1695.79</ele>
        <time>2018-08-30T09:12:32Z</time>
      </trkpt>
      <trkpt lat="42.13141" lon="9.08497">
        <ele>1694.83</ele>
        <time>2018-08-30T09:12:43Z</time>
      </trkpt>
      <trkpt lat="42.13142" lon="9.08502">
        <ele>1693.1</ele>
        <time>2018-08-30T09:12:56Z</time>
      </trkpt>
      <trkpt lat="42.13142" lon="9.08503">
        <ele>1691.82</ele>
        <time>2018-08-30T09:13:02Z</time>
      </trkpt>
      <trkpt lat="42.1314" lon="9.08508">
        <ele>1690.69</ele>
        <time>2018-08-30T09:13:15Z</time>
      </trkpt>
      <trkpt lat="42.13139" lon="9.08511">
        <ele>1690.72</ele>
        <time>2018-08-30T09:13:20Z</time>
      </trkpt>
      <trkpt lat="42.1314" lon="9.08522">
        <ele>1689.53</ele>
        <time>2018-08-30T09:13:33Z</time>
      </trkpt>
      <trkpt lat="42.1314" lon="9.08526">
        <ele>1689.52</ele>
        <time>2018-08-30T09:13:46Z</time>
      </trkpt>
      <trkpt lat="42.13139" lon="9.08527">
        <ele>1688.23</ele>
        <time>2018-08-30T09:13:48Z</time>
      </trkpt>
      <trkpt lat="42.13136" lon="9.08532">
        <ele>1686.86</ele>
        <time>2018-08-30T09:13:55Z</time>
      </trkpt>
      <trkpt lat="42.13137" lon="9.0854">
        <ele>1684.8</ele>
        <time>2018-08-30T09:14:07Z</time>
      </trkpt>
      <trkpt lat="42.13138" lon="9.08548">
        <ele>1683.69</ele>
        <time>2018-08-30T09:14:20Z</time>
      </trkpt>
      <trkpt lat="42.1314" lon="9.08553">
        <ele>1682.03</ele>
        <time>2018-08-30T09:14:32Z</time>
      </trkpt>
      <trkpt lat="42.13144" lon="9.08553">
        <ele>1680.03</ele>
        <time>2018-08-30T09:14:47Z</time>
      </trkpt>
      <trkpt lat="42.13152" lon="9.08558">
        <ele>1680</ele>
        <time>2018-08-30T09:15:01Z</time>
      </trkpt>
      <trkpt lat="42.13153" lon="9.08565">
        <ele>1677.55</ele>
        <time>2018-08-30T09:15:13Z</time>
      </trkpt>
      <trkpt lat="42.13154" lon="9.08569">
        <ele>1676.81</ele>
        <time>2018-08-30T09:15:31Z</time>
      </trkpt>
      <trkpt lat="42.13156" lon="9.08573">
        <ele>1675.97</ele>
        <time>2018-08-30T09:15:45Z</time>
      </trkpt>
      <trkpt lat="42.13157" lon="9.08574">
        <ele>1675.92</ele>
        <time>2018-08-30T09:16:17Z</time>
      </trkpt>
      <trkpt lat="42.13156" lon="9.08575">
        <ele>1675.05</ele>
        <time>2018-08-30T09:16:43Z</time>
      </trkpt>
      <trkpt lat="42.13155" lon="9.0858">
        <ele>1673.12</ele>
        <time>2018-08-30T09:16:57Z</time>
      </trkpt>
      <trkpt lat="42.13156" lon="9.08587">
        <ele>1672.35</ele>
        <time>2018-08-30T09:17:08Z</time>
      </trkpt>
      <trkpt lat="42.13155" lon="9.08589">
        <ele>1669.59</ele>
        <time>2018-08-30T09:17:13Z</time>
      </trkpt>
      <trkpt lat="42.13157" lon="9.08596">
        <ele>1668.67</ele>
        <time>2018-08-30T09:17:25Z</time>
      </trkpt>
      <trkpt lat="42.13155" lon="9.08603">
        <ele>1665.98</ele>
        <time>2018-08-30T09:17:41Z</time>
      </trkpt>
      <trkpt lat="42.13153" lon="9.08609">
        <ele>1664.22</ele>
        <time>2018-08-30T09:17:56Z</time>
      </trkpt>
      <trkpt lat="42.1315" lon="9.08608">
        <ele>1662.27</ele>
        <time>2018-08-30T09:18:08Z</time>
      </trkpt>
      <trkpt lat="42.13145" lon="9.08607">
        <ele>1660.9</ele>
        <time>2018-08-30T09:18:20Z</time>
      </trkpt>
      <trkpt lat="42.13139" lon="9.08607">
        <ele>1658.76</ele>
        <time>2018-08-30T09:18:33Z</time>
      </trkpt>
      <trkpt lat="42.13133" lon="9.08606">
        <ele>1658.01</ele>
        <time>2018-08-30T09:18:45Z</time>
      </trkpt>
      <trkpt lat="42.13128" lon="9.08606">
        <ele>1655.87</ele>
        <time>2018-08-30T09:18:57Z</time>
      </trkpt>
      <trkpt lat="42.13122" lon="9.08606">
        <ele>1653.99</ele>
        <time>2018-08-30T09:19:10Z</time>
      </trkpt>
      <trkpt lat="42.13115" lon="9.08607">
        <ele>1652.92</ele>
        <time>2018-08-30T09:19:22Z</time>
      </trkpt>
      <trkpt lat="42.13106" lon="9.08606">
        <ele>1650.91</ele>
        <time>2018-08-30T09:19:36Z</time>
      </trkpt>
      <trkpt lat="42.13099" lon="9.08597">
        <ele>1648.24</ele>
        <time>2018-08-30T09:19:52Z</time>
      </trkpt>
      <trkpt lat="42.13098" lon="9.08593">
        <ele>1646.39</ele>
        <time>2018-08-30T09:19:57Z</time>
      </trkpt>
      <trkpt lat="42.13092" lon="9.08585">
        <ele>1645.32</ele>
        <time>2018-08-30T09:20:10Z</time>
      </trkpt>
      <trkpt lat="42.13086" lon="9.08582">
        <ele>1643.38</ele>
        <time>2018-08-30T09:20:22Z</time>
      </trkpt>
      <trkpt lat="42.13081" lon="9.08581">
        <ele>1641.75</ele>
        <time>2018-08-30T09:20:33Z</time>
      </trkpt>
      <trkpt lat="42.13071" lon="9.08588">
        <ele>1641.73</ele>
        <time>2018-08-30T09:20:48Z</time>
      </trkpt>
      <trkpt lat="42.13061" lon="9.08587">
        <ele>1638.85</ele>
        <time>2018-08-30T09:21:02Z</time>
      </trkpt>
      <trkpt lat="42.13055" lon="9.08586">
        <ele>1636.94</ele>
        <time>2018-08-30T09:21:11Z</time>
      </trkpt>
      <trkpt lat="42.13053" lon="9.08584">
        <ele>1636.12</ele>
        <time>2018-08-30T09:21:13Z</time>
      </trkpt>
      <trkpt lat="42.13048" lon="9.08586">
        <ele>1635.15</ele>
        <time>2018-08-30T09:21:27Z</time>
      </trkpt>
      <trkpt lat="42.1304" lon="9.08588">
        <ele>1633.34</ele>
        <time>2018-08-30T09:21:46Z</time>
      </trkpt>
      <trkpt lat="42.13031" lon="9.08587">
        <ele>1632.51</ele>
        <time>2018-08-30T09:22:00Z</time>
      </trkpt>
      <trkpt lat="42.13021" lon="9.0859">
        <ele>1630.5</ele>
        <time>2018-08-30T09:22:13Z</time>
      </trkpt>
      <trkpt lat="42.13017" lon="9.08593">
        <ele>1630.51</ele>
        <time>2018-08-30T09:22:29Z</time>
      </trkpt>
      <trkpt lat="42.13013" lon="9.08591">
        <ele>1629.6</ele>
        <time>2018-08-30T09:22:39Z</time>
      </trkpt>
      <trkpt lat="42.13009" lon="9.08595">
        <ele>1629.62</ele>
        <time>2018-08-30T09:22:51Z</time>
      </trkpt>
      <trkpt lat="42.13007" lon="9.08598">
        <ele>1628.83</ele>
        <time>2018-08-30T09:23:21Z</time>
      </trkpt>
      <trkpt lat="42.12998" lon="9.08605">
        <ele>1627.91</ele>
        <time>2018-08-30T09:23:34Z</time>
      </trkpt>
      <trkpt lat="42.12997" lon="9.08606">
        <ele>1627.9</ele>
        <time>2018-08-30T09:23:36Z</time>
      </trkpt>
      <trkpt lat="42.12988" lon="9.08611">
        <ele>1626.1</ele>
        <time>2018-08-30T09:23:50Z</time>
      </trkpt>
      <trkpt lat="42.12987" lon="9.08611">
        <ele>1626.1</ele>
        <time>2018-08-30T09:23:51Z</time>
      </trkpt>
      <trkpt lat="42.12983" lon="9.08612">
        <ele>1626.1</ele>
        <time>2018-08-30T09:23:56Z</time>
      </trkpt>
      <trkpt lat="42.12975" lon="9.08612">
        <ele>1624.2</ele>
        <time>2018-08-30T09:24:08Z</time>
      </trkpt>
      <trkpt lat="42.12974" lon="9.08608">
        <ele>1624.21</ele>
        <time>2018-08-30T09:24:12Z</time>
      </trkpt>
      <trkpt lat="42.12969" lon="9.08614">
        <ele>1622.49</ele>
        <time>2018-08-30T09:24:26Z</time>
      </trkpt>
      <trkpt lat="42.12966" lon="9.08621">
        <ele>1622.48</ele>
        <time>2018-08-30T09:24:40Z</time>
      </trkpt>
      <trkpt lat="42.12956" lon="9.08619">
        <ele>1621.52</ele>
        <time>2018-08-30T09:24:58Z</time>
      </trkpt>
      <trkpt lat="42.12949" lon="9.08614">
        <ele>1620.36</ele>
        <time>2018-08-30T09:25:05Z</time>
      </trkpt>
      <trkpt lat="42.12942" lon="9.0862">
        <ele>1620.4</ele>
        <time>2018-08-30T09:25:18Z</time>
      </trkpt>
      <trkpt lat="42.12939" lon="9.08625">
        <ele>1620.43</ele>
        <time>2018-08-30T09:25:27Z</time>
      </trkpt>
      <trkpt lat="42.12936" lon="9.08633">
        <ele>1620.43</ele>
        <time>2018-08-30T09:25:35Z</time>
      </trkpt>
      <trkpt lat="42.12938" lon="9.08644">
        <ele>1620.4</ele>
        <time>2018-08-30T09:25:49Z</time>
      </trkpt>
      <trkpt lat="42.12937" lon="9.0865">
        <ele>1618.57</ele>
        <time>2018-08-30T09:26:00Z</time>
      </trkpt>
      <trkpt lat="42.12935" lon="9.08651">
        <ele>1617.62</ele>
        <time>2018-08-30T09:26:10Z</time>
      </trkpt>
      <trkpt lat="42.12935" lon="9.08662">
        <ele>1616.6</ele>
        <time>2018-08-30T09:26:25Z</time>
      </trkpt>
      <trkpt lat="42.12934" lon="9.0867">
        <ele>1613.08</ele>
        <time>2018-08-30T09:26:36Z</time>
      </trkpt>
      <trkpt lat="42.12933" lon="9.08677">
        <ele>1612.13</ele>
        <time>2018-08-30T09:26:47Z</time>
      </trkpt>
      <trkpt lat="42.12932" lon="9.08683">
        <ele>1611.39</ele>
        <time>2018-08-30T09:27:05Z</time>
      </trkpt>
      <trkpt lat="42.12933" lon="9.0869">
        <ele>1608.24</ele>
        <time>2018-08-30T09:27:18Z</time>
      </trkpt>
      <trkpt lat="42.12935" lon="9.087">
        <ele>1604.99</ele>
        <time>2018-08-30T09:27:33Z</time>
      </trkpt>
      <trkpt lat="42.12934" lon="9.087">
        <ele>1605.01</ele>
        <time>2018-08-30T09:27:34Z</time>
      </trkpt>
      <trkpt lat="42.12935" lon="9.08707">
        <ele>1603.86</ele>
        <time>2018-08-30T09:27:45Z</time>
      </trkpt>
      <trkpt lat="42.1293" lon="9.08707">
        <ele>1602.03</ele>
        <time>2018-08-30T09:27:58Z</time>
      </trkpt>
      <trkpt lat="42.12929" lon="9.0871">
        <ele>1600.66</ele>
        <time>2018-08-30T09:28:06Z</time>
      </trkpt>
      <trkpt lat="42.12926" lon="9.08712">
        <ele>1599.83</ele>
        <time>2018-08-30T09:28:18Z</time>
      </trkpt>
      <trkpt lat="42.12922" lon="9.08712">
        <ele>1597.83</ele>
        <time>2018-08-30T09:28:30Z</time>
      </trkpt>
      <trkpt lat="42.12922" lon="9.08714">
        <ele>1596.52</ele>
        <time>2018-08-30T09:28:34Z</time>
      </trkpt>
      <trkpt lat="42.12921" lon="9.08719">
        <ele>1594.44</ele>
        <time>2018-08-30T09:28:47Z</time>
      </trkpt>
      <trkpt lat="42.12914" lon="9.08719">
        <ele>1592.8</ele>
        <time>2018-08-30T09:29:01Z</time>
      </trkpt>
      <trkpt lat="42.12912" lon="9.08722">
        <ele>1589.71</ele>
        <time>2018-08-30T09:29:14Z</time>
      </trkpt>
      <trkpt lat="42.12913" lon="9.08726">
        <ele>1589.73</ele>
        <time>2018-08-30T09:29:26Z</time>
      </trkpt>
      <trkpt lat="42.12912" lon="9.08727">
        <ele>1588.09</ele>
        <time>2018-08-30T09:29:30Z</time>
      </trkpt>
      <trkpt lat="42.12912" lon="9.0873">
        <ele>1587.24</ele>
        <time>2018-08-30T09:29:44Z</time>
      </trkpt>
      <trkpt lat="42.1291" lon="9.08733">
        <ele>1585.15</ele>
        <time>2018-08-30T09:29:55Z</time>
      </trkpt>
      <trkpt lat="42.12909" lon="9.08737">
        <ele>1585.16</ele>
        <time>2018-08-30T09:30:06Z</time>
      </trkpt>
      <trkpt lat="42.12908" lon="9.08739">
        <ele>1585.16</ele>
        <time>2018-08-30T09:30:19Z</time>
      </trkpt>
      <trkpt lat="42.12906" lon="9.08742">
        <ele>1585.16</ele>
        <time>2018-08-30T09:30:23Z</time>
      </trkpt>
      <trkpt lat="42.12903" lon="9.08743">
        <ele>1585.17</ele>
        <time>2018-08-30T09:30:27Z</time>
      </trkpt>
      <trkpt lat="42.12895" lon="9.08749">
        <ele>1585.09</ele>
        <time>2018-08-30T09:30:41Z</time>
      </trkpt>
      <trkpt lat="42.12889" lon="9.08756">
        <ele>1584.27</ele>
        <time>2018-08-30T09:30:54Z</time>
      </trkpt>
      <trkpt lat="42.1288" lon="9.08761">
        <ele>1583.28</ele>
        <time>2018-08-30T09:31:07Z</time>
      </trkpt>
      <trkpt lat="42.12874" lon="9.08763">
        <ele>1582.34</ele>
        <time>2018-08-30T09:31:23Z</time>
      </trkpt>
      <trkpt lat="42.12866" lon="9.08768">
        <ele>1581.42</ele>
        <time>2018-08-30T09:31:36Z</time>
      </trkpt>
      <trkpt lat="42.12862" lon="9.08767">
        <ele>1579.6</ele>
        <time>2018-08-30T09:31:46Z</time>
      </trkpt>
      <trkpt lat="42.12854" lon="9.08771">
        <ele>1578.37</ele>
        <time>2018-08-30T09:32:00Z</time>
      </trkpt>
      <trkpt lat="42.12847" lon="9.08775">
        <ele>1576.73</ele>
        <time>2018-08-30T09:32:14Z</time>
      </trkpt>
      <trkpt lat="42.12842" lon="9.08783">
        <ele>1576.03</ele>
        <time>2018-08-30T09:32:27Z</time>
      </trkpt>
      <trkpt lat="42.12839" lon="9.08786">
        <ele>1576.06</ele>
        <time>2018-08-30T09:32:41Z</time>
      </trkpt>
      <trkpt lat="42.12834" lon="9.08785">
        <ele>1572.99</ele>
        <time>2018-08-30T09:32:52Z</time>
      </trkpt>
      <trkpt lat="42.12828" lon="9.08784">
        <ele>1571.14</ele>
        <time>2018-08-30T09:33:07Z</time>
      </trkpt>
      <trkpt lat="42.12826" lon="9.08783">
        <ele>1569.75</ele>
        <time>2018-08-30T09:33:11Z</time>
      </trkpt>
      <trkpt lat="42.12824" lon="9.08783">
        <ele>1568.25</ele>
        <time>2018-08-30T09:33:16Z</time>
      </trkpt>
      <trkpt lat="42.12816" lon="9.08781">
        <ele>1568.34</ele>
        <time>2018-08-30T09:33:29Z</time>
      </trkpt>
      <trkpt lat="42.12808" lon="9.08776">
        <ele>1565.58</ele>
        <time>2018-08-30T09:33:44Z</time>
      </trkpt>
      <trkpt lat="42.12801" lon="9.08774">
        <ele>1564.35</ele>
        <time>2018-08-30T09:33:58Z</time>
      </trkpt>
      <trkpt lat="42.12801" lon="9.08774">
        <ele>1564.35</ele>
        <time>2018-08-30T09:33:59Z</time>
      </trkpt>
      <trkpt lat="42.12797" lon="9.08772">
        <ele>1563.32</ele>
        <time>2018-08-30T09:34:12Z</time>
      </trkpt>
      <trkpt lat="42.12789" lon="9.08773">
        <ele>1562.09</ele>
        <time>2018-08-30T09:34:26Z</time>
      </trkpt>
      <trkpt lat="42.12787" lon="9.08773">
        <ele>1561.12</ele>
        <time>2018-08-30T09:34:30Z</time>
      </trkpt>
      <trkpt lat="42.12774" lon="9.08777">
        <ele>1560.42</ele>
        <time>2018-08-30T09:34:44Z</time>
      </trkpt>
      <trkpt lat="42.12766" lon="9.08775">
        <ele>1559.58</ele>
        <time>2018-08-30T09:34:58Z</time>
      </trkpt>
      <trkpt lat="42.12756" lon="9.08777">
        <ele>1558.39</ele>
        <time>2018-08-30T09:35:12Z</time>
      </trkpt>
      <trkpt lat="42.12749" lon="9.08777">
        <ele>1557.5</ele>
        <time>2018-08-30T09:35:24Z</time>
      </trkpt>
      <trkpt lat="42.12743" lon="9.08776">
        <ele>1556.59</ele>
        <time>2018-08-30T09:35:39Z</time>
      </trkpt>
      <trkpt lat="42.12739" lon="9.08774">
        <ele>1554.57</ele>
        <time>2018-08-30T09:35:54Z</time>
      </trkpt>
      <trkpt lat="42.12736" lon="9.08774">
        <ele>1553.94</ele>
        <time>2018-08-30T09:36:05Z</time>
      </trkpt>
      <trkpt lat="42.12735" lon="9.08773">
        <ele>1552.49</ele>
        <time>2018-08-30T09:36:11Z</time>
      </trkpt>
      <trkpt lat="42.12733" lon="9.0877">
        <ele>1551.23</ele>
        <time>2018-08-30T09:36:20Z</time>
      </trkpt>
      <trkpt lat="42.12727" lon="9.08765">
        <ele>1548.62</ele>
        <time>2018-08-30T09:36:36Z</time>
      </trkpt>
      <trkpt lat="42.12721" lon="9.08763">
        <ele>1546.93</ele>
        <time>2018-08-30T09:36:49Z</time>
      </trkpt>
      <trkpt lat="42.12719" lon="9.08763">
        <ele>1545.52</ele>
        <time>2018-08-30T09:36:51Z</time>
      </trkpt>
      <trkpt lat="42.12709" lon="9.08762">
        <ele>1543.47</ele>
        <time>2018-08-30T09:37:06Z</time>
      </trkpt>
      <trkpt lat="42.12703" lon="9.08759">
        <ele>1542.5</ele>
        <time>2018-08-30T09:37:20Z</time>
      </trkpt>
      <trkpt lat="42.12701" lon="9.08757">
        <ele>1539.8</ele>
        <time>2018-08-30T09:37:36Z</time>
      </trkpt>
      <trkpt lat="42.12695" lon="9.08757">
        <ele>1537.91</ele>
        <time>2018-08-30T09:37:48Z</time>
      </trkpt>
      <trkpt lat="42.12686" lon="9.08756">
        <ele>1536.22</ele>
        <time>2018-08-30T09:38:03Z</time>
      </trkpt>
      <trkpt lat="42.12676" lon="9.08758">
        <ele>1534.36</ele>
        <time>2018-08-30T09:38:19Z</time>
      </trkpt>
      <trkpt lat="42.12667" lon="9.08758">
        <ele>1532.28</ele>
        <time>2018-08-30T09:38:35Z</time>
      </trkpt>
      <trkpt lat="42.12656" lon="9.08759">
        <ele>1530.63</ele>
        <time>2018-08-30T09:38:50Z</time>
      </trkpt>
      <trkpt lat="42.12646" lon="9.08758">
        <ele>1529.73</ele>
        <time>2018-08-30T09:39:04Z</time>
      </trkpt>
      <trkpt lat="42.12638" lon="9.08757">
        <ele>1528.98</ele>
        <time>2018-08-30T09:39:19Z</time>
      </trkpt>
      <trkpt lat="42.12634" lon="9.08757">
        <ele>1527.28</ele>
        <time>2018-08-30T09:39:32Z</time>
      </trkpt>
      <trkpt lat="42.12633" lon="9.08755">
        <ele>1525.2</ele>
        <time>2018-08-30T09:39:40Z</time>
      </trkpt>
      <trkpt lat="42.12627" lon="9.08759">
        <ele>1525.27</ele>
        <time>2018-08-30T09:39:54Z</time>
      </trkpt>
      <trkpt lat="42.12626" lon="9.08761">
        <ele>1525.25</ele>
        <time>2018-08-30T09:40:09Z</time>
      </trkpt>
      <trkpt lat="42.12626" lon="9.08761">
        <ele>1525.2</ele>
        <time>2018-08-30T09:40:33Z</time>
      </trkpt>
      <trkpt lat="42.12626" lon="9.08761">
        <ele>1525.17</ele>
        <time>2018-08-30T09:40:58Z</time>
      </trkpt>
      <trkpt lat="42.12626" lon="9.08761">
        <ele>1525.13</ele>
        <time>2018-08-30T09:41:19Z</time>
      </trkpt>
      <trkpt lat="42.12625" lon="9.08761">
        <ele>1525.1</ele>
        <time>2018-08-30T09:41:37Z</time>
      </trkpt>
      <trkpt lat="42.12618" lon="9.08773">
        <ele>1524.23</ele>
        <time>2018-08-30T09:41:52Z</time>
      </trkpt>
      <trkpt lat="42.12615" lon="9.08779">
        <ele>1522.7</ele>
        <time>2018-08-30T09:41:58Z</time>
      </trkpt>
      <trkpt lat="42.12608" lon="9.08799">
        <ele>1522.68</ele>
        <time>2018-08-30T09:42:15Z</time>
      </trkpt>
      <trkpt lat="42.12602" lon="9.08805">
        <ele>1522.65</ele>
        <time>2018-08-30T09:42:23Z</time>
      </trkpt>
      <trkpt lat="42.1259" lon="9.08811">
        <ele>1522.6</ele>
        <time>2018-08-30T09:42:38Z</time>
      </trkpt>
      <trkpt lat="42.12582" lon="9.08811">
        <ele>1521.59</ele>
        <time>2018-08-30T09:42:52Z</time>
      </trkpt>
      <trkpt lat="42.12575" lon="9.08818">
        <ele>1520.7</ele>
        <time>2018-08-30T09:43:07Z</time>
      </trkpt>
      <trkpt lat="42.12566" lon="9.08822">
        <ele>1519.77</ele>
        <time>2018-08-30T09:43:21Z</time>
      </trkpt>
      <trkpt lat="42.12563" lon="9.08831">
        <ele>1519.75</ele>
        <time>2018-08-30T09:43:30Z</time>
      </trkpt>
      <trkpt lat="42.12555" lon="9.08841">
        <ele>1517.18</ele>
        <time>2018-08-30T09:43:44Z</time>
      </trkpt>
      <trkpt lat="42.12553" lon="9.08847">
        <ele>1517.2</ele>
        <time>2018-08-30T09:43:58Z</time>
      </trkpt>
      <trkpt lat="42.12553" lon="9.08852">
        <ele>1516.18</ele>
        <time>2018-08-30T09:44:19Z</time>
      </trkpt>
      <trkpt lat="42.12549" lon="9.08859">
        <ele>1515.06</ele>
        <time>2018-08-30T09:44:33Z</time>
      </trkpt>
      <trkpt lat="42.12546" lon="9.08855">
        <ele>1514.18</ele>
        <time>2018-08-30T09:44:46Z</time>
      </trkpt>
      <trkpt lat="42.12543" lon="9.08854">
        <ele>1512.66</ele>
        <time>2018-08-30T09:44:55Z</time>
      </trkpt>
      <trkpt lat="42.12535" lon="9.08859">
        <ele>1511.75</ele>
        <time>2018-08-30T09:45:08Z</time>
      </trkpt>
      <trkpt lat="42.12533" lon="9.08866">
        <ele>1510.65</ele>
        <time>2018-08-30T09:45:17Z</time>
      </trkpt>
      <trkpt lat="42.12533" lon="9.08878">
        <ele>1509.72</ele>
        <time>2018-08-30T09:45:30Z</time>
      </trkpt>
      <trkpt lat="42.12528" lon="9.08884">
        <ele>1508.54</ele>
        <time>2018-08-30T09:45:44Z</time>
      </trkpt>
      <trkpt lat="42.12527" lon="9.08891">
        <ele>1505.05</ele>
        <time>2018-08-30T09:45:57Z</time>
      </trkpt>
      <trkpt lat="42.12527" lon="9.08899">
        <ele>1503.15</ele>
        <time>2018-08-30T09:46:12Z</time>
      </trkpt>
      <trkpt lat="42.12526" lon="9.08906">
        <ele>1502.38</ele>
        <time>2018-08-30T09:46:25Z</time>
      </trkpt>
      <trkpt lat="42.12522" lon="9.08913">
        <ele>1500.58</ele>
        <time>2018-08-30T09:46:38Z</time>
      </trkpt>
      <trkpt lat="42.1252" lon="9.08922">
        <ele>1499.46</ele>
        <time>2018-08-30T09:46:50Z</time>
      </trkpt>
      <trkpt lat="42.12519" lon="9.0893">
        <ele>1497.25</ele>
        <time>2018-08-30T09:47:00Z</time>
      </trkpt>
      <trkpt lat="42.12518" lon="9.08933">
        <ele>1495.85</ele>
        <time>2018-08-30T09:47:05Z</time>
      </trkpt>
      <trkpt lat="42.1251" lon="9.08944">
        <ele>1493.85</ele>
        <time>2018-08-30T09:47:22Z</time>
      </trkpt>
      <trkpt lat="42.12501" lon="9.08946">
        <ele>1492.68</ele>
        <time>2018-08-30T09:47:36Z</time>
      </trkpt>
      <trkpt lat="42.1249" lon="9.08948">
        <ele>1489.55</ele>
        <time>2018-08-30T09:47:52Z</time>
      </trkpt>
      <trkpt lat="42.12485" lon="9.08949">
        <ele>1488.62</ele>
        <time>2018-08-30T09:48:07Z</time>
      </trkpt>
      <trkpt lat="42.12484" lon="9.08949">
        <ele>1488.62</ele>
        <time>2018-08-30T09:48:08Z</time>
      </trkpt>
      <trkpt lat="42.12477" lon="9.08956">
        <ele>1488.61</ele>
        <time>2018-08-30T09:48:18Z</time>
      </trkpt>
      <trkpt lat="42.12469" lon="9.08956">
        <ele>1487.43</ele>
        <time>2018-08-30T09:48:32Z</time>
      </trkpt>
      <trkpt lat="42.1246" lon="9.08959">
        <ele>1486.55</ele>
        <time>2018-08-30T09:48:45Z</time>
      </trkpt>
      <trkpt lat="42.1245" lon="9.08963">
        <ele>1484.65</ele>
        <time>2018-08-30T09:49:00Z</time>
      </trkpt>
      <trkpt lat="42.12442" lon="9.08968">
        <ele>1482.65</ele>
        <time>2018-08-30T09:49:14Z</time>
      </trkpt>
      <trkpt lat="42.12436" lon="9.08973">
        <ele>1480.86</ele>
        <time>2018-08-30T09:49:28Z</time>
      </trkpt>
      <trkpt lat="42.12435" lon="9.08976">
        <ele>1480.83</ele>
        <time>2018-08-30T09:49:33Z</time>
      </trkpt>
      <trkpt lat="42.12427" lon="9.08975">
        <ele>1479.08</ele>
        <time>2018-08-30T09:49:47Z</time>
      </trkpt>
      <trkpt lat="42.12421" lon="9.08981">
        <ele>1477.16</ele>
        <time>2018-08-30T09:50:04Z</time>
      </trkpt>
      <trkpt lat="42.12408" lon="9.08982">
        <ele>1475.49</ele>
        <time>2018-08-30T09:50:21Z</time>
      </trkpt>
      <trkpt lat="42.12406" lon="9.08985">
        <ele>1474.05</ele>
        <time>2018-08-30T09:50:25Z</time>
      </trkpt>
      <trkpt lat="42.12401" lon="9.0899">
        <ele>1473</ele>
        <time>2018-08-30T09:50:39Z</time>
      </trkpt>
      <trkpt lat="42.12394" lon="9.08996">
        <ele>1470.33</ele>
        <time>2018-08-30T09:50:54Z</time>
      </trkpt>
      <trkpt lat="42.12385" lon="9.09006">
        <ele>1469.37</ele>
        <time>2018-08-30T09:51:10Z</time>
      </trkpt>
      <trkpt lat="42.12375" lon="9.09001">
        <ele>1467.3</ele>
        <time>2018-08-30T09:51:24Z</time>
      </trkpt>
      <trkpt lat="42.12373" lon="9.09">
        <ele>1466.01</ele>
        <time>2018-08-30T09:51:26Z</time>
      </trkpt>
      <trkpt lat="42.12368" lon="9.09007">
        <ele>1465.94</ele>
        <time>2018-08-30T09:51:41Z</time>
      </trkpt>
      <trkpt lat="42.12366" lon="9.09009">
        <ele>1464.47</ele>
        <time>2018-08-30T09:51:49Z</time>
      </trkpt>
      <trkpt lat="42.12359" lon="9.09019">
        <ele>1463.58</ele>
        <time>2018-08-30T09:52:03Z</time>
      </trkpt>
      <trkpt lat="42.12352" lon="9.09025">
        <ele>1461.64</ele>
        <time>2018-08-30T09:52:15Z</time>
      </trkpt>
      <trkpt lat="42.12345" lon="9.09031">
        <ele>1461.56</ele>
        <time>2018-08-30T09:52:27Z</time>
      </trkpt>
      <trkpt lat="42.1234" lon="9.09037">
        <ele>1459.78</ele>
        <time>2018-08-30T09:52:43Z</time>
      </trkpt>
      <trkpt lat="42.12333" lon="9.09035">
        <ele>1458.86</ele>
        <time>2018-08-30T09:53:02Z</time>
      </trkpt>
      <trkpt lat="42.12324" lon="9.09039">
        <ele>1456.81</ele>
        <time>2018-08-30T09:53:16Z</time>
      </trkpt>
      <trkpt lat="42.12314" lon="9.0904">
        <ele>1454.75</ele>
        <time>2018-08-30T09:53:31Z</time>
      </trkpt>
      <trkpt lat="42.12309" lon="9.09042">
        <ele>1453.28</ele>
        <time>2018-08-30T09:53:38Z</time>
      </trkpt>
      <trkpt lat="42.12302" lon="9.09046">
        <ele>1452.47</ele>
        <time>2018-08-30T09:53:51Z</time>
      </trkpt>
      <trkpt lat="42.12294" lon="9.09049">
        <ele>1450.77</ele>
        <time>2018-08-30T09:54:03Z</time>
      </trkpt>
      <trkpt lat="42.12285" lon="9.09045">
        <ele>1448.94</ele>
        <time>2018-08-30T09:54:17Z</time>
      </trkpt>
      <trkpt lat="42.12283" lon="9.09046">
        <ele>1448.93</ele>
        <time>2018-08-30T09:54:20Z</time>
      </trkpt>
      <trkpt lat="42.1228" lon="9.09044">
        <ele>1448.9</ele>
        <time>2018-08-30T09:54:23Z</time>
      </trkpt>
      <trkpt lat="42.12278" lon="9.09056">
        <ele>1446.15</ele>
        <time>2018-08-30T09:54:37Z</time>
      </trkpt>
      <trkpt lat="42.12274" lon="9.09063">
        <ele>1444.07</ele>
        <time>2018-08-30T09:54:50Z</time>
      </trkpt>
      <trkpt lat="42.12265" lon="9.09069">
        <ele>1442.35</ele>
        <time>2018-08-30T09:55:05Z</time>
      </trkpt>
      <trkpt lat="42.1226" lon="9.09075">
        <ele>1441.51</ele>
        <time>2018-08-30T09:55:16Z</time>
      </trkpt>
      <trkpt lat="42.12252" lon="9.09082">
        <ele>1439.54</ele>
        <time>2018-08-30T09:55:30Z</time>
      </trkpt>
      <trkpt lat="42.12245" lon="9.0909">
        <ele>1438.59</ele>
        <time>2018-08-30T09:55:44Z</time>
      </trkpt>
      <trkpt lat="42.12236" lon="9.0909">
        <ele>1436.72</ele>
        <time>2018-08-30T09:55:58Z</time>
      </trkpt>
      <trkpt lat="42.12228" lon="9.09093">
        <ele>1434.92</ele>
        <time>2018-08-30T09:56:13Z</time>
      </trkpt>
      <trkpt lat="42.1223" lon="9.09104">
        <ele>1433.88</ele>
        <time>2018-08-30T09:56:28Z</time>
      </trkpt>
      <trkpt lat="42.12234" lon="9.09113">
        <ele>1432.75</ele>
        <time>2018-08-30T09:56:41Z</time>
      </trkpt>
      <trkpt lat="42.12232" lon="9.09124">
        <ele>1432.68</ele>
        <time>2018-08-30T09:56:57Z</time>
      </trkpt>
      <trkpt lat="42.12229" lon="9.09128">
        <ele>1431.83</ele>
        <time>2018-08-30T09:57:09Z</time>
      </trkpt>
      <trkpt lat="42.12224" lon="9.0913">
        <ele>1430.59</ele>
        <time>2018-08-30T09:57:18Z</time>
      </trkpt>
      <trkpt lat="42.12219" lon="9.09139">
        <ele>1430.52</ele>
        <time>2018-08-30T09:57:32Z</time>
      </trkpt>
      <trkpt lat="42.12218" lon="9.0914">
        <ele>1432.88</ele>
        <time>2018-08-30T09:57:34Z</time>
      </trkpt>
      <trkpt lat="42.12217" lon="9.0915">
        <ele>1432.83</ele>
        <time>2018-08-30T09:57:48Z</time>
      </trkpt>
      <trkpt lat="42.12217" lon="9.09153">
        <ele>1432.77</ele>
        <time>2018-08-30T09:58:05Z</time>
      </trkpt>
      <trkpt lat="42.1222" lon="9.09153">
        <ele>1432.71</ele>
        <time>2018-08-30T09:58:23Z</time>
      </trkpt>
      <trkpt lat="42.12221" lon="9.09153">
        <ele>1432.64</ele>
        <time>2018-08-30T09:58:39Z</time>
      </trkpt>
      <trkpt lat="42.12221" lon="9.09148">
        <ele>1432.59</ele>
        <time>2018-08-30T09:58:52Z</time>
      </trkpt>
      <trkpt lat="42.12221" lon="9.09148">
        <ele>1430.1</ele>
        <time>2018-08-30T09:59:05Z</time>
      </trkpt>
      <trkpt lat="42.12221" lon="9.09149">
        <ele>1430.04</ele>
        <time>2018-08-30T09:59:21Z</time>
      </trkpt>
      <trkpt lat="42.12221" lon="9.09149">
        <ele>1431.26</ele>
        <time>2018-08-30T09:59:53Z</time>
      </trkpt>
      <trkpt lat="42.12221" lon="9.09149">
        <ele>1424.76</ele>
        <time>2018-08-30T09:59:59Z</time>
      </trkpt>
      <trkpt lat="42.12221" lon="9.09149">
        <ele>1432.71</ele>
        <time>2018-08-30T10:00:00Z</time>
      </trkpt>
      <trkpt lat="42.12221" lon="9.09149">
        <ele>1430.52</ele>
        <time>2018-08-30T10:00:03Z</time>
      </trkpt>
      <trkpt lat="42.12222" lon="9.09148">
        <ele>1424.69</ele>
        <time>2018-08-30T10:00:15Z</time>
      </trkpt>
      <trkpt lat="42.12222" lon="9.09148">
        <ele>1429.13</ele>
        <time>2018-08-30T10:00:16Z</time>
      </trkpt>
      <trkpt lat="42.12223" lon="9.09148">
        <ele>1434.49</ele>
        <time>2018-08-30T10:00:17Z</time>
      </trkpt>
      <trkpt lat="42.12223" lon="9.09148">
        <ele>1434.49</ele>
        <time>2018-08-30T10:00:18Z</time>
      </trkpt>
      <trkpt lat="42.12223" lon="9.09148">
        <ele>1430.2</ele>
        <time>2018-08-30T10:00:19Z</time>
      </trkpt>
      <trkpt lat="42.12223" lon="9.09148">
        <ele>1430.19</ele>
        <time>2018-08-30T10:00:20Z</time>
      </trkpt>
      <trkpt lat="42.12219" lon="9.0915">
        <ele>1428.9</ele>
        <time>2018-08-30T10:01:37Z</time>
      </trkpt>
      <trkpt lat="42.12221" lon="9.0915">
        <ele>1428.62</ele>
        <time>2018-08-30T10:03:03Z</time>
      </trkpt>
      <trkpt lat="42.12219" lon="9.0915">
        <ele>1428.4</ele>
        <time>2018-08-30T10:04:15Z</time>
      </trkpt>
      <trkpt lat="42.12219" lon="9.09146">
        <ele>1428.23</ele>
        <time>2018-08-30T10:05:14Z</time>
      </trkpt>
      <trkpt lat="42.12222" lon="9.09151">
        <ele>1428.01</ele>
        <time>2018-08-30T10:06:49Z</time>
      </trkpt>
      <trkpt lat="42.12218" lon="9.09148">
        <ele>1427.75</ele>
        <time>2018-08-30T10:08:21Z</time>
      </trkpt>
      <trkpt lat="42.12219" lon="9.09148">
        <ele>1427.55</ele>
        <time>2018-08-30T10:09:33Z</time>
      </trkpt>
      <trkpt lat="42.1222" lon="9.09148">
        <ele>1427.25</ele>
        <time>2018-08-30T10:10:55Z</time>
      </trkpt>
      <trkpt lat="42.1222" lon="9.09149">
        <ele>1427.01</ele>
        <time>2018-08-30T10:12:22Z</time>
      </trkpt>
      <trkpt lat="42.1222" lon="9.09147">
        <ele>1426.87</ele>
        <time>2018-08-30T10:13:16Z</time>
      </trkpt>
      <trkpt lat="42.12221" lon="9.09149">
        <ele>1429.27</ele>
        <time>2018-08-30T10:14:09Z</time>
      </trkpt>
      <trkpt lat="42.12221" lon="9.0915">
        <ele>1429.22</ele>
        <time>2018-08-30T10:14:26Z</time>
      </trkpt>
      <trkpt lat="42.12221" lon="9.09151">
        <ele>1429.14</ele>
        <time>2018-08-30T10:14:49Z</time>
      </trkpt>
      <trkpt lat="42.12218" lon="9.09151">
        <ele>1429</ele>
        <time>2018-08-30T10:15:11Z</time>
      </trkpt>
      <trkpt lat="42.12215" lon="9.09146">
        <ele>1428.97</ele>
        <time>2018-08-30T10:15:36Z</time>
      </trkpt>
      <trkpt lat="42.12215" lon="9.09146">
        <ele>1428.91</ele>
        <time>2018-08-30T10:16:04Z</time>
      </trkpt>
      <trkpt lat="42.12213" lon="9.09145">
        <ele>1428.87</ele>
        <time>2018-08-30T10:16:28Z</time>
      </trkpt>
      <trkpt lat="42.12215" lon="9.09143">
        <ele>1428.84</ele>
        <time>2018-08-30T10:16:59Z</time>
      </trkpt>
      <trkpt lat="42.12213" lon="9.09146">
        <ele>1428.82</ele>
        <time>2018-08-30T10:17:25Z</time>
      </trkpt>
      <trkpt lat="42.12211" lon="9.09147">
        <ele>1426.57</ele>
        <time>2018-08-30T10:17:31Z</time>
      </trkpt>
      <trkpt lat="42.12209" lon="9.09148">
        <ele>1426.58</ele>
        <time>2018-08-30T10:17:45Z</time>
      </trkpt>
      <trkpt lat="42.12205" lon="9.09148">
        <ele>1425.69</ele>
        <time>2018-08-30T10:17:59Z</time>
      </trkpt>
      <trkpt lat="42.12207" lon="9.09145">
        <ele>1424.83</ele>
        <time>2018-08-30T10:18:15Z</time>
      </trkpt>
      <trkpt lat="42.12207" lon="9.0914">
        <ele>1423.63</ele>
        <time>2018-08-30T10:18:31Z</time>
      </trkpt>
      <trkpt lat="42.12204" lon="9.09143">
        <ele>1423.59</ele>
        <time>2018-08-30T10:18:46Z</time>
      </trkpt>
      <trkpt lat="42.12202" lon="9.09138">
        <ele>1422.57</ele>
        <time>2018-08-30T10:19:01Z</time>
      </trkpt>
      <trkpt lat="42.12199" lon="9.09137">
        <ele>1422.59</ele>
        <time>2018-08-30T10:19:29Z</time>
      </trkpt>
      <trkpt lat="42.12199" lon="9.09143">
        <ele>1422.61</ele>
        <time>2018-08-30T10:19:42Z</time>
      </trkpt>
      <trkpt lat="42.122" lon="9.09146">
        <ele>1422.54</ele>
        <time>2018-08-30T10:20:06Z</time>
      </trkpt>
      <trkpt lat="42.12202" lon="9.09148">
        <ele>1421.47</ele>
        <time>2018-08-30T10:20:25Z</time>
      </trkpt>
      <trkpt lat="42.12202" lon="9.09147">
        <ele>1421.36</ele>
        <time>2018-08-30T10:20:49Z</time>
      </trkpt>
      <trkpt lat="42.122" lon="9.09152">
        <ele>1421.37</ele>
        <time>2018-08-30T10:21:06Z</time>
      </trkpt>
      <trkpt lat="42.12201" lon="9.09155">
        <ele>1421.27</ele>
        <time>2018-08-30T10:21:20Z</time>
      </trkpt>
      <trkpt lat="42.122" lon="9.09156">
        <ele>1421.19</ele>
        <time>2018-08-30T10:21:35Z</time>
      </trkpt>
      <trkpt lat="42.12197" lon="9.09154">
        <ele>1421.17</ele>
        <time>2018-08-30T10:21:50Z</time>
      </trkpt>
      <trkpt lat="42.12194" lon="9.09156">
        <ele>1421.1</ele>
        <time>2018-08-30T10:22:05Z</time>
      </trkpt>
      <trkpt lat="42.12193" lon="9.09158">
        <ele>1421.05</ele>
        <time>2018-08-30T10:22:24Z</time>
      </trkpt>
      <trkpt lat="42.12193" lon="9.09158">
        <ele>1420.98</ele>
        <time>2018-08-30T10:22:43Z</time>
      </trkpt>
      <trkpt lat="42.1219" lon="9.0916">
        <ele>1420.93</ele>
        <time>2018-08-30T10:22:58Z</time>
      </trkpt>
      <trkpt lat="42.12194" lon="9.09157">
        <ele>1420.06</ele>
        <time>2018-08-30T10:23:12Z</time>
      </trkpt>
      <trkpt lat="42.12197" lon="9.09155">
        <ele>1420</ele>
        <time>2018-08-30T10:23:30Z</time>
      </trkpt>
      <trkpt lat="42.12195" lon="9.09153">
        <ele>1419.91</ele>
        <time>2018-08-30T10:23:56Z</time>
      </trkpt>
      <trkpt lat="42.12197" lon="9.09151">
        <ele>1419.83</ele>
        <time>2018-08-30T10:24:15Z</time>
      </trkpt>
      <trkpt lat="42.12197" lon="9.0915">
        <ele>1419.7</ele>
        <time>2018-08-30T10:24:40Z</time>
      </trkpt>
      <trkpt lat="42.12198" lon="9.09141">
        <ele>1419.62</ele>
        <time>2018-08-30T10:24:54Z</time>
      </trkpt>
      <trkpt lat="42.12197" lon="9.09138">
        <ele>1419.52</ele>
        <time>2018-08-30T10:25:11Z</time>
      </trkpt>
      <trkpt lat="42.12194" lon="9.0913">
        <ele>1419.42</ele>
        <time>2018-08-30T10:25:34Z</time>
      </trkpt>
      <trkpt lat="42.12194" lon="9.09131">
        <ele>1419.35</ele>
        <time>2018-08-30T10:25:46Z</time>
      </trkpt>
      <trkpt lat="42.12193" lon="9.09135">
        <ele>1419.37</ele>
        <time>2018-08-30T10:26:00Z</time>
      </trkpt>
      <trkpt lat="42.12189" lon="9.09136">
        <ele>1422.04</ele>
        <time>2018-08-30T10:26:11Z</time>
      </trkpt>
      <trkpt lat="42.12187" lon="9.09132">
        <ele>1421.94</ele>
        <time>2018-08-30T10:26:30Z</time>
      </trkpt>
      <trkpt lat="42.12185" lon="9.09126">
        <ele>1421.87</ele>
        <time>2018-08-30T10:26:42Z</time>
      </trkpt>
      <trkpt lat="42.12181" lon="9.09123">
        <ele>1422.71</ele>
        <time>2018-08-30T10:26:54Z</time>
      </trkpt>
      <trkpt lat="42.12178" lon="9.09123">
        <ele>1422.65</ele>
        <time>2018-08-30T10:27:08Z</time>
      </trkpt>
      <trkpt lat="42.12176" lon="9.09122">
        <ele>1422.57</ele>
        <time>2018-08-30T10:27:29Z</time>
      </trkpt>
      <trkpt lat="42.12173" lon="9.09122">
        <ele>1423.56</ele>
        <time>2018-08-30T10:27:46Z</time>
      </trkpt>
      <trkpt lat="42.12175" lon="9.0912">
        <ele>1423.55</ele>
        <time>2018-08-30T10:28:01Z</time>
      </trkpt>
      <trkpt lat="42.12179" lon="9.09112">
        <ele>1424.26</ele>
        <time>2018-08-30T10:28:20Z</time>
      </trkpt>
      <trkpt lat="42.12181" lon="9.09109">
        <ele>1424.2</ele>
        <time>2018-08-30T10:28:33Z</time>
      </trkpt>
      <trkpt lat="42.1218" lon="9.09108">
        <ele>1424.11</ele>
        <time>2018-08-30T10:28:51Z</time>
      </trkpt>
      <trkpt lat="42.12179" lon="9.09107">
        <ele>1424.01</ele>
        <time>2018-08-30T10:29:11Z</time>
      </trkpt>
      <trkpt lat="42.12183" lon="9.09103">
        <ele>1424.69</ele>
        <time>2018-08-30T10:29:36Z</time>
      </trkpt>
      <trkpt lat="42.12185" lon="9.09099">
        <ele>1424.58</ele>
        <time>2018-08-30T10:29:52Z</time>
      </trkpt>
      <trkpt lat="42.12186" lon="9.09097">
        <ele>1424.49</ele>
        <time>2018-08-30T10:30:10Z</time>
      </trkpt>
      <trkpt lat="42.12186" lon="9.09094">
        <ele>1425.37</ele>
        <time>2018-08-30T10:30:24Z</time>
      </trkpt>
      <trkpt lat="42.12188" lon="9.09091">
        <ele>1425.26</ele>
        <time>2018-08-30T10:30:43Z</time>
      </trkpt>
      <trkpt lat="42.1219" lon="9.09088">
        <ele>1425.18</ele>
        <time>2018-08-30T10:30:56Z</time>
      </trkpt>
      <trkpt lat="42.12191" lon="9.09089">
        <ele>1425.09</ele>
        <time>2018-08-30T10:31:12Z</time>
      </trkpt>
      <trkpt lat="42.12192" lon="9.09086">
        <ele>1424.99</ele>
        <time>2018-08-30T10:31:30Z</time>
      </trkpt>
      <trkpt lat="42.12194" lon="9.09083">
        <ele>1424.88</ele>
        <time>2018-08-30T10:31:49Z</time>
      </trkpt>
      <trkpt lat="42.12196" lon="9.0908">
        <ele>1424.76</ele>
        <time>2018-08-30T10:32:09Z</time>
      </trkpt>
      <trkpt lat="42.12195" lon="9.09081">
        <ele>1424.61</ele>
        <time>2018-08-30T10:32:31Z</time>
      </trkpt>
      <trkpt lat="42.12197" lon="9.09085">
        <ele>1424.51</ele>
        <time>2018-08-30T10:32:46Z</time>
      </trkpt>
      <trkpt lat="42.12197" lon="9.0909">
        <ele>1422.12</ele>
        <time>2018-08-30T10:33:01Z</time>
      </trkpt>
      <trkpt lat="42.12197" lon="9.09089">
        <ele>1422.11</ele>
        <time>2018-08-30T10:33:02Z</time>
      </trkpt>
      <trkpt lat="42.12199" lon="9.09093">
        <ele>1421.97</ele>
        <time>2018-08-30T10:33:19Z</time>
      </trkpt>
      <trkpt lat="42.12198" lon="9.09098">
        <ele>1420.97</ele>
        <time>2018-08-30T10:33:32Z</time>
      </trkpt>
      <trkpt lat="42.122" lon="9.09098">
        <ele>1420.84</ele>
        <time>2018-08-30T10:33:56Z</time>
      </trkpt>
      <trkpt lat="42.12201" lon="9.09103">
        <ele>1420.82</ele>
        <time>2018-08-30T10:34:14Z</time>
      </trkpt>
      <trkpt lat="42.12199" lon="9.09105">
        <ele>1420.78</ele>
        <time>2018-08-30T10:34:29Z</time>
      </trkpt>
      <trkpt lat="42.12194" lon="9.09111">
        <ele>1420.76</ele>
        <time>2018-08-30T10:34:45Z</time>
      </trkpt>
      <trkpt lat="42.12191" lon="9.09119">
        <ele>1420.75</ele>
        <time>2018-08-30T10:35:00Z</time>
      </trkpt>
      <trkpt lat="42.12189" lon="9.09123">
        <ele>1420.71</ele>
        <time>2018-08-30T10:35:12Z</time>
      </trkpt>
      <trkpt lat="42.12186" lon="9.09129">
        <ele>1419.82</ele>
        <time>2018-08-30T10:35:26Z</time>
      </trkpt>
      <trkpt lat="42.12182" lon="9.0913">
        <ele>1419.8</ele>
        <time>2018-08-30T10:35:41Z</time>
      </trkpt>
      <trkpt lat="42.12177" lon="9.09128">
        <ele>1419.79</ele>
        <time>2018-08-30T10:35:59Z</time>
      </trkpt>
      <trkpt lat="42.12173" lon="9.09129">
        <ele>1419.77</ele>
        <time>2018-08-30T10:36:13Z</time>
      </trkpt>
      <trkpt lat="42.12169" lon="9.09137">
        <ele>1419.77</ele>
        <time>2018-08-30T10:36:29Z</time>
      </trkpt>
      <trkpt lat="42.12171" lon="9.09146">
        <ele>1418.93</ele>
        <time>2018-08-30T10:36:42Z</time>
      </trkpt>
      <trkpt lat="42.1217" lon="9.09149">
        <ele>1418.94</ele>
        <time>2018-08-30T10:36:59Z</time>
      </trkpt>
      <trkpt lat="42.12167" lon="9.09152">
        <ele>1417.86</ele>
        <time>2018-08-30T10:37:19Z</time>
      </trkpt>
      <trkpt lat="42.12168" lon="9.09154">
        <ele>1417.84</ele>
        <time>2018-08-30T10:37:47Z</time>
      </trkpt>
      <trkpt lat="42.1217" lon="9.09156">
        <ele>1417.79</ele>
        <time>2018-08-30T10:38:05Z</time>
      </trkpt>
      <trkpt lat="42.12172" lon="9.09158">
        <ele>1414.65</ele>
        <time>2018-08-30T10:38:21Z</time>
      </trkpt>
      <trkpt lat="42.12172" lon="9.09159">
        <ele>1414.66</ele>
        <time>2018-08-30T10:38:22Z</time>
      </trkpt>
      <trkpt lat="42.12171" lon="9.09158">
        <ele>1417.72</ele>
        <time>2018-08-30T10:38:25Z</time>
      </trkpt>
      <trkpt lat="42.12171" lon="9.09158">
        <ele>1417.72</ele>
        <time>2018-08-30T10:38:26Z</time>
      </trkpt>
      <trkpt lat="42.12171" lon="9.09159">
        <ele>1415.41</ele>
        <time>2018-08-30T10:38:29Z</time>
      </trkpt>
      <trkpt lat="42.12171" lon="9.09158">
        <ele>1415.39</ele>
        <time>2018-08-30T10:38:50Z</time>
      </trkpt>
      <trkpt lat="42.12169" lon="9.09157">
        <ele>1414.53</ele>
        <time>2018-08-30T10:39:11Z</time>
      </trkpt>
      <trkpt lat="42.12168" lon="9.09161">
        <ele>1414.47</ele>
        <time>2018-08-30T10:39:26Z</time>
      </trkpt>
      <trkpt lat="42.12167" lon="9.0916">
        <ele>1414.39</ele>
        <time>2018-08-30T10:39:48Z</time>
      </trkpt>
      <trkpt lat="42.12167" lon="9.09163">
        <ele>1414.31</ele>
        <time>2018-08-30T10:40:12Z</time>
      </trkpt>
      <trkpt lat="42.12168" lon="9.09161">
        <ele>1414.25</ele>
        <time>2018-08-30T10:40:28Z</time>
      </trkpt>
      <trkpt lat="42.12166" lon="9.09161">
        <ele>1414.25</ele>
        <time>2018-08-30T10:40:44Z</time>
      </trkpt>
      <trkpt lat="42.12165" lon="9.09162">
        <ele>1414.14</ele>
        <time>2018-08-30T10:40:59Z</time>
      </trkpt>
      <trkpt lat="42.12164" lon="9.09161">
        <ele>1416.36</ele>
        <time>2018-08-30T10:41:18Z</time>
      </trkpt>
      <trkpt lat="42.12164" lon="9.0916">
        <ele>1418.68</ele>
        <time>2018-08-30T10:41:23Z</time>
      </trkpt>
      <trkpt lat="42.12164" lon="9.09159">
        <ele>1416.38</ele>
        <time>2018-08-30T10:41:26Z</time>
      </trkpt>
      <trkpt lat="42.12164" lon="9.09155">
        <ele>1416.29</ele>
        <time>2018-08-30T10:41:46Z</time>
      </trkpt>
      <trkpt lat="42.1216" lon="9.09156">
        <ele>1416.25</ele>
        <time>2018-08-30T10:41:58Z</time>
      </trkpt>
      <trkpt lat="42.12159" lon="9.09157">
        <ele>1418.75</ele>
        <time>2018-08-30T10:42:00Z</time>
      </trkpt>
      <trkpt lat="42.12161" lon="9.09166">
        <ele>1418.54</ele>
        <time>2018-08-30T10:42:13Z</time>
      </trkpt>
      <trkpt lat="42.12166" lon="9.09165">
        <ele>1418.45</ele>
        <time>2018-08-30T10:42:35Z</time>
      </trkpt>
      <trkpt lat="42.12168" lon="9.09166">
        <ele>1418.4</ele>
        <time>2018-08-30T10:42:50Z</time>
      </trkpt>
      <trkpt lat="42.12167" lon="9.09165">
        <ele>1418.3</ele>
        <time>2018-08-30T10:43:22Z</time>
      </trkpt>
      <trkpt lat="42.12159" lon="9.09166">
        <ele>1418.24</ele>
        <time>2018-08-30T10:43:49Z</time>
      </trkpt>
      <trkpt lat="42.12152" lon="9.09176">
        <ele>1418.18</ele>
        <time>2018-08-30T10:44:04Z</time>
      </trkpt>
      <trkpt lat="42.12146" lon="9.09174">
        <ele>1419</ele>
        <time>2018-08-30T10:44:17Z</time>
      </trkpt>
      <trkpt lat="42.12145" lon="9.09168">
        <ele>1419.76</ele>
        <time>2018-08-30T10:44:37Z</time>
      </trkpt>
      <trkpt lat="42.1214" lon="9.0917">
        <ele>1420.46</ele>
        <time>2018-08-30T10:44:54Z</time>
      </trkpt>
      <trkpt lat="42.12137" lon="9.09175">
        <ele>1417.39</ele>
        <time>2018-08-30T10:45:04Z</time>
      </trkpt>
      <trkpt lat="42.12136" lon="9.09175">
        <ele>1417.38</ele>
        <time>2018-08-30T10:45:05Z</time>
      </trkpt>
      <trkpt lat="42.12135" lon="9.09182">
        <ele>1417.26</ele>
        <time>2018-08-30T10:45:20Z</time>
      </trkpt>
      <trkpt lat="42.12133" lon="9.09194">
        <ele>1416.23</ele>
        <time>2018-08-30T10:45:34Z</time>
      </trkpt>
      <trkpt lat="42.12132" lon="9.09208">
        <ele>1416.21</ele>
        <time>2018-08-30T10:45:49Z</time>
      </trkpt>
      <trkpt lat="42.12131" lon="9.09218">
        <ele>1414.25</ele>
        <time>2018-08-30T10:46:02Z</time>
      </trkpt>
      <trkpt lat="42.12127" lon="9.09229">
        <ele>1411.72</ele>
        <time>2018-08-30T10:46:17Z</time>
      </trkpt>
      <trkpt lat="42.12125" lon="9.09238">
        <ele>1409.86</ele>
        <time>2018-08-30T10:46:29Z</time>
      </trkpt>
      <trkpt lat="42.12126" lon="9.09246">
        <ele>1409.02</ele>
        <time>2018-08-30T10:46:41Z</time>
      </trkpt>
      <trkpt lat="42.12126" lon="9.09254">
        <ele>1407.98</ele>
        <time>2018-08-30T10:46:55Z</time>
      </trkpt>
      <trkpt lat="42.12127" lon="9.0926">
        <ele>1406.04</ele>
        <time>2018-08-30T10:47:10Z</time>
      </trkpt>
      <trkpt lat="42.12128" lon="9.09264">
        <ele>1404.87</ele>
        <time>2018-08-30T10:47:23Z</time>
      </trkpt>
      <trkpt lat="42.12122" lon="9.09271">
        <ele>1403.58</ele>
        <time>2018-08-30T10:47:38Z</time>
      </trkpt>
      <trkpt lat="42.12121" lon="9.09271">
        <ele>1403.6</ele>
        <time>2018-08-30T10:47:39Z</time>
      </trkpt>
      <trkpt lat="42.1212" lon="9.09274">
        <ele>1403.61</ele>
        <time>2018-08-30T10:47:50Z</time>
      </trkpt>
      <trkpt lat="42.12119" lon="9.09279">
        <ele>1402.56</ele>
        <time>2018-08-30T10:48:05Z</time>
      </trkpt>
      <trkpt lat="42.12115" lon="9.09285">
        <ele>1401.57</ele>
        <time>2018-08-30T10:48:19Z</time>
      </trkpt>
      <trkpt lat="42.12114" lon="9.09289">
        <ele>1400.69</ele>
        <time>2018-08-30T10:48:32Z</time>
      </trkpt>
      <trkpt lat="42.12111" lon="9.09293">
        <ele>1399.95</ele>
        <time>2018-08-30T10:48:48Z</time>
      </trkpt>
      <trkpt lat="42.12109" lon="9.09297">
        <ele>1399.92</ele>
        <time>2018-08-30T10:49:06Z</time>
      </trkpt>
      <trkpt lat="42.12108" lon="9.09299">
        <ele>1399.13</ele>
        <time>2018-08-30T10:49:19Z</time>
      </trkpt>
      <trkpt lat="42.12104" lon="9.09301">
        <ele>1399.11</ele>
        <time>2018-08-30T10:49:35Z</time>
      </trkpt>
      <trkpt lat="42.12105" lon="9.09307">
        <ele>1397.96</ele>
        <time>2018-08-30T10:49:47Z</time>
      </trkpt>
      <trkpt lat="42.12105" lon="9.09314">
        <ele>1395.69</ele>
        <time>2018-08-30T10:50:01Z</time>
      </trkpt>
      <trkpt lat="42.12106" lon="9.09324">
        <ele>1393.82</ele>
        <time>2018-08-30T10:50:16Z</time>
      </trkpt>
      <trkpt lat="42.12103" lon="9.09334">
        <ele>1392.05</ele>
        <time>2018-08-30T10:50:29Z</time>
      </trkpt>
      <trkpt lat="42.121" lon="9.0935">
        <ele>1392.16</ele>
        <time>2018-08-30T10:50:45Z</time>
      </trkpt>
      <trkpt lat="42.12104" lon="9.0935">
        <ele>1392.19</ele>
        <time>2018-08-30T10:50:56Z</time>
      </trkpt>
      <trkpt lat="42.12106" lon="9.09349">
        <ele>1390.51</ele>
        <time>2018-08-30T10:51:11Z</time>
      </trkpt>
      <trkpt lat="42.12107" lon="9.09347">
        <ele>1390.48</ele>
        <time>2018-08-30T10:51:25Z</time>
      </trkpt>
      <trkpt lat="42.12108" lon="9.09342">
        <ele>1390.46</ele>
        <time>2018-08-30T10:51:40Z</time>
      </trkpt>
      <trkpt lat="42.12108" lon="9.09341">
        <ele>1390.4</ele>
        <time>2018-08-30T10:51:58Z</time>
      </trkpt>
      <trkpt lat="42.12107" lon="9.09339">
        <ele>1389.51</ele>
        <time>2018-08-30T10:52:17Z</time>
      </trkpt>
      <trkpt lat="42.12105" lon="9.09342">
        <ele>1389.5</ele>
        <time>2018-08-30T10:52:32Z</time>
      </trkpt>
      <trkpt lat="42.12106" lon="9.09343">
        <ele>1389.4</ele>
        <time>2018-08-30T10:52:50Z</time>
      </trkpt>
      <trkpt lat="42.12106" lon="9.09343">
        <ele>1389.35</ele>
        <time>2018-08-30T10:53:06Z</time>
      </trkpt>
      <trkpt lat="42.12105" lon="9.09343">
        <ele>1389.29</ele>
        <time>2018-08-30T10:53:26Z</time>
      </trkpt>
      <trkpt lat="42.12106" lon="9.09342">
        <ele>1389.21</ele>
        <time>2018-08-30T10:53:36Z</time>
      </trkpt>
      <trkpt lat="42.12106" lon="9.09343">
        <ele>1388.28</ele>
        <time>2018-08-30T10:54:13Z</time>
      </trkpt>
      <trkpt lat="42.12107" lon="9.09344">
        <ele>1391.47</ele>
        <time>2018-08-30T10:54:33Z</time>
      </trkpt>
      <trkpt lat="42.12107" lon="9.09344">
        <ele>1391.44</ele>
        <time>2018-08-30T10:54:34Z</time>
      </trkpt>
      <trkpt lat="42.12106" lon="9.09346">
        <ele>1391.41</ele>
        <time>2018-08-30T10:54:48Z</time>
      </trkpt>
      <trkpt lat="42.12103" lon="9.09349">
        <ele>1391.43</ele>
        <time>2018-08-30T10:55:00Z</time>
      </trkpt>
      <trkpt lat="42.12101" lon="9.09356">
        <ele>1391.42</ele>
        <time>2018-08-30T10:55:07Z</time>
      </trkpt>
      <trkpt lat="42.12103" lon="9.09371">
        <ele>1391.3</ele>
        <time>2018-08-30T10:55:21Z</time>
      </trkpt>
      <trkpt lat="42.12105" lon="9.09379">
        <ele>1388.8</ele>
        <time>2018-08-30T10:55:31Z</time>
      </trkpt>
      <trkpt lat="42.12105" lon="9.09383">
        <ele>1386.22</ele>
        <time>2018-08-30T10:55:39Z</time>
      </trkpt>
      <trkpt lat="42.12106" lon="9.09391">
        <ele>1384.34</ele>
        <time>2018-08-30T10:55:53Z</time>
      </trkpt>
      <trkpt lat="42.12109" lon="9.09401">
        <ele>1383.51</ele>
        <time>2018-08-30T10:56:08Z</time>
      </trkpt>
      <trkpt lat="42.12111" lon="9.09417">
        <ele>1381.6</ele>
        <time>2018-08-30T10:56:24Z</time>
      </trkpt>
      <trkpt lat="42.12111" lon="9.09422">
        <ele>1381.63</ele>
        <time>2018-08-30T10:56:27Z</time>
      </trkpt>
      <trkpt lat="42.12112" lon="9.09438">
        <ele>1381.57</ele>
        <time>2018-08-30T10:56:44Z</time>
      </trkpt>
      <trkpt lat="42.12112" lon="9.09442">
        <ele>1379.91</ele>
        <time>2018-08-30T10:56:50Z</time>
      </trkpt>
      <trkpt lat="42.12102" lon="9.09443">
        <ele>1378.74</ele>
        <time>2018-08-30T10:57:05Z</time>
      </trkpt>
      <trkpt lat="42.12102" lon="9.09444">
        <ele>1377.51</ele>
        <time>2018-08-30T10:57:07Z</time>
      </trkpt>
      <trkpt lat="42.12103" lon="9.09449">
        <ele>1375.22</ele>
        <time>2018-08-30T10:57:16Z</time>
      </trkpt>
      <trkpt lat="42.12102" lon="9.09461">
        <ele>1374.32</ele>
        <time>2018-08-30T10:57:30Z</time>
      </trkpt>
      <trkpt lat="42.12104" lon="9.09465">
        <ele>1371.19</ele>
        <time>2018-08-30T10:57:42Z</time>
      </trkpt>
      <trkpt lat="42.12105" lon="9.09471">
        <ele>1370.35</ele>
        <time>2018-08-30T10:57:53Z</time>
      </trkpt>
      <trkpt lat="42.12107" lon="9.09478">
        <ele>1368.35</ele>
        <time>2018-08-30T10:58:04Z</time>
      </trkpt>
      <trkpt lat="42.12109" lon="9.0948">
        <ele>1366.58</ele>
        <time>2018-08-30T10:58:09Z</time>
      </trkpt>
      <trkpt lat="42.12112" lon="9.09484">
        <ele>1365.63</ele>
        <time>2018-08-30T10:58:21Z</time>
      </trkpt>
      <trkpt lat="42.12112" lon="9.09485">
        <ele>1365.6</ele>
        <time>2018-08-30T10:58:32Z</time>
      </trkpt>
      <trkpt lat="42.12115" lon="9.0949">
        <ele>1364.72</ele>
        <time>2018-08-30T10:58:40Z</time>
      </trkpt>
      <trkpt lat="42.12122" lon="9.095">
        <ele>1362.77</ele>
        <time>2018-08-30T10:58:55Z</time>
      </trkpt>
      <trkpt lat="42.12118" lon="9.09496">
        <ele>1362.6</ele>
        <time>2018-08-30T10:59:26Z</time>
      </trkpt>
      <trkpt lat="42.1212" lon="9.09498">
        <ele>1362.49</ele>
        <time>2018-08-30T10:59:47Z</time>
      </trkpt>
      <trkpt lat="42.12119" lon="9.09498">
        <ele>1362.43</ele>
        <time>2018-08-30T10:59:55Z</time>
      </trkpt>
      <trkpt lat="42.12107" lon="9.09499">
        <ele>1362.37</ele>
        <time>2018-08-30T11:00:07Z</time>
      </trkpt>
      <trkpt lat="42.12089" lon="9.09501">
        <ele>1361.35</ele>
        <time>2018-08-30T11:00:24Z</time>
      </trkpt>
      <trkpt lat="42.12087" lon="9.09504">
        <ele>1361.33</ele>
        <time>2018-08-30T11:00:27Z</time>
      </trkpt>
      <trkpt lat="42.12081" lon="9.09507">
        <ele>1361.3</ele>
        <time>2018-08-30T11:00:33Z</time>
      </trkpt>
      <trkpt lat="42.1208" lon="9.09524">
        <ele>1360.57</ele>
        <time>2018-08-30T11:00:49Z</time>
      </trkpt>
      <trkpt lat="42.12078" lon="9.09531">
        <ele>1359.22</ele>
        <time>2018-08-30T11:00:55Z</time>
      </trkpt>
      <trkpt lat="42.12076" lon="9.09537">
        <ele>1358.13</ele>
        <time>2018-08-30T11:01:08Z</time>
      </trkpt>
      <trkpt lat="42.12076" lon="9.09538">
        <ele>1358.05</ele>
        <time>2018-08-30T11:01:14Z</time>
      </trkpt>
      <trkpt lat="42.12067" lon="9.09553">
        <ele>1357.23</ele>
        <time>2018-08-30T11:01:32Z</time>
      </trkpt>
      <trkpt lat="42.1206" lon="9.09561">
        <ele>1353.75</ele>
        <time>2018-08-30T11:01:45Z</time>
      </trkpt>
      <trkpt lat="42.12059" lon="9.09562">
        <ele>1353.76</ele>
        <time>2018-08-30T11:01:46Z</time>
      </trkpt>
      <trkpt lat="42.1205" lon="9.09569">
        <ele>1351.05</ele>
        <time>2018-08-30T11:01:59Z</time>
      </trkpt>
      <trkpt lat="42.1205" lon="9.09571">
        <ele>1350.11</ele>
        <time>2018-08-30T11:02:01Z</time>
      </trkpt>
      <trkpt lat="42.1205" lon="9.09586">
        <ele>1348.39</ele>
        <time>2018-08-30T11:02:17Z</time>
      </trkpt>
      <trkpt lat="42.12047" lon="9.09581">
        <ele>1348.3</ele>
        <time>2018-08-30T11:02:46Z</time>
      </trkpt>
      <trkpt lat="42.12041" lon="9.09582">
        <ele>1347.49</ele>
        <time>2018-08-30T11:03:00Z</time>
      </trkpt>
      <trkpt lat="42.12041" lon="9.09587">
        <ele>1344.76</ele>
        <time>2018-08-30T11:03:08Z</time>
      </trkpt>
      <trkpt lat="42.1204" lon="9.09591">
        <ele>1341.98</ele>
        <time>2018-08-30T11:03:16Z</time>
      </trkpt>
      <trkpt lat="42.12039" lon="9.09595">
        <ele>1340.55</ele>
        <time>2018-08-30T11:03:26Z</time>
      </trkpt>
      <trkpt lat="42.12038" lon="9.09594">
        <ele>1340.63</ele>
        <time>2018-08-30T11:03:35Z</time>
      </trkpt>
      <trkpt lat="42.12031" lon="9.09593">
        <ele>1340.66</ele>
        <time>2018-08-30T11:03:46Z</time>
      </trkpt>
      <trkpt lat="42.12029" lon="9.09595">
        <ele>1340.64</ele>
        <time>2018-08-30T11:03:49Z</time>
      </trkpt>
      <trkpt lat="42.12023" lon="9.09601">
        <ele>1340.57</ele>
        <time>2018-08-30T11:03:56Z</time>
      </trkpt>
      <trkpt lat="42.12022" lon="9.09604">
        <ele>1340.55</ele>
        <time>2018-08-30T11:03:58Z</time>
      </trkpt>
      <trkpt lat="42.12017" lon="9.09627">
        <ele>1339.55</ele>
        <time>2018-08-30T11:04:14Z</time>
      </trkpt>
      <trkpt lat="42.12013" lon="9.09635">
        <ele>1338.76</ele>
        <time>2018-08-30T11:04:21Z</time>
      </trkpt>
      <trkpt lat="42.12013" lon="9.09642">
        <ele>1338.69</ele>
        <time>2018-08-30T11:04:28Z</time>
      </trkpt>
      <trkpt lat="42.12012" lon="9.09649">
        <ele>1336.15</ele>
        <time>2018-08-30T11:04:33Z</time>
      </trkpt>
      <trkpt lat="42.12009" lon="9.09666">
        <ele>1336.1</ele>
        <time>2018-08-30T11:04:47Z</time>
      </trkpt>
      <trkpt lat="42.12004" lon="9.09678">
        <ele>1335.24</ele>
        <time>2018-08-30T11:05:00Z</time>
      </trkpt>
      <trkpt lat="42.12002" lon="9.09687">
        <ele>1335.21</ele>
        <time>2018-08-30T11:05:09Z</time>
      </trkpt>
      <trkpt lat="42.11999" lon="9.09693">
        <ele>1332.99</ele>
        <time>2018-08-30T11:05:19Z</time>
      </trkpt>
      <trkpt lat="42.11999" lon="9.09694">
        <ele>1332.97</ele>
        <time>2018-08-30T11:05:25Z</time>
      </trkpt>
      <trkpt lat="42.11995" lon="9.09708">
        <ele>1332.98</ele>
        <time>2018-08-30T11:05:38Z</time>
      </trkpt>
      <trkpt lat="42.11992" lon="9.09714">
        <ele>1335.25</ele>
        <time>2018-08-30T11:05:42Z</time>
      </trkpt>
      <trkpt lat="42.11988" lon="9.09727">
        <ele>1335.21</ele>
        <time>2018-08-30T11:05:50Z</time>
      </trkpt>
      <trkpt lat="42.11985" lon="9.09738">
        <ele>1335.17</ele>
        <time>2018-08-30T11:05:58Z</time>
      </trkpt>
      <trkpt lat="42.11979" lon="9.09743">
        <ele>1337.05</ele>
        <time>2018-08-30T11:06:08Z</time>
      </trkpt>
      <trkpt lat="42.11974" lon="9.09747">
        <ele>1336.98</ele>
        <time>2018-08-30T11:06:14Z</time>
      </trkpt>
      <trkpt lat="42.11972" lon="9.09761">
        <ele>1334.47</ele>
        <time>2018-08-30T11:06:25Z</time>
      </trkpt>
      <trkpt lat="42.11973" lon="9.09768">
        <ele>1333.33</ele>
        <time>2018-08-30T11:06:41Z</time>
      </trkpt>
      <trkpt lat="42.11973" lon="9.09778">
        <ele>1332.1</ele>
        <time>2018-08-30T11:06:54Z</time>
      </trkpt>
      <trkpt lat="42.11971" lon="9.09789">
        <ele>1331.26</ele>
        <time>2018-08-30T11:07:12Z</time>
      </trkpt>
      <trkpt lat="42.11971" lon="9.09796">
        <ele>1330.11</ele>
        <time>2018-08-30T11:07:36Z</time>
      </trkpt>
      <trkpt lat="42.11971" lon="9.09798">
        <ele>1328.64</ele>
        <time>2018-08-30T11:07:38Z</time>
      </trkpt>
      <trkpt lat="42.11968" lon="9.0981">
        <ele>1326.81</ele>
        <time>2018-08-30T11:07:52Z</time>
      </trkpt>
      <trkpt lat="42.11963" lon="9.0981">
        <ele>1324.29</ele>
        <time>2018-08-30T11:08:07Z</time>
      </trkpt>
      <trkpt lat="42.1196" lon="9.09813">
        <ele>1323.42</ele>
        <time>2018-08-30T11:08:21Z</time>
      </trkpt>
      <trkpt lat="42.11957" lon="9.09816">
        <ele>1322.59</ele>
        <time>2018-08-30T11:08:26Z</time>
      </trkpt>
      <trkpt lat="42.11953" lon="9.0982">
        <ele>1319.85</ele>
        <time>2018-08-30T11:08:38Z</time>
      </trkpt>
      <trkpt lat="42.11953" lon="9.09823">
        <ele>1319.06</ele>
        <time>2018-08-30T11:08:53Z</time>
      </trkpt>
      <trkpt lat="42.11949" lon="9.09823">
        <ele>1317.2</ele>
        <time>2018-08-30T11:09:13Z</time>
      </trkpt>
      <trkpt lat="42.11951" lon="9.0983">
        <ele>1316.34</ele>
        <time>2018-08-30T11:09:25Z</time>
      </trkpt>
      <trkpt lat="42.11948" lon="9.09836">
        <ele>1313.63</ele>
        <time>2018-08-30T11:09:37Z</time>
      </trkpt>
      <trkpt lat="42.11942" lon="9.09839">
        <ele>1313.6</ele>
        <time>2018-08-30T11:09:51Z</time>
      </trkpt>
      <trkpt lat="42.1194" lon="9.09842">
        <ele>1311.38</ele>
        <time>2018-08-30T11:09:57Z</time>
      </trkpt>
      <trkpt lat="42.11941" lon="9.09846">
        <ele>1309</ele>
        <time>2018-08-30T11:10:10Z</time>
      </trkpt>
      <trkpt lat="42.11942" lon="9.09847">
        <ele>1309.01</ele>
        <time>2018-08-30T11:10:11Z</time>
      </trkpt>
      <trkpt lat="42.11946" lon="9.0985">
        <ele>1308.94</ele>
        <time>2018-08-30T11:10:22Z</time>
      </trkpt>
      <trkpt lat="42.11947" lon="9.09855">
        <ele>1307.15</ele>
        <time>2018-08-30T11:10:37Z</time>
      </trkpt>
      <trkpt lat="42.11946" lon="9.09862">
        <ele>1305.92</ele>
        <time>2018-08-30T11:10:51Z</time>
      </trkpt>
      <trkpt lat="42.11942" lon="9.09868">
        <ele>1303.09</ele>
        <time>2018-08-30T11:11:05Z</time>
      </trkpt>
      <trkpt lat="42.11943" lon="9.09877">
        <ele>1301.19</ele>
        <time>2018-08-30T11:11:16Z</time>
      </trkpt>
      <trkpt lat="42.11939" lon="9.09887">
        <ele>1299.02</ele>
        <time>2018-08-30T11:11:29Z</time>
      </trkpt>
      <trkpt lat="42.11937" lon="9.09892">
        <ele>1298.23</ele>
        <time>2018-08-30T11:11:43Z</time>
      </trkpt>
      <trkpt lat="42.11936" lon="9.09895">
        <ele>1297.32</ele>
        <time>2018-08-30T11:11:55Z</time>
      </trkpt>
      <trkpt lat="42.11935" lon="9.09895">
        <ele>1297.32</ele>
        <time>2018-08-30T11:11:56Z</time>
      </trkpt>
      <trkpt lat="42.11926" lon="9.099">
        <ele>1296.44</ele>
        <time>2018-08-30T11:12:07Z</time>
      </trkpt>
      <trkpt lat="42.11923" lon="9.09904">
        <ele>1294.93</ele>
        <time>2018-08-30T11:12:13Z</time>
      </trkpt>
      <trkpt lat="42.11921" lon="9.09915">
        <ele>1293.69</ele>
        <time>2018-08-30T11:12:27Z</time>
      </trkpt>
      <trkpt lat="42.11923" lon="9.09929">
        <ele>1291.66</ele>
        <time>2018-08-30T11:12:41Z</time>
      </trkpt>
      <trkpt lat="42.1192" lon="9.09938">
        <ele>1290.02</ele>
        <time>2018-08-30T11:12:53Z</time>
      </trkpt>
      <trkpt lat="42.11917" lon="9.09949">
        <ele>1289.13</ele>
        <time>2018-08-30T11:13:07Z</time>
      </trkpt>
      <trkpt lat="42.11916" lon="9.0995">
        <ele>1289.15</ele>
        <time>2018-08-30T11:13:09Z</time>
      </trkpt>
      <trkpt lat="42.1191" lon="9.09965">
        <ele>1288.11</ele>
        <time>2018-08-30T11:13:26Z</time>
      </trkpt>
      <trkpt lat="42.11911" lon="9.09977">
        <ele>1287.29</ele>
        <time>2018-08-30T11:13:40Z</time>
      </trkpt>
      <trkpt lat="42.11912" lon="9.09981">
        <ele>1287.2</ele>
        <time>2018-08-30T11:13:51Z</time>
      </trkpt>
      <trkpt lat="42.1191" lon="9.09988">
        <ele>1287.17</ele>
        <time>2018-08-30T11:14:03Z</time>
      </trkpt>
      <trkpt lat="42.11903" lon="9.09987">
        <ele>1287.15</ele>
        <time>2018-08-30T11:14:14Z</time>
      </trkpt>
      <trkpt lat="42.11896" lon="9.09991">
        <ele>1287.05</ele>
        <time>2018-08-30T11:14:25Z</time>
      </trkpt>
      <trkpt lat="42.11893" lon="9.1">
        <ele>1285.07</ele>
        <time>2018-08-30T11:14:36Z</time>
      </trkpt>
      <trkpt lat="42.11894" lon="9.10003">
        <ele>1285.07</ele>
        <time>2018-08-30T11:14:38Z</time>
      </trkpt>
      <trkpt lat="42.11895" lon="9.10009">
        <ele>1282.89</ele>
        <time>2018-08-30T11:14:44Z</time>
      </trkpt>
      <trkpt lat="42.11891" lon="9.10018">
        <ele>1281.88</ele>
        <time>2018-08-30T11:14:58Z</time>
      </trkpt>
      <trkpt lat="42.11892" lon="9.10022">
        <ele>1279.74</ele>
        <time>2018-08-30T11:15:03Z</time>
      </trkpt>
      <trkpt lat="42.11895" lon="9.10026">
        <ele>1277.68</ele>
        <time>2018-08-30T11:15:17Z</time>
      </trkpt>
      <trkpt lat="42.11897" lon="9.1003">
        <ele>1275.7</ele>
        <time>2018-08-30T11:15:30Z</time>
      </trkpt>
      <trkpt lat="42.11899" lon="9.10035">
        <ele>1273.76</ele>
        <time>2018-08-30T11:15:43Z</time>
      </trkpt>
      <trkpt lat="42.11894" lon="9.10036">
        <ele>1272.81</ele>
        <time>2018-08-30T11:15:55Z</time>
      </trkpt>
      <trkpt lat="42.11893" lon="9.10038">
        <ele>1271.68</ele>
        <time>2018-08-30T11:15:59Z</time>
      </trkpt>
      <trkpt lat="42.11889" lon="9.10039">
        <ele>1270.28</ele>
        <time>2018-08-30T11:16:04Z</time>
      </trkpt>
      <trkpt lat="42.11884" lon="9.10045">
        <ele>1269.31</ele>
        <time>2018-08-30T11:16:21Z</time>
      </trkpt>
      <trkpt lat="42.11879" lon="9.10056">
        <ele>1269.26</ele>
        <time>2018-08-30T11:16:33Z</time>
      </trkpt>
      <trkpt lat="42.11883" lon="9.10068">
        <ele>1269.16</ele>
        <time>2018-08-30T11:16:47Z</time>
      </trkpt>
      <trkpt lat="42.11887" lon="9.10077">
        <ele>1269.09</ele>
        <time>2018-08-30T11:16:55Z</time>
      </trkpt>
      <trkpt lat="42.11887" lon="9.10086">
        <ele>1269.07</ele>
        <time>2018-08-30T11:17:01Z</time>
      </trkpt>
      <trkpt lat="42.11896" lon="9.10099">
        <ele>1269</ele>
        <time>2018-08-30T11:17:17Z</time>
      </trkpt>
      <trkpt lat="42.11899" lon="9.10102">
        <ele>1267.3</ele>
        <time>2018-08-30T11:17:24Z</time>
      </trkpt>
      <trkpt lat="42.11903" lon="9.10106">
        <ele>1267.3</ele>
        <time>2018-08-30T11:17:30Z</time>
      </trkpt>
      <trkpt lat="42.11907" lon="9.10117">
        <ele>1266.3</ele>
        <time>2018-08-30T11:17:43Z</time>
      </trkpt>
      <trkpt lat="42.11909" lon="9.10127">
        <ele>1264.76</ele>
        <time>2018-08-30T11:17:53Z</time>
      </trkpt>
      <trkpt lat="42.11917" lon="9.10142">
        <ele>1263.8</ele>
        <time>2018-08-30T11:18:08Z</time>
      </trkpt>
      <trkpt lat="42.11925" lon="9.10142">
        <ele>1262.81</ele>
        <time>2018-08-30T11:18:20Z</time>
      </trkpt>
      <trkpt lat="42.11924" lon="9.10141">
        <ele>1262.77</ele>
        <time>2018-08-30T11:18:43Z</time>
      </trkpt>
      <trkpt lat="42.11925" lon="9.10143">
        <ele>1261.96</ele>
        <time>2018-08-30T11:19:07Z</time>
      </trkpt>
      <trkpt lat="42.11925" lon="9.10149">
        <ele>1261.96</ele>
        <time>2018-08-30T11:19:20Z</time>
      </trkpt>
      <trkpt lat="42.11929" lon="9.10144">
        <ele>1261.97</ele>
        <time>2018-08-30T11:19:39Z</time>
      </trkpt>
      <trkpt lat="42.11932" lon="9.10152">
        <ele>1261.96</ele>
        <time>2018-08-30T11:19:49Z</time>
      </trkpt>
      <trkpt lat="42.11938" lon="9.10159">
        <ele>1260.22</ele>
        <time>2018-08-30T11:20:02Z</time>
      </trkpt>
      <trkpt lat="42.11939" lon="9.1016">
        <ele>1260.22</ele>
        <time>2018-08-30T11:20:04Z</time>
      </trkpt>
      <trkpt lat="42.11947" lon="9.10175">
        <ele>1259.41</ele>
        <time>2018-08-30T11:20:19Z</time>
      </trkpt>
      <trkpt lat="42.11948" lon="9.10177">
        <ele>1259.4</ele>
        <time>2018-08-30T11:20:21Z</time>
      </trkpt>
      <trkpt lat="42.1195" lon="9.10192">
        <ele>1258.52</ele>
        <time>2018-08-30T11:20:35Z</time>
      </trkpt>
      <trkpt lat="42.1195" lon="9.10196">
        <ele>1261.14</ele>
        <time>2018-08-30T11:20:38Z</time>
      </trkpt>
      <trkpt lat="42.11951" lon="9.102">
        <ele>1261.12</ele>
        <time>2018-08-30T11:20:41Z</time>
      </trkpt>
      <trkpt lat="42.1195" lon="9.10204">
        <ele>1258.81</ele>
        <time>2018-08-30T11:20:44Z</time>
      </trkpt>
      <trkpt lat="42.11952" lon="9.10219">
        <ele>1255.63</ele>
        <time>2018-08-30T11:20:56Z</time>
      </trkpt>
      <trkpt lat="42.11951" lon="9.10229">
        <ele>1255.07</ele>
        <time>2018-08-30T11:21:03Z</time>
      </trkpt>
      <trkpt lat="42.11947" lon="9.10245">
        <ele>1254.98</ele>
        <time>2018-08-30T11:21:14Z</time>
      </trkpt>
      <trkpt lat="42.11943" lon="9.10257">
        <ele>1254.99</ele>
        <time>2018-08-30T11:21:25Z</time>
      </trkpt>
      <trkpt lat="42.11943" lon="9.10268">
        <ele>1253.91</ele>
        <time>2018-08-30T11:21:33Z</time>
      </trkpt>
      <trkpt lat="42.11938" lon="9.10278">
        <ele>1253.86</ele>
        <time>2018-08-30T11:21:44Z</time>
      </trkpt>
      <trkpt lat="42.11935" lon="9.1029">
        <ele>1253.86</ele>
        <time>2018-08-30T11:21:56Z</time>
      </trkpt>
      <trkpt lat="42.11934" lon="9.10297">
        <ele>1253.83</ele>
        <time>2018-08-30T11:22:09Z</time>
      </trkpt>
      <trkpt lat="42.11935" lon="9.10304">
        <ele>1253.81</ele>
        <time>2018-08-30T11:22:20Z</time>
      </trkpt>
      <trkpt lat="42.11936" lon="9.10313">
        <ele>1253.74</ele>
        <time>2018-08-30T11:22:32Z</time>
      </trkpt>
      <trkpt lat="42.11936" lon="9.10317">
        <ele>1253.73</ele>
        <time>2018-08-30T11:22:37Z</time>
      </trkpt>
      <trkpt lat="42.11934" lon="9.10329">
        <ele>1252.52</ele>
        <time>2018-08-30T11:22:50Z</time>
      </trkpt>
      <trkpt lat="42.11935" lon="9.10338">
        <ele>1252.59</ele>
        <time>2018-08-30T11:23:00Z</time>
      </trkpt>
      <trkpt lat="42.11938" lon="9.1035">
        <ele>1250.39</ele>
        <time>2018-08-30T11:23:13Z</time>
      </trkpt>
      <trkpt lat="42.11938" lon="9.1036">
        <ele>1249.4</ele>
        <time>2018-08-30T11:23:23Z</time>
      </trkpt>
      <trkpt lat="42.11939" lon="9.10379">
        <ele>1251.89</ele>
        <time>2018-08-30T11:23:39Z</time>
      </trkpt>
      <trkpt lat="42.1194" lon="9.1039">
        <ele>1251.65</ele>
        <time>2018-08-30T11:23:52Z</time>
      </trkpt>
      <trkpt lat="42.11938" lon="9.10405">
        <ele>1251.7</ele>
        <time>2018-08-30T11:24:06Z</time>
      </trkpt>
      <trkpt lat="42.11938" lon="9.10416">
        <ele>1249.3</ele>
        <time>2018-08-30T11:24:18Z</time>
      </trkpt>
      <trkpt lat="42.11936" lon="9.10425">
        <ele>1249.32</ele>
        <time>2018-08-30T11:24:29Z</time>
      </trkpt>
      <trkpt lat="42.11935" lon="9.10432">
        <ele>1251.97</ele>
        <time>2018-08-30T11:24:42Z</time>
      </trkpt>
      <trkpt lat="42.11934" lon="9.10438">
        <ele>1251.79</ele>
        <time>2018-08-30T11:24:57Z</time>
      </trkpt>
      <trkpt lat="42.11932" lon="9.10444">
        <ele>1251.67</ele>
        <time>2018-08-30T11:25:09Z</time>
      </trkpt>
      <trkpt lat="42.11934" lon="9.1045">
        <ele>1248.87</ele>
        <time>2018-08-30T11:25:19Z</time>
      </trkpt>
      <trkpt lat="42.11938" lon="9.10465">
        <ele>1248.05</ele>
        <time>2018-08-30T11:25:33Z</time>
      </trkpt>
      <trkpt lat="42.11939" lon="9.10475">
        <ele>1250.89</ele>
        <time>2018-08-30T11:25:44Z</time>
      </trkpt>
      <trkpt lat="42.1194" lon="9.10483">
        <ele>1250.77</ele>
        <time>2018-08-30T11:25:58Z</time>
      </trkpt>
      <trkpt lat="42.11939" lon="9.10486">
        <ele>1251.45</ele>
        <time>2018-08-30T11:26:12Z</time>
      </trkpt>
      <trkpt lat="42.11934" lon="9.10487">
        <ele>1252.4</ele>
        <time>2018-08-30T11:26:25Z</time>
      </trkpt>
      <trkpt lat="42.11932" lon="9.1049">
        <ele>1254.82</ele>
        <time>2018-08-30T11:26:43Z</time>
      </trkpt>
      <trkpt lat="42.11928" lon="9.10494">
        <ele>1254.78</ele>
        <time>2018-08-30T11:26:54Z</time>
      </trkpt>
      <trkpt lat="42.11929" lon="9.10504">
        <ele>1254.55</ele>
        <time>2018-08-30T11:27:08Z</time>
      </trkpt>
      <trkpt lat="42.11929" lon="9.10506">
        <ele>1252.07</ele>
        <time>2018-08-30T11:27:11Z</time>
      </trkpt>
      <trkpt lat="42.11928" lon="9.1051">
        <ele>1252</ele>
        <time>2018-08-30T11:27:16Z</time>
      </trkpt>
      <trkpt lat="42.11927" lon="9.10514">
        <ele>1252.11</ele>
        <time>2018-08-30T11:27:20Z</time>
      </trkpt>
      <trkpt lat="42.11925" lon="9.10524">
        <ele>1251.29</ele>
        <time>2018-08-30T11:27:33Z</time>
      </trkpt>
      <trkpt lat="42.11922" lon="9.10533">
        <ele>1251.27</ele>
        <time>2018-08-30T11:27:46Z</time>
      </trkpt>
      <trkpt lat="42.11919" lon="9.10544">
        <ele>1251.14</ele>
        <time>2018-08-30T11:28:01Z</time>
      </trkpt>
      <trkpt lat="42.11918" lon="9.10547">
        <ele>1250.23</ele>
        <time>2018-08-30T11:28:04Z</time>
      </trkpt>
      <trkpt lat="42.11913" lon="9.10561">
        <ele>1248.36</ele>
        <time>2018-08-30T11:28:17Z</time>
      </trkpt>
      <trkpt lat="42.11911" lon="9.10565">
        <ele>1248.38</ele>
        <time>2018-08-30T11:28:29Z</time>
      </trkpt>
      <trkpt lat="42.11904" lon="9.1058">
        <ele>1247.47</ele>
        <time>2018-08-30T11:28:44Z</time>
      </trkpt>
      <trkpt lat="42.11905" lon="9.10588">
        <ele>1246.38</ele>
        <time>2018-08-30T11:28:54Z</time>
      </trkpt>
      <trkpt lat="42.11904" lon="9.10591">
        <ele>1245.11</ele>
        <time>2018-08-30T11:28:57Z</time>
      </trkpt>
      <trkpt lat="42.11904" lon="9.10598">
        <ele>1242.68</ele>
        <time>2018-08-30T11:29:10Z</time>
      </trkpt>
      <trkpt lat="42.11901" lon="9.10601">
        <ele>1241.86</ele>
        <time>2018-08-30T11:29:27Z</time>
      </trkpt>
      <trkpt lat="42.11901" lon="9.10607">
        <ele>1239.38</ele>
        <time>2018-08-30T11:29:41Z</time>
      </trkpt>
      <trkpt lat="42.11902" lon="9.10609">
        <ele>1237.64</ele>
        <time>2018-08-30T11:29:55Z</time>
      </trkpt>
      <trkpt lat="42.11904" lon="9.10613">
        <ele>1235.95</ele>
        <time>2018-08-30T11:30:08Z</time>
      </trkpt>
      <trkpt lat="42.11905" lon="9.10616">
        <ele>1233.68</ele>
        <time>2018-08-30T11:30:17Z</time>
      </trkpt>
      <trkpt lat="42.11909" lon="9.10617">
        <ele>1232.58</ele>
        <time>2018-08-30T11:30:30Z</time>
      </trkpt>
      <trkpt lat="42.11913" lon="9.10615">
        <ele>1230.03</ele>
        <time>2018-08-30T11:30:44Z</time>
      </trkpt>
      <trkpt lat="42.11914" lon="9.10621">
        <ele>1228.45</ele>
        <time>2018-08-30T11:30:59Z</time>
      </trkpt>
      <trkpt lat="42.11913" lon="9.10624">
        <ele>1225.78</ele>
        <time>2018-08-30T11:31:03Z</time>
      </trkpt>
      <trkpt lat="42.11912" lon="9.1063">
        <ele>1225.75</ele>
        <time>2018-08-30T11:31:11Z</time>
      </trkpt>
      <trkpt lat="42.11909" lon="9.10634">
        <ele>1225.76</ele>
        <time>2018-08-30T11:31:15Z</time>
      </trkpt>
      <trkpt lat="42.11906" lon="9.10646">
        <ele>1225.81</ele>
        <time>2018-08-30T11:31:27Z</time>
      </trkpt>
      <trkpt lat="42.11899" lon="9.10659">
        <ele>1228.21</ele>
        <time>2018-08-30T11:31:42Z</time>
      </trkpt>
      <trkpt lat="42.11891" lon="9.10673">
        <ele>1228.06</ele>
        <time>2018-08-30T11:31:56Z</time>
      </trkpt>
      <trkpt lat="42.11885" lon="9.10681">
        <ele>1225.42</ele>
        <time>2018-08-30T11:32:06Z</time>
      </trkpt>
      <trkpt lat="42.11882" lon="9.10686">
        <ele>1225.4</ele>
        <time>2018-08-30T11:32:12Z</time>
      </trkpt>
      <trkpt lat="42.1188" lon="9.10688">
        <ele>1224.05</ele>
        <time>2018-08-30T11:32:14Z</time>
      </trkpt>
      <trkpt lat="42.11875" lon="9.10697">
        <ele>1223.12</ele>
        <time>2018-08-30T11:32:26Z</time>
      </trkpt>
      <trkpt lat="42.11875" lon="9.10705">
        <ele>1220.06</ele>
        <time>2018-08-30T11:32:36Z</time>
      </trkpt>
      <trkpt lat="42.11867" lon="9.10706">
        <ele>1218.2</ele>
        <time>2018-08-30T11:32:49Z</time>
      </trkpt>
      <trkpt lat="42.11865" lon="9.10706">
        <ele>1218.2</ele>
        <time>2018-08-30T11:32:54Z</time>
      </trkpt>
      <trkpt lat="42.11857" lon="9.10705">
        <ele>1217.28</ele>
        <time>2018-08-30T11:33:09Z</time>
      </trkpt>
      <trkpt lat="42.11853" lon="9.10711">
        <ele>1215.3</ele>
        <time>2018-08-30T11:33:22Z</time>
      </trkpt>
      <trkpt lat="42.11856" lon="9.10717">
        <ele>1213.53</ele>
        <time>2018-08-30T11:33:34Z</time>
      </trkpt>
      <trkpt lat="42.11855" lon="9.10722">
        <ele>1211.34</ele>
        <time>2018-08-30T11:33:46Z</time>
      </trkpt>
      <trkpt lat="42.11853" lon="9.10727">
        <ele>1209.08</ele>
        <time>2018-08-30T11:33:59Z</time>
      </trkpt>
      <trkpt lat="42.11849" lon="9.10736">
        <ele>1208</ele>
        <time>2018-08-30T11:34:12Z</time>
      </trkpt>
      <trkpt lat="42.11848" lon="9.10737">
        <ele>1206.1</ele>
        <time>2018-08-30T11:34:14Z</time>
      </trkpt>
      <trkpt lat="42.11846" lon="9.1074">
        <ele>1205.29</ele>
        <time>2018-08-30T11:34:18Z</time>
      </trkpt>
      <trkpt lat="42.11844" lon="9.10741">
        <ele>1205.33</ele>
        <time>2018-08-30T11:34:20Z</time>
      </trkpt>
      <trkpt lat="42.11842" lon="9.10742">
        <ele>1205.34</ele>
        <time>2018-08-30T11:34:22Z</time>
      </trkpt>
      <trkpt lat="42.11831" lon="9.10742">
        <ele>1204.35</ele>
        <time>2018-08-30T11:34:35Z</time>
      </trkpt>
      <trkpt lat="42.11824" lon="9.10747">
        <ele>1203.4</ele>
        <time>2018-08-30T11:34:47Z</time>
      </trkpt>
      <trkpt lat="42.1182" lon="9.10758">
        <ele>1202.49</ele>
        <time>2018-08-30T11:34:59Z</time>
      </trkpt>
      <trkpt lat="42.11814" lon="9.10767">
        <ele>1200.62</ele>
        <time>2018-08-30T11:35:12Z</time>
      </trkpt>
      <trkpt lat="42.11808" lon="9.10773">
        <ele>1198.27</ele>
        <time>2018-08-30T11:35:22Z</time>
      </trkpt>
      <trkpt lat="42.11803" lon="9.10777">
        <ele>1197.35</ele>
        <time>2018-08-30T11:35:35Z</time>
      </trkpt>
      <trkpt lat="42.118" lon="9.10782">
        <ele>1195.05</ele>
        <time>2018-08-30T11:35:44Z</time>
      </trkpt>
      <trkpt lat="42.118" lon="9.10784">
        <ele>1195.05</ele>
        <time>2018-08-30T11:35:46Z</time>
      </trkpt>
      <trkpt lat="42.11806" lon="9.10787">
        <ele>1193.33</ele>
        <time>2018-08-30T11:36:00Z</time>
      </trkpt>
      <trkpt lat="42.11803" lon="9.10795">
        <ele>1190.33</ele>
        <time>2018-08-30T11:36:12Z</time>
      </trkpt>
      <trkpt lat="42.11798" lon="9.10798">
        <ele>1187.31</ele>
        <time>2018-08-30T11:36:24Z</time>
      </trkpt>
      <trkpt lat="42.11791" lon="9.108">
        <ele>1186.44</ele>
        <time>2018-08-30T11:36:38Z</time>
      </trkpt>
      <trkpt lat="42.1179" lon="9.10805">
        <ele>1184.61</ele>
        <time>2018-08-30T11:36:52Z</time>
      </trkpt>
      <trkpt lat="42.11789" lon="9.10808">
        <ele>1183.54</ele>
        <time>2018-08-30T11:37:05Z</time>
      </trkpt>
      <trkpt lat="42.11788" lon="9.1081">
        <ele>1180.57</ele>
        <time>2018-08-30T11:37:19Z</time>
      </trkpt>
      <trkpt lat="42.11787" lon="9.10814">
        <ele>1180.58</ele>
        <time>2018-08-30T11:37:31Z</time>
      </trkpt>
      <trkpt lat="42.11789" lon="9.10815">
        <ele>1179.65</ele>
        <time>2018-08-30T11:37:44Z</time>
      </trkpt>
      <trkpt lat="42.11791" lon="9.10815">
        <ele>1178.79</ele>
        <time>2018-08-30T11:37:55Z</time>
      </trkpt>
      <trkpt lat="42.11791" lon="9.10816">
        <ele>1178.75</ele>
        <time>2018-08-30T11:38:09Z</time>
      </trkpt>
      <trkpt lat="42.1179" lon="9.10816">
        <ele>1176.35</ele>
        <time>2018-08-30T11:38:29Z</time>
      </trkpt>
      <trkpt lat="42.11789" lon="9.10819">
        <ele>1175.49</ele>
        <time>2018-08-30T11:38:45Z</time>
      </trkpt>
      <trkpt lat="42.11788" lon="9.1082">
        <ele>1174.04</ele>
        <time>2018-08-30T11:38:48Z</time>
      </trkpt>
      <trkpt lat="42.11786" lon="9.10826">
        <ele>1172.01</ele>
        <time>2018-08-30T11:39:00Z</time>
      </trkpt>
      <trkpt lat="42.11787" lon="9.10832">
        <ele>1170.17</ele>
        <time>2018-08-30T11:39:15Z</time>
      </trkpt>
      <trkpt lat="42.11783" lon="9.10831">
        <ele>1168.27</ele>
        <time>2018-08-30T11:39:27Z</time>
      </trkpt>
      <trkpt lat="42.11782" lon="9.10834">
        <ele>1167.3</ele>
        <time>2018-08-30T11:39:41Z</time>
      </trkpt>
      <trkpt lat="42.11782" lon="9.10837">
        <ele>1165.54</ele>
        <time>2018-08-30T11:39:56Z</time>
      </trkpt>
      <trkpt lat="42.11783" lon="9.10843">
        <ele>1164.36</ele>
        <time>2018-08-30T11:40:15Z</time>
      </trkpt>
      <trkpt lat="42.1178" lon="9.10844">
        <ele>1162.09</ele>
        <time>2018-08-30T11:40:31Z</time>
      </trkpt>
      <trkpt lat="42.11772" lon="9.10844">
        <ele>1160.75</ele>
        <time>2018-08-30T11:40:43Z</time>
      </trkpt>
      <trkpt lat="42.11771" lon="9.10845">
        <ele>1160.73</ele>
        <time>2018-08-30T11:41:03Z</time>
      </trkpt>
      <trkpt lat="42.11768" lon="9.10845">
        <ele>1159.47</ele>
        <time>2018-08-30T11:41:23Z</time>
      </trkpt>
      <trkpt lat="42.11771" lon="9.10852">
        <ele>1157.74</ele>
        <time>2018-08-30T11:41:36Z</time>
      </trkpt>
      <trkpt lat="42.1177" lon="9.10857">
        <ele>1156.73</ele>
        <time>2018-08-30T11:41:51Z</time>
      </trkpt>
      <trkpt lat="42.11776" lon="9.10867">
        <ele>1153.82</ele>
        <time>2018-08-30T11:42:07Z</time>
      </trkpt>
      <trkpt lat="42.11777" lon="9.10876">
        <ele>1151.81</ele>
        <time>2018-08-30T11:42:21Z</time>
      </trkpt>
      <trkpt lat="42.11781" lon="9.10881">
        <ele>1150.75</ele>
        <time>2018-08-30T11:42:32Z</time>
      </trkpt>
      <trkpt lat="42.1179" lon="9.10883">
        <ele>1149.81</ele>
        <time>2018-08-30T11:42:46Z</time>
      </trkpt>
      <trkpt lat="42.11793" lon="9.10877">
        <ele>1152.04</ele>
        <time>2018-08-30T11:43:00Z</time>
      </trkpt>
      <trkpt lat="42.11794" lon="9.10877">
        <ele>1152.02</ele>
        <time>2018-08-30T11:43:01Z</time>
      </trkpt>
      <trkpt lat="42.118" lon="9.10885">
        <ele>1152.02</ele>
        <time>2018-08-30T11:43:12Z</time>
      </trkpt>
      <trkpt lat="42.11808" lon="9.10895">
        <ele>1151.92</ele>
        <time>2018-08-30T11:43:26Z</time>
      </trkpt>
      <trkpt lat="42.1181" lon="9.10898">
        <ele>1151.86</ele>
        <time>2018-08-30T11:43:43Z</time>
      </trkpt>
      <trkpt lat="42.11807" lon="9.10895">
        <ele>1151.84</ele>
        <time>2018-08-30T11:43:48Z</time>
      </trkpt>
      <trkpt lat="42.118" lon="9.10884">
        <ele>1152.77</ele>
        <time>2018-08-30T11:44:01Z</time>
      </trkpt>
      <trkpt lat="42.11795" lon="9.10879">
        <ele>1152.67</ele>
        <time>2018-08-30T11:44:16Z</time>
      </trkpt>
      <trkpt lat="42.11795" lon="9.10878">
        <ele>1152.61</ele>
        <time>2018-08-30T11:44:35Z</time>
      </trkpt>
      <trkpt lat="42.11792" lon="9.10876">
        <ele>1153.36</ele>
        <time>2018-08-30T11:44:49Z</time>
      </trkpt>
      <trkpt lat="42.11791" lon="9.10878">
        <ele>1153.28</ele>
        <time>2018-08-30T11:45:09Z</time>
      </trkpt>
      <trkpt lat="42.1179" lon="9.10876">
        <ele>1153.23</ele>
        <time>2018-08-30T11:45:24Z</time>
      </trkpt>
      <trkpt lat="42.11792" lon="9.10875">
        <ele>1153.19</ele>
        <time>2018-08-30T11:45:36Z</time>
      </trkpt>
      <trkpt lat="42.1179" lon="9.10874">
        <ele>1153.13</ele>
        <time>2018-08-30T11:45:49Z</time>
      </trkpt>
      <trkpt lat="42.11784" lon="9.10872">
        <ele>1153.08</ele>
        <time>2018-08-30T11:46:01Z</time>
      </trkpt>
      <trkpt lat="42.11782" lon="9.10873">
        <ele>1150.77</ele>
        <time>2018-08-30T11:46:09Z</time>
      </trkpt>
      <trkpt lat="42.11775" lon="9.10877">
        <ele>1149.97</ele>
        <time>2018-08-30T11:46:22Z</time>
      </trkpt>
      <trkpt lat="42.11764" lon="9.10883">
        <ele>1147.27</ele>
        <time>2018-08-30T11:46:36Z</time>
      </trkpt>
      <trkpt lat="42.11763" lon="9.10884">
        <ele>1147.29</ele>
        <time>2018-08-30T11:46:37Z</time>
      </trkpt>
      <trkpt lat="42.11762" lon="9.10885">
        <ele>1147.3</ele>
        <time>2018-08-30T11:46:52Z</time>
      </trkpt>
      <trkpt lat="42.1176" lon="9.10885">
        <ele>1147.25</ele>
        <time>2018-08-30T11:47:11Z</time>
      </trkpt>
      <trkpt lat="42.11756" lon="9.10886">
        <ele>1146.41</ele>
        <time>2018-08-30T11:47:39Z</time>
      </trkpt>
      <trkpt lat="42.11752" lon="9.10892">
        <ele>1144.05</ele>
        <time>2018-08-30T11:47:49Z</time>
      </trkpt>
      <trkpt lat="42.11755" lon="9.10899">
        <ele>1141.42</ele>
        <time>2018-08-30T11:48:01Z</time>
      </trkpt>
      <trkpt lat="42.11754" lon="9.10904">
        <ele>1140</ele>
        <time>2018-08-30T11:48:10Z</time>
      </trkpt>
      <trkpt lat="42.11753" lon="9.10907">
        <ele>1140</ele>
        <time>2018-08-30T11:48:14Z</time>
      </trkpt>
      <trkpt lat="42.11748" lon="9.10914">
        <ele>1138.2</ele>
        <time>2018-08-30T11:48:25Z</time>
      </trkpt>
      <trkpt lat="42.11742" lon="9.1092">
        <ele>1138.2</ele>
        <time>2018-08-30T11:48:40Z</time>
      </trkpt>
      <trkpt lat="42.11738" lon="9.10925">
        <ele>1135.92</ele>
        <time>2018-08-30T11:48:49Z</time>
      </trkpt>
      <trkpt lat="42.11732" lon="9.10932">
        <ele>1134.13</ele>
        <time>2018-08-30T11:49:02Z</time>
      </trkpt>
      <trkpt lat="42.11732" lon="9.10932">
        <ele>1134.14</ele>
        <time>2018-08-30T11:49:03Z</time>
      </trkpt>
      <trkpt lat="42.11729" lon="9.10938">
        <ele>1132.38</ele>
        <time>2018-08-30T11:49:17Z</time>
      </trkpt>
      <trkpt lat="42.11725" lon="9.10944">
        <ele>1131.51</ele>
        <time>2018-08-30T11:49:29Z</time>
      </trkpt>
      <trkpt lat="42.11724" lon="9.10945">
        <ele>1131.52</ele>
        <time>2018-08-30T11:49:31Z</time>
      </trkpt>
      <trkpt lat="42.11721" lon="9.10947">
        <ele>1131.52</ele>
        <time>2018-08-30T11:49:37Z</time>
      </trkpt>
      <trkpt lat="42.11721" lon="9.10951">
        <ele>1130</ele>
        <time>2018-08-30T11:49:41Z</time>
      </trkpt>
      <trkpt lat="42.11721" lon="9.10959">
        <ele>1128.15</ele>
        <time>2018-08-30T11:49:53Z</time>
      </trkpt>
      <trkpt lat="42.11721" lon="9.1096">
        <ele>1128.15</ele>
        <time>2018-08-30T11:49:54Z</time>
      </trkpt>
      <trkpt lat="42.11718" lon="9.10968">
        <ele>1126.85</ele>
        <time>2018-08-30T11:50:03Z</time>
      </trkpt>
      <trkpt lat="42.11714" lon="9.10971">
        <ele>1125.51</ele>
        <time>2018-08-30T11:50:10Z</time>
      </trkpt>
      <trkpt lat="42.11712" lon="9.10972">
        <ele>1125.5</ele>
        <time>2018-08-30T11:50:12Z</time>
      </trkpt>
      <trkpt lat="42.11702" lon="9.10975">
        <ele>1124.32</ele>
        <time>2018-08-30T11:50:26Z</time>
      </trkpt>
      <trkpt lat="42.11698" lon="9.10978">
        <ele>1124.32</ele>
        <time>2018-08-30T11:50:32Z</time>
      </trkpt>
      <trkpt lat="42.11698" lon="9.10992">
        <ele>1122.17</ele>
        <time>2018-08-30T11:50:45Z</time>
      </trkpt>
      <trkpt lat="42.11695" lon="9.10995">
        <ele>1121.18</ele>
        <time>2018-08-30T11:50:51Z</time>
      </trkpt>
      <trkpt lat="42.11689" lon="9.10999">
        <ele>1121.19</ele>
        <time>2018-08-30T11:50:58Z</time>
      </trkpt>
      <trkpt lat="42.11687" lon="9.11">
        <ele>1120.39</ele>
        <time>2018-08-30T11:51:00Z</time>
      </trkpt>
      <trkpt lat="42.11681" lon="9.11003">
        <ele>1120.39</ele>
        <time>2018-08-30T11:51:07Z</time>
      </trkpt>
      <trkpt lat="42.11672" lon="9.1101">
        <ele>1119.58</ele>
        <time>2018-08-30T11:51:18Z</time>
      </trkpt>
      <trkpt lat="42.11671" lon="9.11011">
        <ele>1118.54</ele>
        <time>2018-08-30T11:51:19Z</time>
      </trkpt>
      <trkpt lat="42.11663" lon="9.1102">
        <ele>1117.65</ele>
        <time>2018-08-30T11:51:32Z</time>
      </trkpt>
      <trkpt lat="42.11659" lon="9.11028">
        <ele>1116.56</ele>
        <time>2018-08-30T11:51:41Z</time>
      </trkpt>
      <trkpt lat="42.11659" lon="9.11032">
        <ele>1115.73</ele>
        <time>2018-08-30T11:51:44Z</time>
      </trkpt>
      <trkpt lat="42.11662" lon="9.11042">
        <ele>1114.7</ele>
        <time>2018-08-30T11:51:58Z</time>
      </trkpt>
      <trkpt lat="42.11661" lon="9.11046">
        <ele>1112.66</ele>
        <time>2018-08-30T11:52:11Z</time>
      </trkpt>
      <trkpt lat="42.11657" lon="9.11048">
        <ele>1110.88</ele>
        <time>2018-08-30T11:52:24Z</time>
      </trkpt>
      <trkpt lat="42.11653" lon="9.11049">
        <ele>1109.91</ele>
        <time>2018-08-30T11:52:35Z</time>
      </trkpt>
      <trkpt lat="42.11647" lon="9.11055">
        <ele>1107.85</ele>
        <time>2018-08-30T11:52:51Z</time>
      </trkpt>
      <trkpt lat="42.11639" lon="9.11064">
        <ele>1107.85</ele>
        <time>2018-08-30T11:53:04Z</time>
      </trkpt>
      <trkpt lat="42.11634" lon="9.11071">
        <ele>1106.03</ele>
        <time>2018-08-30T11:53:16Z</time>
      </trkpt>
      <trkpt lat="42.11629" lon="9.11075">
        <ele>1105.99</ele>
        <time>2018-08-30T11:53:31Z</time>
      </trkpt>
      <trkpt lat="42.11624" lon="9.11082">
        <ele>1104.59</ele>
        <time>2018-08-30T11:53:43Z</time>
      </trkpt>
      <trkpt lat="42.11623" lon="9.11083">
        <ele>1104.59</ele>
        <time>2018-08-30T11:53:44Z</time>
      </trkpt>
      <trkpt lat="42.11614" lon="9.11094">
        <ele>1104.56</ele>
        <time>2018-08-30T11:53:58Z</time>
      </trkpt>
      <trkpt lat="42.11611" lon="9.11108">
        <ele>1101.19</ele>
        <time>2018-08-30T11:54:14Z</time>
      </trkpt>
      <trkpt lat="42.11604" lon="9.11126">
        <ele>1101.14</ele>
        <time>2018-08-30T11:54:30Z</time>
      </trkpt>
      <trkpt lat="42.11604" lon="9.11133">
        <ele>1099.49</ele>
        <time>2018-08-30T11:54:45Z</time>
      </trkpt>
      <trkpt lat="42.11603" lon="9.11134">
        <ele>1099.49</ele>
        <time>2018-08-30T11:54:46Z</time>
      </trkpt>
      <trkpt lat="42.11601" lon="9.11137">
        <ele>1099.5</ele>
        <time>2018-08-30T11:54:48Z</time>
      </trkpt>
      <trkpt lat="42.11601" lon="9.11148">
        <ele>1098.65</ele>
        <time>2018-08-30T11:54:56Z</time>
      </trkpt>
      <trkpt lat="42.11603" lon="9.11161">
        <ele>1097.88</ele>
        <time>2018-08-30T11:55:09Z</time>
      </trkpt>
      <trkpt lat="42.11603" lon="9.11164">
        <ele>1096.59</ele>
        <time>2018-08-30T11:55:11Z</time>
      </trkpt>
      <trkpt lat="42.11608" lon="9.11176">
        <ele>1095.79</ele>
        <time>2018-08-30T11:55:23Z</time>
      </trkpt>
      <trkpt lat="42.11612" lon="9.11186">
        <ele>1094.78</ele>
        <time>2018-08-30T11:55:34Z</time>
      </trkpt>
      <trkpt lat="42.11613" lon="9.11191">
        <ele>1094.78</ele>
        <time>2018-08-30T11:55:39Z</time>
      </trkpt>
      <trkpt lat="42.11617" lon="9.11202">
        <ele>1093.9</ele>
        <time>2018-08-30T11:55:51Z</time>
      </trkpt>
      <trkpt lat="42.1162" lon="9.11211">
        <ele>1093.82</ele>
        <time>2018-08-30T11:56:01Z</time>
      </trkpt>
      <trkpt lat="42.11625" lon="9.11221">
        <ele>1091.75</ele>
        <time>2018-08-30T11:56:08Z</time>
      </trkpt>
      <trkpt lat="42.1163" lon="9.1123">
        <ele>1091.76</ele>
        <time>2018-08-30T11:56:20Z</time>
      </trkpt>
      <trkpt lat="42.11632" lon="9.11236">
        <ele>1091.76</ele>
        <time>2018-08-30T11:56:32Z</time>
      </trkpt>
      <trkpt lat="42.11633" lon="9.11247">
        <ele>1091.75</ele>
        <time>2018-08-30T11:56:45Z</time>
      </trkpt>
      <trkpt lat="42.11629" lon="9.11248">
        <ele>1091.74</ele>
        <time>2018-08-30T11:56:59Z</time>
      </trkpt>
      <trkpt lat="42.11629" lon="9.11248">
        <ele>1094.17</ele>
        <time>2018-08-30T11:57:01Z</time>
      </trkpt>
      <trkpt lat="42.11629" lon="9.11247">
        <ele>1094.13</ele>
        <time>2018-08-30T11:57:21Z</time>
      </trkpt>
      <trkpt lat="42.11626" lon="9.11246">
        <ele>1094.03</ele>
        <time>2018-08-30T11:57:42Z</time>
      </trkpt>
      <trkpt lat="42.11632" lon="9.1124">
        <ele>1094.02</ele>
        <time>2018-08-30T11:58:03Z</time>
      </trkpt>
      <trkpt lat="42.11638" lon="9.11235">
        <ele>1093.84</ele>
        <time>2018-08-30T11:58:31Z</time>
      </trkpt>
      <trkpt lat="42.11641" lon="9.11237">
        <ele>1093.46</ele>
        <time>2018-08-30T11:59:06Z</time>
      </trkpt>
      <trkpt lat="42.11642" lon="9.11239">
        <ele>1093.16</ele>
        <time>2018-08-30T11:59:27Z</time>
      </trkpt>
      <trkpt lat="42.11646" lon="9.11236">
        <ele>1092.64</ele>
        <time>2018-08-30T12:00:15Z</time>
      </trkpt>
      <trkpt lat="42.11643" lon="9.11232">
        <ele>1092.13</ele>
        <time>2018-08-30T12:00:53Z</time>
      </trkpt>
      <trkpt lat="42.11641" lon="9.1123">
        <ele>1091.6</ele>
        <time>2018-08-30T12:01:31Z</time>
      </trkpt>
      <trkpt lat="42.11649" lon="9.11228">
        <ele>1091.16</ele>
        <time>2018-08-30T12:01:59Z</time>
      </trkpt>
      <trkpt lat="42.11648" lon="9.11227">
        <ele>1088.37</ele>
        <time>2018-08-30T12:02:13Z</time>
      </trkpt>
      <trkpt lat="42.11654" lon="9.11225">
        <ele>1088.4</ele>
        <time>2018-08-30T12:02:17Z</time>
      </trkpt>
      <trkpt lat="42.11656" lon="9.11228">
        <ele>1087.83</ele>
        <time>2018-08-30T12:02:56Z</time>
      </trkpt>
      <trkpt lat="42.11652" lon="9.11227">
        <ele>1087.36</ele>
        <time>2018-08-30T12:03:35Z</time>
      </trkpt>
      <trkpt lat="42.11651" lon="9.11226">
        <ele>1089.65</ele>
        <time>2018-08-30T12:03:38Z</time>
      </trkpt>
      <trkpt lat="42.11637" lon="9.11234">
        <ele>1089.15</ele>
        <time>2018-08-30T12:04:12Z</time>
      </trkpt>
      <trkpt lat="42.11634" lon="9.11233">
        <ele>1088.46</ele>
        <time>2018-08-30T12:04:56Z</time>
      </trkpt>
      <trkpt lat="42.11633" lon="9.11234">
        <ele>1087.96</ele>
        <time>2018-08-30T12:05:29Z</time>
      </trkpt>
      <trkpt lat="42.11631" lon="9.11234">
        <ele>1087.78</ele>
        <time>2018-08-30T12:05:41Z</time>
      </trkpt>
      <trkpt lat="42.11622" lon="9.11241">
        <ele>1087.11</ele>
        <time>2018-08-30T12:06:25Z</time>
      </trkpt>
      <trkpt lat="42.11626" lon="9.11238">
        <ele>1087.12</ele>
        <time>2018-08-30T12:07:03Z</time>
      </trkpt>
      <trkpt lat="42.11623" lon="9.1124">
        <ele>1082.22</ele>
        <time>2018-08-30T12:07:16Z</time>
      </trkpt>
      <trkpt lat="42.11623" lon="9.11241">
        <ele>1086.98</ele>
        <time>2018-08-30T12:07:17Z</time>
      </trkpt>
      <trkpt lat="42.11621" lon="9.11246">
        <ele>1086.66</ele>
        <time>2018-08-30T12:07:50Z</time>
      </trkpt>
      <trkpt lat="42.11623" lon="9.11252">
        <ele>1085.27</ele>
        <time>2018-08-30T12:08:19Z</time>
      </trkpt>
      <trkpt lat="42.1162" lon="9.1125">
        <ele>1083.75</ele>
        <time>2018-08-30T12:08:35Z</time>
      </trkpt>
      <trkpt lat="42.11617" lon="9.11255">
        <ele>1086.45</ele>
        <time>2018-08-30T12:08:46Z</time>
      </trkpt>
      <trkpt lat="42.11616" lon="9.11255">
        <ele>1084.65</ele>
        <time>2018-08-30T12:08:49Z</time>
      </trkpt>
      <trkpt lat="42.11616" lon="9.11254">
        <ele>1083.09</ele>
        <time>2018-08-30T12:08:52Z</time>
      </trkpt>
      <trkpt lat="42.11617" lon="9.11253">
        <ele>1086.55</ele>
        <time>2018-08-30T12:08:55Z</time>
      </trkpt>
      <trkpt lat="42.11611" lon="9.11243">
        <ele>1082.72</ele>
        <time>2018-08-30T12:09:18Z</time>
      </trkpt>
      <trkpt lat="42.11613" lon="9.1124">
        <ele>1086.45</ele>
        <time>2018-08-30T12:09:30Z</time>
      </trkpt>
      <trkpt lat="42.11612" lon="9.1124">
        <ele>1083.79</ele>
        <time>2018-08-30T12:09:32Z</time>
      </trkpt>
      <trkpt lat="42.11614" lon="9.11237">
        <ele>1083.49</ele>
        <time>2018-08-30T12:09:57Z</time>
      </trkpt>
      <trkpt lat="42.11615" lon="9.11242">
        <ele>1083.04</ele>
        <time>2018-08-30T12:10:33Z</time>
      </trkpt>
      <trkpt lat="42.1162" lon="9.11241">
        <ele>1081.57</ele>
        <time>2018-08-30T12:11:20Z</time>
      </trkpt>
      <trkpt lat="42.11619" lon="9.1124">
        <ele>1081.13</ele>
        <time>2018-08-30T12:11:54Z</time>
      </trkpt>
      <trkpt lat="42.11611" lon="9.11237">
        <ele>1080.77</ele>
        <time>2018-08-30T12:12:20Z</time>
      </trkpt>
      <trkpt lat="42.11607" lon="9.1124">
        <ele>1080.26</ele>
        <time>2018-08-30T12:12:56Z</time>
      </trkpt>
      <trkpt lat="42.11613" lon="9.1125">
        <ele>1079.56</ele>
        <time>2018-08-30T12:13:47Z</time>
      </trkpt>
      <trkpt lat="42.11615" lon="9.11246">
        <ele>1079.07</ele>
        <time>2018-08-30T12:14:23Z</time>
      </trkpt>
      <trkpt lat="42.11616" lon="9.11236">
        <ele>1078.51</ele>
        <time>2018-08-30T12:15:06Z</time>
      </trkpt>
      <trkpt lat="42.11606" lon="9.11246">
        <ele>1078</ele>
        <time>2018-08-30T12:15:41Z</time>
      </trkpt>
      <trkpt lat="42.11613" lon="9.11249">
        <ele>1077.57</ele>
        <time>2018-08-30T12:16:21Z</time>
      </trkpt>
      <trkpt lat="42.11617" lon="9.11243">
        <ele>1076.58</ele>
        <time>2018-08-30T12:17:36Z</time>
      </trkpt>
      <trkpt lat="42.11613" lon="9.11239">
        <ele>1076.2</ele>
        <time>2018-08-30T12:18:09Z</time>
      </trkpt>
      <trkpt lat="42.11612" lon="9.11236">
        <ele>1079.73</ele>
        <time>2018-08-30T12:18:40Z</time>
      </trkpt>
      <trkpt lat="42.11612" lon="9.11236">
        <ele>1079.7</ele>
        <time>2018-08-30T12:18:41Z</time>
      </trkpt>
      <trkpt lat="42.11613" lon="9.11237">
        <ele>1076.67</ele>
        <time>2018-08-30T12:18:43Z</time>
      </trkpt>
      <trkpt lat="42.11613" lon="9.11237">
        <ele>1076.71</ele>
        <time>2018-08-30T12:18:44Z</time>
      </trkpt>
      <trkpt lat="42.11614" lon="9.11237">
        <ele>1079.85</ele>
        <time>2018-08-30T12:18:54Z</time>
      </trkpt>
      <trkpt lat="42.11615" lon="9.11237">
        <ele>1075.46</ele>
        <time>2018-08-30T12:18:55Z</time>
      </trkpt>
      <trkpt lat="42.11614" lon="9.11238">
        <ele>1077.7</ele>
        <time>2018-08-30T12:18:58Z</time>
      </trkpt>
      <trkpt lat="42.11614" lon="9.11238">
        <ele>1073.19</ele>
        <time>2018-08-30T12:18:59Z</time>
      </trkpt>
      <trkpt lat="42.11614" lon="9.11238">
        <ele>1076.96</ele>
        <time>2018-08-30T12:19:00Z</time>
      </trkpt>
      <trkpt lat="42.11615" lon="9.11238">
        <ele>1078.24</ele>
        <time>2018-08-30T12:19:02Z</time>
      </trkpt>
      <trkpt lat="42.11618" lon="9.11237">
        <ele>1074.32</ele>
        <time>2018-08-30T12:19:09Z</time>
      </trkpt>
      <trkpt lat="42.11618" lon="9.11238">
        <ele>1074.31</ele>
        <time>2018-08-30T12:19:10Z</time>
      </trkpt>
      <trkpt lat="42.11617" lon="9.11239">
        <ele>1077.96</ele>
        <time>2018-08-30T12:19:12Z</time>
      </trkpt>
      <trkpt lat="42.11618" lon="9.11239">
        <ele>1077.9</ele>
        <time>2018-08-30T12:19:13Z</time>
      </trkpt>
      <trkpt lat="42.11618" lon="9.11241">
        <ele>1075.27</ele>
        <time>2018-08-30T12:19:24Z</time>
      </trkpt>
      <trkpt lat="42.11618" lon="9.11241">
        <ele>1078.87</ele>
        <time>2018-08-30T12:19:25Z</time>
      </trkpt>
      <trkpt lat="42.11618" lon="9.11241">
        <ele>1078.91</ele>
        <time>2018-08-30T12:19:26Z</time>
      </trkpt>
      <trkpt lat="42.11618" lon="9.11241">
        <ele>1074.43</ele>
        <time>2018-08-30T12:19:27Z</time>
      </trkpt>
      <trkpt lat="42.11618" lon="9.11242">
        <ele>1074.53</ele>
        <time>2018-08-30T12:19:28Z</time>
      </trkpt>
      <trkpt lat="42.11618" lon="9.11242">
        <ele>1077.93</ele>
        <time>2018-08-30T12:19:30Z</time>
      </trkpt>
      <trkpt lat="42.11618" lon="9.11242">
        <ele>1077.94</ele>
        <time>2018-08-30T12:19:31Z</time>
      </trkpt>
      <trkpt lat="42.11618" lon="9.11243">
        <ele>1075.09</ele>
        <time>2018-08-30T12:19:34Z</time>
      </trkpt>
      <trkpt lat="42.11617" lon="9.11244">
        <ele>1080.36</ele>
        <time>2018-08-30T12:19:54Z</time>
      </trkpt>
      <trkpt lat="42.11617" lon="9.11244">
        <ele>1076.01</ele>
        <time>2018-08-30T12:19:55Z</time>
      </trkpt>
      <trkpt lat="42.11621" lon="9.11246">
        <ele>1075.83</ele>
        <time>2018-08-30T12:20:14Z</time>
      </trkpt>
      <trkpt lat="42.11625" lon="9.11243">
        <ele>1075.6</ele>
        <time>2018-08-30T12:20:49Z</time>
      </trkpt>
      <trkpt lat="42.11633" lon="9.11244">
        <ele>1075.39</ele>
        <time>2018-08-30T12:21:22Z</time>
      </trkpt>
      <trkpt lat="42.11628" lon="9.11241">
        <ele>1075</ele>
        <time>2018-08-30T12:22:08Z</time>
      </trkpt>
      <trkpt lat="42.11625" lon="9.11239">
        <ele>1074.65</ele>
        <time>2018-08-30T12:22:52Z</time>
      </trkpt>
      <trkpt lat="42.11627" lon="9.11244">
        <ele>1074.51</ele>
        <time>2018-08-30T12:23:29Z</time>
      </trkpt>
      <trkpt lat="42.11625" lon="9.1124">
        <ele>1074.47</ele>
        <time>2018-08-30T12:24:06Z</time>
      </trkpt>
      <trkpt lat="42.11621" lon="9.11237">
        <ele>1074.45</ele>
        <time>2018-08-30T12:24:33Z</time>
      </trkpt>
      <trkpt lat="42.11618" lon="9.11243">
        <ele>1074.47</ele>
        <time>2018-08-30T12:25:06Z</time>
      </trkpt>
      <trkpt lat="42.11617" lon="9.11247">
        <ele>1074.49</ele>
        <time>2018-08-30T12:25:42Z</time>
      </trkpt>
      <trkpt lat="42.11613" lon="9.11241">
        <ele>1074.44</ele>
        <time>2018-08-30T12:26:12Z</time>
      </trkpt>
      <trkpt lat="42.1161" lon="9.11241">
        <ele>1074.4</ele>
        <time>2018-08-30T12:26:29Z</time>
      </trkpt>
      <trkpt lat="42.11605" lon="9.11242">
        <ele>1074.31</ele>
        <time>2018-08-30T12:27:03Z</time>
      </trkpt>
      <trkpt lat="42.11604" lon="9.11245">
        <ele>1074.23</ele>
        <time>2018-08-30T12:27:34Z</time>
      </trkpt>
      <trkpt lat="42.11612" lon="9.11242">
        <ele>1074.22</ele>
        <time>2018-08-30T12:28:15Z</time>
      </trkpt>
      <trkpt lat="42.11614" lon="9.11244">
        <ele>1074.28</ele>
        <time>2018-08-30T12:28:54Z</time>
      </trkpt>
      <trkpt lat="42.11608" lon="9.1124">
        <ele>1074.39</ele>
        <time>2018-08-30T12:29:31Z</time>
      </trkpt>
      <trkpt lat="42.11618" lon="9.11238">
        <ele>1074.54</ele>
        <time>2018-08-30T12:30:00Z</time>
      </trkpt>
      <trkpt lat="42.11613" lon="9.11238">
        <ele>1074.7</ele>
        <time>2018-08-30T12:30:33Z</time>
      </trkpt>
      <trkpt lat="42.11613" lon="9.11242">
        <ele>1075.03</ele>
        <time>2018-08-30T12:31:21Z</time>
      </trkpt>
      <trkpt lat="42.11621" lon="9.11241">
        <ele>1075.43</ele>
        <time>2018-08-30T12:32:07Z</time>
      </trkpt>
      <trkpt lat="42.11618" lon="9.11238">
        <ele>1075.67</ele>
        <time>2018-08-30T12:32:39Z</time>
      </trkpt>
      <trkpt lat="42.11615" lon="9.11244">
        <ele>1076.01</ele>
        <time>2018-08-30T12:33:16Z</time>
      </trkpt>
      <trkpt lat="42.1162" lon="9.11246">
        <ele>1075.52</ele>
        <time>2018-08-30T12:34:00Z</time>
      </trkpt>
      <trkpt lat="42.11622" lon="9.11249">
        <ele>1075.9</ele>
        <time>2018-08-30T12:34:42Z</time>
      </trkpt>
      <trkpt lat="42.11617" lon="9.11247">
        <ele>1076.15</ele>
        <time>2018-08-30T12:35:14Z</time>
      </trkpt>
      <trkpt lat="42.11619" lon="9.11256">
        <ele>1076.44</ele>
        <time>2018-08-30T12:36:01Z</time>
      </trkpt>
      <trkpt lat="42.11621" lon="9.11253">
        <ele>1076.62</ele>
        <time>2018-08-30T12:36:45Z</time>
      </trkpt>
      <trkpt lat="42.11617" lon="9.1126">
        <ele>1076.76</ele>
        <time>2018-08-30T12:37:16Z</time>
      </trkpt>
      <trkpt lat="42.11619" lon="9.11259">
        <ele>1076.84</ele>
        <time>2018-08-30T12:38:00Z</time>
      </trkpt>
      <trkpt lat="42.11621" lon="9.11253">
        <ele>1076.89</ele>
        <time>2018-08-30T12:38:28Z</time>
      </trkpt>
      <trkpt lat="42.11622" lon="9.11251">
        <ele>1079.22</ele>
        <time>2018-08-30T12:38:44Z</time>
      </trkpt>
      <trkpt lat="42.11622" lon="9.11252">
        <ele>1076.85</ele>
        <time>2018-08-30T12:38:59Z</time>
      </trkpt>
      <trkpt lat="42.11622" lon="9.1125">
        <ele>1079.09</ele>
        <time>2018-08-30T12:39:03Z</time>
      </trkpt>
      <trkpt lat="42.11624" lon="9.1125">
        <ele>1082.19</ele>
        <time>2018-08-30T12:39:10Z</time>
      </trkpt>
      <trkpt lat="42.11623" lon="9.11251">
        <ele>1078.57</ele>
        <time>2018-08-30T12:39:11Z</time>
      </trkpt>
      <trkpt lat="42.11623" lon="9.11252">
        <ele>1076.76</ele>
        <time>2018-08-30T12:39:18Z</time>
      </trkpt>
      <trkpt lat="42.11623" lon="9.11253">
        <ele>1080</ele>
        <time>2018-08-30T12:39:20Z</time>
      </trkpt>
      <trkpt lat="42.11623" lon="9.11253">
        <ele>1079.94</ele>
        <time>2018-08-30T12:39:21Z</time>
      </trkpt>
      <trkpt lat="42.1161" lon="9.11253">
        <ele>1080.13</ele>
        <time>2018-08-30T12:39:49Z</time>
      </trkpt>
      <trkpt lat="42.11609" lon="9.11252">
        <ele>1080.14</ele>
        <time>2018-08-30T12:40:24Z</time>
      </trkpt>
      <trkpt lat="42.11608" lon="9.1125">
        <ele>1077.81</ele>
        <time>2018-08-30T12:40:33Z</time>
      </trkpt>
      <trkpt lat="42.1161" lon="9.11245">
        <ele>1077.86</ele>
        <time>2018-08-30T12:41:08Z</time>
      </trkpt>
      <trkpt lat="42.11617" lon="9.1124">
        <ele>1078.02</ele>
        <time>2018-08-30T12:41:39Z</time>
      </trkpt>
      <trkpt lat="42.11619" lon="9.11241">
        <ele>1078.07</ele>
        <time>2018-08-30T12:42:06Z</time>
      </trkpt>
      <trkpt lat="42.11617" lon="9.11245">
        <ele>1078.11</ele>
        <time>2018-08-30T12:42:31Z</time>
      </trkpt>
      <trkpt lat="42.11617" lon="9.11246">
        <ele>1080.47</ele>
        <time>2018-08-30T12:42:33Z</time>
      </trkpt>
      <trkpt lat="42.11613" lon="9.11248">
        <ele>1080.59</ele>
        <time>2018-08-30T12:42:59Z</time>
      </trkpt>
      <trkpt lat="42.11624" lon="9.11248">
        <ele>1080.47</ele>
        <time>2018-08-30T12:43:07Z</time>
      </trkpt>
      <trkpt lat="42.11628" lon="9.11239">
        <ele>1078</ele>
        <time>2018-08-30T12:43:19Z</time>
      </trkpt>
      <trkpt lat="42.11635" lon="9.11233">
        <ele>1078.02</ele>
        <time>2018-08-30T12:43:35Z</time>
      </trkpt>
      <trkpt lat="42.11639" lon="9.11236">
        <ele>1077.3</ele>
        <time>2018-08-30T12:43:50Z</time>
      </trkpt>
      <trkpt lat="42.1164" lon="9.11234">
        <ele>1077.4</ele>
        <time>2018-08-30T12:44:13Z</time>
      </trkpt>
      <trkpt lat="42.11641" lon="9.11236">
        <ele>1077.47</ele>
        <time>2018-08-30T12:44:34Z</time>
      </trkpt>
      <trkpt lat="42.11642" lon="9.11235">
        <ele>1077.56</ele>
        <time>2018-08-30T12:44:56Z</time>
      </trkpt>
      <trkpt lat="42.11644" lon="9.11235">
        <ele>1077.65</ele>
        <time>2018-08-30T12:45:25Z</time>
      </trkpt>
      <trkpt lat="42.11647" lon="9.11239">
        <ele>1077.72</ele>
        <time>2018-08-30T12:46:05Z</time>
      </trkpt>
      <trkpt lat="42.11651" lon="9.11241">
        <ele>1077.72</ele>
        <time>2018-08-30T12:46:12Z</time>
      </trkpt>
      <trkpt lat="42.11656" lon="9.11242">
        <ele>1080.03</ele>
        <time>2018-08-30T12:46:22Z</time>
      </trkpt>
      <trkpt lat="42.1166" lon="9.11247">
        <ele>1080.03</ele>
        <time>2018-08-30T12:46:35Z</time>
      </trkpt>
      <trkpt lat="42.11662" lon="9.11253">
        <ele>1080.8</ele>
        <time>2018-08-30T12:46:46Z</time>
      </trkpt>
      <trkpt lat="42.11665" lon="9.11261">
        <ele>1080.77</ele>
        <time>2018-08-30T12:46:54Z</time>
      </trkpt>
      <trkpt lat="42.11668" lon="9.11273">
        <ele>1081.61</ele>
        <time>2018-08-30T12:47:09Z</time>
      </trkpt>
      <trkpt lat="42.1167" lon="9.1128">
        <ele>1081.58</ele>
        <time>2018-08-30T12:47:16Z</time>
      </trkpt>
      <trkpt lat="42.1168" lon="9.11303">
        <ele>1081.51</ele>
        <time>2018-08-30T12:47:33Z</time>
      </trkpt>
      <trkpt lat="42.11685" lon="9.11315">
        <ele>1078.82</ele>
        <time>2018-08-30T12:47:41Z</time>
      </trkpt>
      <trkpt lat="42.11695" lon="9.11335">
        <ele>1078.86</ele>
        <time>2018-08-30T12:47:57Z</time>
      </trkpt>
      <trkpt lat="42.11702" lon="9.1135">
        <ele>1078.86</ele>
        <time>2018-08-30T12:48:10Z</time>
      </trkpt>
      <trkpt lat="42.11703" lon="9.11352">
        <ele>1078.84</ele>
        <time>2018-08-30T12:48:11Z</time>
      </trkpt>
      <trkpt lat="42.11704" lon="9.11354">
        <ele>1077.59</ele>
        <time>2018-08-30T12:48:13Z</time>
      </trkpt>
      <trkpt lat="42.11705" lon="9.11355">
        <ele>1077.55</ele>
        <time>2018-08-30T12:48:14Z</time>
      </trkpt>
      <trkpt lat="42.11708" lon="9.11366">
        <ele>1077.54</ele>
        <time>2018-08-30T12:48:28Z</time>
      </trkpt>
      <trkpt lat="42.1171" lon="9.11378">
        <ele>1076.17</ele>
        <time>2018-08-30T12:48:40Z</time>
      </trkpt>
      <trkpt lat="42.11714" lon="9.11397">
        <ele>1075</ele>
        <time>2018-08-30T12:48:54Z</time>
      </trkpt>
      <trkpt lat="42.11719" lon="9.11413">
        <ele>1075.04</ele>
        <time>2018-08-30T12:49:05Z</time>
      </trkpt>
      <trkpt lat="42.11725" lon="9.11433">
        <ele>1071.95</ele>
        <time>2018-08-30T12:49:22Z</time>
      </trkpt>
      <trkpt lat="42.1173" lon="9.11443">
        <ele>1070.3</ele>
        <time>2018-08-30T12:49:31Z</time>
      </trkpt>
      <trkpt lat="42.11734" lon="9.11461">
        <ele>1069.3</ele>
        <time>2018-08-30T12:49:47Z</time>
      </trkpt>
      <trkpt lat="42.11735" lon="9.11465">
        <ele>1068.11</ele>
        <time>2018-08-30T12:49:51Z</time>
      </trkpt>
      <trkpt lat="42.11736" lon="9.11468">
        <ele>1068.1</ele>
        <time>2018-08-30T12:49:54Z</time>
      </trkpt>
      <trkpt lat="42.11734" lon="9.11472">
        <ele>1065.97</ele>
        <time>2018-08-30T12:49:57Z</time>
      </trkpt>
      <trkpt lat="42.11733" lon="9.11474">
        <ele>1068.34</ele>
        <time>2018-08-30T12:49:59Z</time>
      </trkpt>
      <trkpt lat="42.11738" lon="9.115">
        <ele>1067.83</ele>
        <time>2018-08-30T12:50:16Z</time>
      </trkpt>
      <trkpt lat="42.11741" lon="9.11521">
        <ele>1067.89</ele>
        <time>2018-08-30T12:50:30Z</time>
      </trkpt>
      <trkpt lat="42.1174" lon="9.11523">
        <ele>1067.88</ele>
        <time>2018-08-30T12:50:31Z</time>
      </trkpt>
      <trkpt lat="42.1174" lon="9.1154">
        <ele>1066.23</ele>
        <time>2018-08-30T12:50:43Z</time>
      </trkpt>
      <trkpt lat="42.11738" lon="9.11549">
        <ele>1066.2</ele>
        <time>2018-08-30T12:50:50Z</time>
      </trkpt>
      <trkpt lat="42.11733" lon="9.11566">
        <ele>1064.19</ele>
        <time>2018-08-30T12:51:04Z</time>
      </trkpt>
      <trkpt lat="42.11731" lon="9.11582">
        <ele>1063.04</ele>
        <time>2018-08-30T12:51:16Z</time>
      </trkpt>
      <trkpt lat="42.11732" lon="9.11597">
        <ele>1062.2</ele>
        <time>2018-08-30T12:51:31Z</time>
      </trkpt>
      <trkpt lat="42.11731" lon="9.11602">
        <ele>1062.15</ele>
        <time>2018-08-30T12:51:39Z</time>
      </trkpt>
      <trkpt lat="42.11729" lon="9.11617">
        <ele>1061.09</ele>
        <time>2018-08-30T12:51:54Z</time>
      </trkpt>
      <trkpt lat="42.11728" lon="9.11633">
        <ele>1059.96</ele>
        <time>2018-08-30T12:52:07Z</time>
      </trkpt>
      <trkpt lat="42.11723" lon="9.11639">
        <ele>1057.21</ele>
        <time>2018-08-30T12:52:15Z</time>
      </trkpt>
      <trkpt lat="42.11712" lon="9.11656">
        <ele>1057.29</ele>
        <time>2018-08-30T12:52:29Z</time>
      </trkpt>
      <trkpt lat="42.11705" lon="9.11668">
        <ele>1056.09</ele>
        <time>2018-08-30T12:52:41Z</time>
      </trkpt>
      <trkpt lat="42.11708" lon="9.11676">
        <ele>1055.13</ele>
        <time>2018-08-30T12:52:47Z</time>
      </trkpt>
      <trkpt lat="42.11713" lon="9.11693">
        <ele>1054.29</ele>
        <time>2018-08-30T12:52:57Z</time>
      </trkpt>
      <trkpt lat="42.11715" lon="9.11701">
        <ele>1053.39</ele>
        <time>2018-08-30T12:53:04Z</time>
      </trkpt>
      <trkpt lat="42.11719" lon="9.11709">
        <ele>1053.48</ele>
        <time>2018-08-30T12:53:10Z</time>
      </trkpt>
      <trkpt lat="42.11723" lon="9.11712">
        <ele>1053.47</ele>
        <time>2018-08-30T12:53:14Z</time>
      </trkpt>
      <trkpt lat="42.11727" lon="9.11719">
        <ele>1053.46</ele>
        <time>2018-08-30T12:53:20Z</time>
      </trkpt>
      <trkpt lat="42.11729" lon="9.11731">
        <ele>1052.19</ele>
        <time>2018-08-30T12:53:27Z</time>
      </trkpt>
      <trkpt lat="42.1173" lon="9.11732">
        <ele>1052.17</ele>
        <time>2018-08-30T12:53:28Z</time>
      </trkpt>
      <trkpt lat="42.11742" lon="9.1174">
        <ele>1051.13</ele>
        <time>2018-08-30T12:53:38Z</time>
      </trkpt>
      <trkpt lat="42.11746" lon="9.11761">
        <ele>1051.22</ele>
        <time>2018-08-30T12:53:54Z</time>
      </trkpt>
      <trkpt lat="42.11739" lon="9.11774">
        <ele>1050.34</ele>
        <time>2018-08-30T12:54:09Z</time>
      </trkpt>
      <trkpt lat="42.1174" lon="9.1178">
        <ele>1049.56</ele>
        <time>2018-08-30T12:54:13Z</time>
      </trkpt>
      <trkpt lat="42.11739" lon="9.11782">
        <ele>1049.6</ele>
        <time>2018-08-30T12:54:15Z</time>
      </trkpt>
      <trkpt lat="42.11743" lon="9.11796">
        <ele>1049.74</ele>
        <time>2018-08-30T12:54:31Z</time>
      </trkpt>
      <trkpt lat="42.11747" lon="9.1181">
        <ele>1049.85</ele>
        <time>2018-08-30T12:54:45Z</time>
      </trkpt>
      <trkpt lat="42.11748" lon="9.11826">
        <ele>1048.91</ele>
        <time>2018-08-30T12:54:58Z</time>
      </trkpt>
      <trkpt lat="42.1175" lon="9.11846">
        <ele>1048.27</ele>
        <time>2018-08-30T12:55:11Z</time>
      </trkpt>
      <trkpt lat="42.1175" lon="9.1185">
        <ele>1047.12</ele>
        <time>2018-08-30T12:55:14Z</time>
      </trkpt>
      <trkpt lat="42.1175" lon="9.11868">
        <ele>1047.19</ele>
        <time>2018-08-30T12:55:25Z</time>
      </trkpt>
      <trkpt lat="42.11749" lon="9.11891">
        <ele>1047.23</ele>
        <time>2018-08-30T12:55:40Z</time>
      </trkpt>
      <trkpt lat="42.1175" lon="9.11894">
        <ele>1047.23</ele>
        <time>2018-08-30T12:55:42Z</time>
      </trkpt>
      <trkpt lat="42.11754" lon="9.11897">
        <ele>1047.26</ele>
        <time>2018-08-30T12:55:57Z</time>
      </trkpt>
      <trkpt lat="42.11755" lon="9.11903">
        <ele>1047.35</ele>
        <time>2018-08-30T12:56:16Z</time>
      </trkpt>
      <trkpt lat="42.11759" lon="9.11921">
        <ele>1045.92</ele>
        <time>2018-08-30T12:56:31Z</time>
      </trkpt>
      <trkpt lat="42.11765" lon="9.11935">
        <ele>1045.99</ele>
        <time>2018-08-30T12:56:42Z</time>
      </trkpt>
      <trkpt lat="42.11772" lon="9.11958">
        <ele>1044.38</ele>
        <time>2018-08-30T12:56:57Z</time>
      </trkpt>
      <trkpt lat="42.11777" lon="9.11975">
        <ele>1044.51</ele>
        <time>2018-08-30T12:57:09Z</time>
      </trkpt>
      <trkpt lat="42.11781" lon="9.11991">
        <ele>1043.79</ele>
        <time>2018-08-30T12:57:20Z</time>
      </trkpt>
      <trkpt lat="42.1179" lon="9.12013">
        <ele>1042.82</ele>
        <time>2018-08-30T12:57:35Z</time>
      </trkpt>
      <trkpt lat="42.118" lon="9.12021">
        <ele>1041.73</ele>
        <time>2018-08-30T12:57:46Z</time>
      </trkpt>
      <trkpt lat="42.11801" lon="9.12022">
        <ele>1041.73</ele>
        <time>2018-08-30T12:57:47Z</time>
      </trkpt>
      <trkpt lat="42.11804" lon="9.12025">
        <ele>1041.75</ele>
        <time>2018-08-30T12:57:51Z</time>
      </trkpt>
      <trkpt lat="42.11811" lon="9.12029">
        <ele>1040.75</ele>
        <time>2018-08-30T12:57:57Z</time>
      </trkpt>
      <trkpt lat="42.11826" lon="9.12039">
        <ele>1038.93</ele>
        <time>2018-08-30T12:58:11Z</time>
      </trkpt>
      <trkpt lat="42.11844" lon="9.12057">
        <ele>1039</ele>
        <time>2018-08-30T12:58:30Z</time>
      </trkpt>
      <trkpt lat="42.11854" lon="9.12074">
        <ele>1038.31</ele>
        <time>2018-08-30T12:58:44Z</time>
      </trkpt>
      <trkpt lat="42.11864" lon="9.12082">
        <ele>1036.05</ele>
        <time>2018-08-30T12:58:54Z</time>
      </trkpt>
      <trkpt lat="42.1188" lon="9.12087">
        <ele>1036.08</ele>
        <time>2018-08-30T12:59:08Z</time>
      </trkpt>
      <trkpt lat="42.11884" lon="9.12092">
        <ele>1035.13</ele>
        <time>2018-08-30T12:59:12Z</time>
      </trkpt>
      <trkpt lat="42.11891" lon="9.12099">
        <ele>1035.17</ele>
        <time>2018-08-30T12:59:26Z</time>
      </trkpt>
      <trkpt lat="42.11893" lon="9.12105">
        <ele>1035.22</ele>
        <time>2018-08-30T12:59:47Z</time>
      </trkpt>
      <trkpt lat="42.11894" lon="9.12107">
        <ele>1035.26</ele>
        <time>2018-08-30T13:00:06Z</time>
      </trkpt>
      <trkpt lat="42.11894" lon="9.12108">
        <ele>1035.26</ele>
        <time>2018-08-30T13:00:07Z</time>
      </trkpt>
      <trkpt lat="42.11898" lon="9.12114">
        <ele>1035.3</ele>
        <time>2018-08-30T13:00:19Z</time>
      </trkpt>
      <trkpt lat="42.11896" lon="9.12114">
        <ele>1033.96</ele>
        <time>2018-08-30T13:00:42Z</time>
      </trkpt>
      <trkpt lat="42.11901" lon="9.12132">
        <ele>1033.97</ele>
        <time>2018-08-30T13:00:55Z</time>
      </trkpt>
      <trkpt lat="42.11902" lon="9.12139">
        <ele>1033.12</ele>
        <time>2018-08-30T13:01:01Z</time>
      </trkpt>
      <trkpt lat="42.11905" lon="9.12154">
        <ele>1032.13</ele>
        <time>2018-08-30T13:01:16Z</time>
      </trkpt>
      <trkpt lat="42.11913" lon="9.12171">
        <ele>1031.38</ele>
        <time>2018-08-30T13:01:30Z</time>
      </trkpt>
      <trkpt lat="42.11915" lon="9.12176">
        <ele>1030.34</ele>
        <time>2018-08-30T13:01:34Z</time>
      </trkpt>
      <trkpt lat="42.11917" lon="9.12182">
        <ele>1030.32</ele>
        <time>2018-08-30T13:01:38Z</time>
      </trkpt>
      <trkpt lat="42.11919" lon="9.12186">
        <ele>1030.34</ele>
        <time>2018-08-30T13:01:41Z</time>
      </trkpt>
      <trkpt lat="42.1192" lon="9.12192">
        <ele>1029.02</ele>
        <time>2018-08-30T13:01:46Z</time>
      </trkpt>
      <trkpt lat="42.11921" lon="9.12193">
        <ele>1029.02</ele>
        <time>2018-08-30T13:01:47Z</time>
      </trkpt>
      <trkpt lat="42.11927" lon="9.12216">
        <ele>1028.16</ele>
        <time>2018-08-30T13:02:02Z</time>
      </trkpt>
      <trkpt lat="42.1193" lon="9.12232">
        <ele>1026.26</ele>
        <time>2018-08-30T13:02:14Z</time>
      </trkpt>
      <trkpt lat="42.11932" lon="9.12247">
        <ele>1026.29</ele>
        <time>2018-08-30T13:02:25Z</time>
      </trkpt>
      <trkpt lat="42.11934" lon="9.12251">
        <ele>1026.3</ele>
        <time>2018-08-30T13:02:28Z</time>
      </trkpt>
      <trkpt lat="42.11947" lon="9.12273">
        <ele>1024.71</ele>
        <time>2018-08-30T13:02:45Z</time>
      </trkpt>
      <trkpt lat="42.11949" lon="9.12275">
        <ele>1023.39</ele>
        <time>2018-08-30T13:02:47Z</time>
      </trkpt>
      <trkpt lat="42.11957" lon="9.12286">
        <ele>1023.38</ele>
        <time>2018-08-30T13:02:57Z</time>
      </trkpt>
      <trkpt lat="42.11961" lon="9.12288">
        <ele>1021.97</ele>
        <time>2018-08-30T13:03:01Z</time>
      </trkpt>
      <trkpt lat="42.11967" lon="9.12293">
        <ele>1021.96</ele>
        <time>2018-08-30T13:03:09Z</time>
      </trkpt>
      <trkpt lat="42.11975" lon="9.12296">
        <ele>1020.38</ele>
        <time>2018-08-30T13:03:16Z</time>
      </trkpt>
      <trkpt lat="42.11987" lon="9.12302">
        <ele>1020.39</ele>
        <time>2018-08-30T13:03:28Z</time>
      </trkpt>
      <trkpt lat="42.11994" lon="9.12311">
        <ele>1019.26</ele>
        <time>2018-08-30T13:03:36Z</time>
      </trkpt>
      <trkpt lat="42.12008" lon="9.12326">
        <ele>1018.22</ele>
        <time>2018-08-30T13:03:50Z</time>
      </trkpt>
      <trkpt lat="42.12012" lon="9.12332">
        <ele>1017.18</ele>
        <time>2018-08-30T13:03:55Z</time>
      </trkpt>
      <trkpt lat="42.12022" lon="9.12346">
        <ele>1016.43</ele>
        <time>2018-08-30T13:04:08Z</time>
      </trkpt>
      <trkpt lat="42.12024" lon="9.12349">
        <ele>1015.15</ele>
        <time>2018-08-30T13:04:11Z</time>
      </trkpt>
      <trkpt lat="42.12034" lon="9.12361">
        <ele>1015.27</ele>
        <time>2018-08-30T13:04:24Z</time>
      </trkpt>
      <trkpt lat="42.12042" lon="9.12369">
        <ele>1013.69</ele>
        <time>2018-08-30T13:04:34Z</time>
      </trkpt>
      <trkpt lat="42.12046" lon="9.12376">
        <ele>1013.74</ele>
        <time>2018-08-30T13:04:41Z</time>
      </trkpt>
      <trkpt lat="42.12048" lon="9.12379">
        <ele>1013.77</ele>
        <time>2018-08-30T13:04:45Z</time>
      </trkpt>
      <trkpt lat="42.12051" lon="9.12387">
        <ele>1012.46</ele>
        <time>2018-08-30T13:04:51Z</time>
      </trkpt>
      <trkpt lat="42.12057" lon="9.12401">
        <ele>1012.57</ele>
        <time>2018-08-30T13:05:06Z</time>
      </trkpt>
      <trkpt lat="42.12062" lon="9.12418">
        <ele>1011.74</ele>
        <time>2018-08-30T13:05:18Z</time>
      </trkpt>
      <trkpt lat="42.12063" lon="9.12421">
        <ele>1010.41</ele>
        <time>2018-08-30T13:05:20Z</time>
      </trkpt>
      <trkpt lat="42.12069" lon="9.12442">
        <ele>1010.49</ele>
        <time>2018-08-30T13:05:35Z</time>
      </trkpt>
      <trkpt lat="42.12074" lon="9.12458">
        <ele>1008.57</ele>
        <time>2018-08-30T13:05:48Z</time>
      </trkpt>
      <trkpt lat="42.12074" lon="9.1246">
        <ele>1008.57</ele>
        <time>2018-08-30T13:05:49Z</time>
      </trkpt>
      <trkpt lat="42.12075" lon="9.12462">
        <ele>1008.56</ele>
        <time>2018-08-30T13:05:51Z</time>
      </trkpt>
      <trkpt lat="42.12076" lon="9.12469">
        <ele>1007.37</ele>
        <time>2018-08-30T13:05:56Z</time>
      </trkpt>
      <trkpt lat="42.12079" lon="9.12485">
        <ele>1006.45</ele>
        <time>2018-08-30T13:06:09Z</time>
      </trkpt>
      <trkpt lat="42.12081" lon="9.12492">
        <ele>1006.45</ele>
        <time>2018-08-30T13:06:13Z</time>
      </trkpt>
      <trkpt lat="42.12084" lon="9.12502">
        <ele>1005.54</ele>
        <time>2018-08-30T13:06:21Z</time>
      </trkpt>
      <trkpt lat="42.12086" lon="9.12508">
        <ele>1004.58</ele>
        <time>2018-08-30T13:06:25Z</time>
      </trkpt>
      <trkpt lat="42.12089" lon="9.1252">
        <ele>1003.62</ele>
        <time>2018-08-30T13:06:33Z</time>
      </trkpt>
      <trkpt lat="42.12086" lon="9.12524">
        <ele>1003.64</ele>
        <time>2018-08-30T13:06:37Z</time>
      </trkpt>
      <trkpt lat="42.12079" lon="9.12523">
        <ele>1002.83</ele>
        <time>2018-08-30T13:06:52Z</time>
      </trkpt>
      <trkpt lat="42.12074" lon="9.12524">
        <ele>1001.73</ele>
        <time>2018-08-30T13:06:59Z</time>
      </trkpt>
      <trkpt lat="42.12065" lon="9.12529">
        <ele>1001.77</ele>
        <time>2018-08-30T13:07:09Z</time>
      </trkpt>
      <trkpt lat="42.12058" lon="9.12544">
        <ele>999.06</ele>
        <time>2018-08-30T13:07:24Z</time>
      </trkpt>
      <trkpt lat="42.12055" lon="9.12551">
        <ele>999.07</ele>
        <time>2018-08-30T13:07:30Z</time>
      </trkpt>
      <trkpt lat="42.12052" lon="9.12565">
        <ele>997.02</ele>
        <time>2018-08-30T13:07:40Z</time>
      </trkpt>
      <trkpt lat="42.12054" lon="9.12575">
        <ele>996.05</ele>
        <time>2018-08-30T13:07:52Z</time>
      </trkpt>
      <trkpt lat="42.12055" lon="9.12579">
        <ele>996.07</ele>
        <time>2018-08-30T13:07:55Z</time>
      </trkpt>
      <trkpt lat="42.12057" lon="9.12588">
        <ele>995.25</ele>
        <time>2018-08-30T13:08:00Z</time>
      </trkpt>
      <trkpt lat="42.12062" lon="9.12615">
        <ele>994.21</ele>
        <time>2018-08-30T13:08:17Z</time>
      </trkpt>
      <trkpt lat="42.12067" lon="9.12627">
        <ele>992.95</ele>
        <time>2018-08-30T13:08:26Z</time>
      </trkpt>
      <trkpt lat="42.12072" lon="9.12641">
        <ele>992.12</ele>
        <time>2018-08-30T13:08:37Z</time>
      </trkpt>
      <trkpt lat="42.12076" lon="9.12655">
        <ele>991.29</ele>
        <time>2018-08-30T13:08:48Z</time>
      </trkpt>
      <trkpt lat="42.12083" lon="9.12675">
        <ele>989.18</ele>
        <time>2018-08-30T13:09:04Z</time>
      </trkpt>
      <trkpt lat="42.12091" lon="9.12695">
        <ele>988.24</ele>
        <time>2018-08-30T13:09:19Z</time>
      </trkpt>
      <trkpt lat="42.12093" lon="9.12703">
        <ele>988.27</ele>
        <time>2018-08-30T13:09:24Z</time>
      </trkpt>
      <trkpt lat="42.12093" lon="9.12711">
        <ele>987.32</ele>
        <time>2018-08-30T13:09:30Z</time>
      </trkpt>
      <trkpt lat="42.12095" lon="9.12715">
        <ele>987.32</ele>
        <time>2018-08-30T13:09:33Z</time>
      </trkpt>
      <trkpt lat="42.121" lon="9.1273">
        <ele>985.64</ele>
        <time>2018-08-30T13:09:45Z</time>
      </trkpt>
      <trkpt lat="42.12104" lon="9.12738">
        <ele>985.66</ele>
        <time>2018-08-30T13:09:51Z</time>
      </trkpt>
      <trkpt lat="42.12109" lon="9.12747">
        <ele>984.44</ele>
        <time>2018-08-30T13:10:00Z</time>
      </trkpt>
      <trkpt lat="42.12117" lon="9.12758">
        <ele>982.89</ele>
        <time>2018-08-30T13:10:12Z</time>
      </trkpt>
      <trkpt lat="42.12121" lon="9.12761">
        <ele>982.91</ele>
        <time>2018-08-30T13:10:16Z</time>
      </trkpt>
      <trkpt lat="42.12133" lon="9.12769">
        <ele>980.71</ele>
        <time>2018-08-30T13:10:28Z</time>
      </trkpt>
      <trkpt lat="42.12138" lon="9.12771">
        <ele>980.8</ele>
        <time>2018-08-30T13:10:33Z</time>
      </trkpt>
      <trkpt lat="42.12147" lon="9.12778">
        <ele>980.85</ele>
        <time>2018-08-30T13:10:45Z</time>
      </trkpt>
      <trkpt lat="42.1215" lon="9.1278">
        <ele>980.86</ele>
        <time>2018-08-30T13:10:48Z</time>
      </trkpt>
      <trkpt lat="42.12155" lon="9.12783">
        <ele>980.89</ele>
        <time>2018-08-30T13:10:54Z</time>
      </trkpt>
      <trkpt lat="42.12165" lon="9.12786">
        <ele>979.99</ele>
        <time>2018-08-30T13:11:02Z</time>
      </trkpt>
      <trkpt lat="42.1217" lon="9.12795">
        <ele>980.02</ele>
        <time>2018-08-30T13:11:09Z</time>
      </trkpt>
      <trkpt lat="42.1218" lon="9.12809">
        <ele>979.32</ele>
        <time>2018-08-30T13:11:22Z</time>
      </trkpt>
      <trkpt lat="42.12182" lon="9.12812">
        <ele>979.3</ele>
        <time>2018-08-30T13:11:25Z</time>
      </trkpt>
      <trkpt lat="42.12195" lon="9.12829">
        <ele>978.55</ele>
        <time>2018-08-30T13:11:41Z</time>
      </trkpt>
      <trkpt lat="42.12195" lon="9.12831">
        <ele>977.43</ele>
        <time>2018-08-30T13:11:42Z</time>
      </trkpt>
      <trkpt lat="42.12199" lon="9.12835">
        <ele>977.39</ele>
        <time>2018-08-30T13:11:46Z</time>
      </trkpt>
      <trkpt lat="42.12211" lon="9.12852">
        <ele>977.63</ele>
        <time>2018-08-30T13:12:04Z</time>
      </trkpt>
      <trkpt lat="42.12219" lon="9.12855">
        <ele>975.36</ele>
        <time>2018-08-30T13:12:13Z</time>
      </trkpt>
      <trkpt lat="42.12234" lon="9.12854">
        <ele>975.37</ele>
        <time>2018-08-30T13:12:25Z</time>
      </trkpt>
      <trkpt lat="42.12251" lon="9.12851">
        <ele>974.32</ele>
        <time>2018-08-30T13:12:40Z</time>
      </trkpt>
      <trkpt lat="42.1226" lon="9.12854">
        <ele>972.88</ele>
        <time>2018-08-30T13:12:48Z</time>
      </trkpt>
      <trkpt lat="42.1228" lon="9.12863">
        <ele>973.22</ele>
        <time>2018-08-30T13:13:07Z</time>
      </trkpt>
      <trkpt lat="42.12292" lon="9.12861">
        <ele>973.32</ele>
        <time>2018-08-30T13:13:21Z</time>
      </trkpt>
      <trkpt lat="42.12297" lon="9.12858">
        <ele>973.21</ele>
        <time>2018-08-30T13:13:26Z</time>
      </trkpt>
      <trkpt lat="42.12314" lon="9.1285">
        <ele>973.26</ele>
        <time>2018-08-30T13:13:40Z</time>
      </trkpt>
      <trkpt lat="42.12316" lon="9.12848">
        <ele>973.29</ele>
        <time>2018-08-30T13:13:42Z</time>
      </trkpt>
      <trkpt lat="42.12335" lon="9.12839">
        <ele>973.37</ele>
        <time>2018-08-30T13:13:59Z</time>
      </trkpt>
      <trkpt lat="42.12355" lon="9.12826">
        <ele>971.11</ele>
        <time>2018-08-30T13:14:17Z</time>
      </trkpt>
      <trkpt lat="42.12371" lon="9.12819">
        <ele>971.29</ele>
        <time>2018-08-30T13:14:33Z</time>
      </trkpt>
      <trkpt lat="42.12383" lon="9.12814">
        <ele>970.34</ele>
        <time>2018-08-30T13:14:43Z</time>
      </trkpt>
      <trkpt lat="42.12407" lon="9.12814">
        <ele>970.36</ele>
        <time>2018-08-30T13:15:03Z</time>
      </trkpt>
      <trkpt lat="42.12415" lon="9.12818">
        <ele>969.34</ele>
        <time>2018-08-30T13:15:10Z</time>
      </trkpt>
      <trkpt lat="42.12434" lon="9.12833">
        <ele>969.47</ele>
        <time>2018-08-30T13:15:27Z</time>
      </trkpt>
      <trkpt lat="42.12453" lon="9.12849">
        <ele>966.87</ele>
        <time>2018-08-30T13:15:46Z</time>
      </trkpt>
      <trkpt lat="42.12457" lon="9.12851">
        <ele>966.88</ele>
        <time>2018-08-30T13:15:50Z</time>
      </trkpt>
      <trkpt lat="42.12476" lon="9.12858">
        <ele>965.33</ele>
        <time>2018-08-30T13:16:06Z</time>
      </trkpt>
      <trkpt lat="42.12495" lon="9.12867">
        <ele>964.73</ele>
        <time>2018-08-30T13:16:23Z</time>
      </trkpt>
      <trkpt lat="42.12512" lon="9.1287">
        <ele>963.57</ele>
        <time>2018-08-30T13:16:37Z</time>
      </trkpt>
      <trkpt lat="42.1253" lon="9.12875">
        <ele>963.56</ele>
        <time>2018-08-30T13:16:52Z</time>
      </trkpt>
      <trkpt lat="42.12544" lon="9.1288">
        <ele>962.77</ele>
        <time>2018-08-30T13:17:05Z</time>
      </trkpt>
      <trkpt lat="42.12559" lon="9.12886">
        <ele>961.02</ele>
        <time>2018-08-30T13:17:18Z</time>
      </trkpt>
      <trkpt lat="42.12575" lon="9.1289">
        <ele>959.83</ele>
        <time>2018-08-30T13:17:31Z</time>
      </trkpt>
      <trkpt lat="42.1259" lon="9.129">
        <ele>958.89</ele>
        <time>2018-08-30T13:17:45Z</time>
      </trkpt>
      <trkpt lat="42.12608" lon="9.12907">
        <ele>958.02</ele>
        <time>2018-08-30T13:18:00Z</time>
      </trkpt>
      <trkpt lat="42.12629" lon="9.12908">
        <ele>957.41</ele>
        <time>2018-08-30T13:18:17Z</time>
      </trkpt>
      <trkpt lat="42.12652" lon="9.12908">
        <ele>957.43</ele>
        <time>2018-08-30T13:18:35Z</time>
      </trkpt>
      <trkpt lat="42.12653" lon="9.12914">
        <ele>956.42</ele>
        <time>2018-08-30T13:18:47Z</time>
      </trkpt>
      <trkpt lat="42.12653" lon="9.12915">
        <ele>956.36</ele>
        <time>2018-08-30T13:18:48Z</time>
      </trkpt>
      <trkpt lat="42.12642" lon="9.12923">
        <ele>954.48</ele>
        <time>2018-08-30T13:19:01Z</time>
      </trkpt>
      <trkpt lat="42.12635" lon="9.12937">
        <ele>950.72</ele>
        <time>2018-08-30T13:19:16Z</time>
      </trkpt>
      <trkpt lat="42.12628" lon="9.12941">
        <ele>950</ele>
        <time>2018-08-30T13:19:29Z</time>
      </trkpt>
      <trkpt lat="42.12622" lon="9.12938">
        <ele>949.23</ele>
        <time>2018-08-30T13:19:45Z</time>
      </trkpt>
      <trkpt lat="42.12629" lon="9.12946">
        <ele>949.27</ele>
        <time>2018-08-30T13:20:00Z</time>
      </trkpt>
      <trkpt lat="42.12629" lon="9.1295">
        <ele>949.24</ele>
        <time>2018-08-30T13:20:03Z</time>
      </trkpt>
      <trkpt lat="42.12628" lon="9.12963">
        <ele>949.38</ele>
        <time>2018-08-30T13:20:16Z</time>
      </trkpt>
      <trkpt lat="42.12629" lon="9.12966">
        <ele>949.38</ele>
        <time>2018-08-30T13:20:18Z</time>
      </trkpt>
      <trkpt lat="42.12631" lon="9.12973">
        <ele>949.37</ele>
        <time>2018-08-30T13:20:23Z</time>
      </trkpt>
      <trkpt lat="42.12641" lon="9.12984">
        <ele>949.46</ele>
        <time>2018-08-30T13:20:35Z</time>
      </trkpt>
      <trkpt lat="42.12651" lon="9.13001">
        <ele>952.79</ele>
        <time>2018-08-30T13:20:51Z</time>
      </trkpt>
      <trkpt lat="42.12651" lon="9.13002">
        <ele>952.79</ele>
        <time>2018-08-30T13:20:52Z</time>
      </trkpt>
      <trkpt lat="42.12652" lon="9.13003">
        <ele>952.7</ele>
        <time>2018-08-30T13:20:53Z</time>
      </trkpt>
      <trkpt lat="42.12654" lon="9.1301">
        <ele>952.79</ele>
        <time>2018-08-30T13:20:59Z</time>
      </trkpt>
      <trkpt lat="42.1265" lon="9.13024">
        <ele>952.84</ele>
        <time>2018-08-30T13:21:09Z</time>
      </trkpt>
      <trkpt lat="42.12639" lon="9.13035">
        <ele>950.47</ele>
        <time>2018-08-30T13:21:24Z</time>
      </trkpt>
      <trkpt lat="42.12637" lon="9.13038">
        <ele>948.89</ele>
        <time>2018-08-30T13:21:27Z</time>
      </trkpt>
      <trkpt lat="42.12622" lon="9.13045">
        <ele>949.01</ele>
        <time>2018-08-30T13:21:41Z</time>
      </trkpt>
      <trkpt lat="42.12608" lon="9.13056">
        <ele>949.03</ele>
        <time>2018-08-30T13:21:54Z</time>
      </trkpt>
      <trkpt lat="42.12599" lon="9.13063">
        <ele>951.27</ele>
        <time>2018-08-30T13:22:03Z</time>
      </trkpt>
      <trkpt lat="42.12587" lon="9.13068">
        <ele>952.24</ele>
        <time>2018-08-30T13:22:16Z</time>
      </trkpt>
      <trkpt lat="42.12575" lon="9.13071">
        <ele>954.01</ele>
        <time>2018-08-30T13:22:30Z</time>
      </trkpt>
      <trkpt lat="42.12574" lon="9.13071">
        <ele>953.99</ele>
        <time>2018-08-30T13:22:31Z</time>
      </trkpt>
      <trkpt lat="42.12564" lon="9.13079">
        <ele>953.92</ele>
        <time>2018-08-30T13:22:42Z</time>
      </trkpt>
      <trkpt lat="42.12564" lon="9.13091">
        <ele>952.34</ele>
        <time>2018-08-30T13:22:53Z</time>
      </trkpt>
      <trkpt lat="42.12567" lon="9.13104">
        <ele>951.25</ele>
        <time>2018-08-30T13:23:07Z</time>
      </trkpt>
      <trkpt lat="42.12568" lon="9.13105">
        <ele>951.26</ele>
        <time>2018-08-30T13:23:08Z</time>
      </trkpt>
      <trkpt lat="42.1257" lon="9.13112">
        <ele>949.85</ele>
        <time>2018-08-30T13:23:16Z</time>
      </trkpt>
      <trkpt lat="42.12577" lon="9.13111">
        <ele>949.87</ele>
        <time>2018-08-30T13:23:22Z</time>
      </trkpt>
      <trkpt lat="42.12586" lon="9.13112">
        <ele>948.98</ele>
        <time>2018-08-30T13:23:29Z</time>
      </trkpt>
      <trkpt lat="42.12589" lon="9.13113">
        <ele>949</ele>
        <time>2018-08-30T13:23:31Z</time>
      </trkpt>
      <trkpt lat="42.12604" lon="9.13114">
        <ele>948.14</ele>
        <time>2018-08-30T13:23:44Z</time>
      </trkpt>
      <trkpt lat="42.12621" lon="9.13113">
        <ele>948.26</ele>
        <time>2018-08-30T13:23:59Z</time>
      </trkpt>
      <trkpt lat="42.12628" lon="9.13112">
        <ele>950.49</ele>
        <time>2018-08-30T13:24:04Z</time>
      </trkpt>
      <trkpt lat="42.12639" lon="9.13118">
        <ele>950.52</ele>
        <time>2018-08-30T13:24:13Z</time>
      </trkpt>
      <trkpt lat="42.12656" lon="9.13131">
        <ele>950.57</ele>
        <time>2018-08-30T13:24:29Z</time>
      </trkpt>
      <trkpt lat="42.12669" lon="9.13146">
        <ele>950.6</ele>
        <time>2018-08-30T13:24:45Z</time>
      </trkpt>
      <trkpt lat="42.12679" lon="9.1316">
        <ele>948.14</ele>
        <time>2018-08-30T13:24:56Z</time>
      </trkpt>
      <trkpt lat="42.12683" lon="9.13169">
        <ele>948.22</ele>
        <time>2018-08-30T13:25:02Z</time>
      </trkpt>
      <trkpt lat="42.12689" lon="9.13196">
        <ele>947.33</ele>
        <time>2018-08-30T13:25:21Z</time>
      </trkpt>
      <trkpt lat="42.1269" lon="9.13221">
        <ele>947.34</ele>
        <time>2018-08-30T13:25:38Z</time>
      </trkpt>
      <trkpt lat="42.12689" lon="9.13224">
        <ele>947.34</ele>
        <time>2018-08-30T13:25:40Z</time>
      </trkpt>
      <trkpt lat="42.12693" lon="9.1324">
        <ele>946.21</ele>
        <time>2018-08-30T13:25:51Z</time>
      </trkpt>
      <trkpt lat="42.12695" lon="9.13246">
        <ele>945.01</ele>
        <time>2018-08-30T13:25:56Z</time>
      </trkpt>
      <trkpt lat="42.12697" lon="9.13252">
        <ele>944.99</ele>
        <time>2018-08-30T13:26:00Z</time>
      </trkpt>
      <trkpt lat="42.12699" lon="9.13256">
        <ele>944.95</ele>
        <time>2018-08-30T13:26:04Z</time>
      </trkpt>
      <trkpt lat="42.12701" lon="9.1326">
        <ele>944.93</ele>
        <time>2018-08-30T13:26:07Z</time>
      </trkpt>
      <trkpt lat="42.12706" lon="9.13285">
        <ele>944.17</ele>
        <time>2018-08-30T13:26:25Z</time>
      </trkpt>
      <trkpt lat="42.1271" lon="9.13285">
        <ele>942.38</ele>
        <time>2018-08-30T13:26:34Z</time>
      </trkpt>
      <trkpt lat="42.12724" lon="9.13262">
        <ele>941.61</ele>
        <time>2018-08-30T13:26:52Z</time>
      </trkpt>
      <trkpt lat="42.12731" lon="9.13239">
        <ele>940.92</ele>
        <time>2018-08-30T13:27:09Z</time>
      </trkpt>
      <trkpt lat="42.12736" lon="9.13225">
        <ele>939.12</ele>
        <time>2018-08-30T13:27:23Z</time>
      </trkpt>
      <trkpt lat="42.12744" lon="9.13251">
        <ele>937.37</ele>
        <time>2018-08-30T13:27:41Z</time>
      </trkpt>
      <trkpt lat="42.12752" lon="9.13277">
        <ele>935.75</ele>
        <time>2018-08-30T13:28:00Z</time>
      </trkpt>
      <trkpt lat="42.12753" lon="9.13283">
        <ele>934.82</ele>
        <time>2018-08-30T13:28:11Z</time>
      </trkpt>
      <trkpt lat="42.12753" lon="9.13284">
        <ele>934.82</ele>
        <time>2018-08-30T13:28:14Z</time>
      </trkpt>
      <trkpt lat="42.12755" lon="9.13284">
        <ele>934.92</ele>
        <time>2018-08-30T13:28:16Z</time>
      </trkpt>
      <trkpt lat="42.12759" lon="9.13299">
        <ele>934.05</ele>
        <time>2018-08-30T13:28:31Z</time>
      </trkpt>
      <trkpt lat="42.12763" lon="9.13325">
        <ele>933.08</ele>
        <time>2018-08-30T13:28:49Z</time>
      </trkpt>
      <trkpt lat="42.12766" lon="9.13329">
        <ele>931.43</ele>
        <time>2018-08-30T13:28:53Z</time>
      </trkpt>
      <trkpt lat="42.12775" lon="9.13324">
        <ele>931.41</ele>
        <time>2018-08-30T13:29:02Z</time>
      </trkpt>
      <trkpt lat="42.12779" lon="9.13319">
        <ele>930.02</ele>
        <time>2018-08-30T13:29:07Z</time>
      </trkpt>
      <trkpt lat="42.12786" lon="9.13312">
        <ele>929.16</ele>
        <time>2018-08-30T13:29:23Z</time>
      </trkpt>
      <trkpt lat="42.12787" lon="9.13323">
        <ele>928.23</ele>
        <time>2018-08-30T13:29:31Z</time>
      </trkpt>
      <trkpt lat="42.12777" lon="9.13342">
        <ele>927.32</ele>
        <time>2018-08-30T13:29:52Z</time>
      </trkpt>
      <trkpt lat="42.12777" lon="9.13343">
        <ele>926.38</ele>
        <time>2018-08-30T13:29:58Z</time>
      </trkpt>
      <trkpt lat="42.12777" lon="9.13355">
        <ele>925.46</ele>
        <time>2018-08-30T13:30:15Z</time>
      </trkpt>
      <trkpt lat="42.12779" lon="9.13357">
        <ele>925.43</ele>
        <time>2018-08-30T13:30:29Z</time>
      </trkpt>
      <trkpt lat="42.12781" lon="9.13365">
        <ele>925.4</ele>
        <time>2018-08-30T13:30:42Z</time>
      </trkpt>
      <trkpt lat="42.12781" lon="9.13371">
        <ele>925.38</ele>
        <time>2018-08-30T13:30:46Z</time>
      </trkpt>
      <trkpt lat="42.12792" lon="9.13378">
        <ele>925.39</ele>
        <time>2018-08-30T13:31:01Z</time>
      </trkpt>
      <trkpt lat="42.12797" lon="9.1338">
        <ele>924.51</ele>
        <time>2018-08-30T13:31:15Z</time>
      </trkpt>
      <trkpt lat="42.12798" lon="9.1338">
        <ele>924.46</ele>
        <time>2018-08-30T13:31:39Z</time>
      </trkpt>
      <trkpt lat="42.12797" lon="9.1338">
        <ele>924.42</ele>
        <time>2018-08-30T13:31:58Z</time>
      </trkpt>
      <trkpt lat="42.12795" lon="9.13382">
        <ele>926.62</ele>
        <time>2018-08-30T13:32:25Z</time>
      </trkpt>
      <trkpt lat="42.12791" lon="9.13383">
        <ele>926.59</ele>
        <time>2018-08-30T13:32:48Z</time>
      </trkpt>
      <trkpt lat="42.12787" lon="9.13389">
        <ele>926.54</ele>
        <time>2018-08-30T13:33:23Z</time>
      </trkpt>
      <trkpt lat="42.12783" lon="9.13391">
        <ele>926.51</ele>
        <time>2018-08-30T13:33:40Z</time>
      </trkpt>
      <trkpt lat="42.12788" lon="9.13388">
        <ele>926.31</ele>
        <time>2018-08-30T13:35:24Z</time>
      </trkpt>
      <trkpt lat="42.12771" lon="9.13385">
        <ele>926.31</ele>
        <time>2018-08-30T13:35:43Z</time>
      </trkpt>
      <trkpt lat="42.1279" lon="9.13379">
        <ele>926.28</ele>
        <time>2018-08-30T13:35:56Z</time>
      </trkpt>
      <trkpt lat="42.12793" lon="9.13402">
        <ele>926.27</ele>
        <time>2018-08-30T13:36:12Z</time>
      </trkpt>
      <trkpt lat="42.12795" lon="9.13405">
        <ele>923.72</ele>
        <time>2018-08-30T13:36:22Z</time>
      </trkpt>
      <trkpt lat="42.12795" lon="9.13407">
        <ele>923.83</ele>
        <time>2018-08-30T13:36:46Z</time>
      </trkpt>
      <trkpt lat="42.12795" lon="9.13408">
        <ele>924.08</ele>
        <time>2018-08-30T13:37:43Z</time>
      </trkpt>
      <trkpt lat="42.12794" lon="9.13409">
        <ele>924.16</ele>
        <time>2018-08-30T13:37:58Z</time>
      </trkpt>
      <trkpt lat="42.12795" lon="9.13409">
        <ele>924.31</ele>
        <time>2018-08-30T13:38:24Z</time>
      </trkpt>
      <trkpt lat="42.12795" lon="9.1341">
        <ele>924.6</ele>
        <time>2018-08-30T13:39:05Z</time>
      </trkpt>
      <trkpt lat="42.12796" lon="9.13401">
        <ele>924.77</ele>
        <time>2018-08-30T13:39:29Z</time>
      </trkpt>
      <trkpt lat="42.12796" lon="9.13389">
        <ele>924.86</ele>
        <time>2018-08-30T13:39:42Z</time>
      </trkpt>
      <trkpt lat="42.12795" lon="9.13384">
        <ele>924.99</ele>
        <time>2018-08-30T13:40:02Z</time>
      </trkpt>
      <trkpt lat="42.12792" lon="9.13382">
        <ele>925.08</ele>
        <time>2018-08-30T13:40:17Z</time>
      </trkpt>
      <trkpt lat="42.1279" lon="9.13381">
        <ele>927.72</ele>
        <time>2018-08-30T13:40:22Z</time>
      </trkpt>
      <trkpt lat="42.12785" lon="9.13383">
        <ele>927.75</ele>
        <time>2018-08-30T13:40:40Z</time>
      </trkpt>
      <trkpt lat="42.12778" lon="9.13389">
        <ele>927.98</ele>
        <time>2018-08-30T13:41:29Z</time>
      </trkpt>
      <trkpt lat="42.12768" lon="9.13407">
        <ele>928.06</ele>
        <time>2018-08-30T13:41:58Z</time>
      </trkpt>
      <trkpt lat="42.12766" lon="9.13407">
        <ele>928.06</ele>
        <time>2018-08-30T13:42:01Z</time>
      </trkpt>
      <trkpt lat="42.12766" lon="9.134">
        <ele>928.09</ele>
        <time>2018-08-30T13:42:07Z</time>
      </trkpt>
      <trkpt lat="42.12784" lon="9.13387">
        <ele>928.21</ele>
        <time>2018-08-30T13:42:35Z</time>
      </trkpt>
      <trkpt lat="42.1278" lon="9.13385">
        <ele>928.22</ele>
        <time>2018-08-30T13:42:38Z</time>
      </trkpt>
      <trkpt lat="42.12782" lon="9.13379">
        <ele>928.23</ele>
        <time>2018-08-30T13:42:40Z</time>
      </trkpt>
      <trkpt lat="42.12787" lon="9.13372">
        <ele>928.25</ele>
        <time>2018-08-30T13:42:47Z</time>
      </trkpt>
      <trkpt lat="42.12786" lon="9.13366">
        <ele>925.93</ele>
        <time>2018-08-30T13:42:57Z</time>
      </trkpt>
      <trkpt lat="42.12785" lon="9.13362">
        <ele>926.03</ele>
        <time>2018-08-30T13:43:13Z</time>
      </trkpt>
      <trkpt lat="42.12793" lon="9.13381">
        <ele>926.12</ele>
        <time>2018-08-30T13:43:25Z</time>
      </trkpt>
      <trkpt lat="42.12789" lon="9.13411">
        <ele>926.19</ele>
        <time>2018-08-30T13:43:42Z</time>
      </trkpt>
      <trkpt lat="42.12784" lon="9.13421">
        <ele>926.28</ele>
        <time>2018-08-30T13:44:00Z</time>
      </trkpt>
      <trkpt lat="42.12784" lon="9.13422">
        <ele>928.73</ele>
        <time>2018-08-30T13:44:02Z</time>
      </trkpt>
      <trkpt lat="42.12784" lon="9.13424">
        <ele>928.83</ele>
        <time>2018-08-30T13:44:26Z</time>
      </trkpt>
      <trkpt lat="42.12783" lon="9.13422">
        <ele>926.35</ele>
        <time>2018-08-30T13:44:31Z</time>
      </trkpt>
      <trkpt lat="42.12782" lon="9.1342">
        <ele>926.4</ele>
        <time>2018-08-30T13:44:36Z</time>
      </trkpt>
      <trkpt lat="42.12785" lon="9.13412">
        <ele>926.52</ele>
        <time>2018-08-30T13:44:55Z</time>
      </trkpt>
      <trkpt lat="42.1278" lon="9.13411">
        <ele>926.63</ele>
        <time>2018-08-30T13:45:14Z</time>
      </trkpt>
      <trkpt lat="42.12779" lon="9.13415">
        <ele>929.3</ele>
        <time>2018-08-30T13:45:34Z</time>
      </trkpt>
      <trkpt lat="42.12779" lon="9.13415">
        <ele>926.99</ele>
        <time>2018-08-30T13:45:36Z</time>
      </trkpt>
      <trkpt lat="42.12785" lon="9.1341">
        <ele>960.52</ele>
        <time>2018-08-30T13:46:01Z</time>
      </trkpt>
    </trkseg>
  </trk>
</gpx>